GFSCGP_sfc_rhum_000.txt.gz
RH
46 44 41 32 31 27 30 28 25 23 26 33 28 26 25 19 19 29 18 22 22 20 21 22 26 28 27 26 29 32 35 44 50 61 70 78 75 78 76 68 64 63 59 58
46 44 28 24 27 33 29 30 29 30 26 34 28 29 21 20 20 20 23 26 29 27 26 27 30 38 39 41 39 36 33 38 47 55 63 67 71 69 66 68 65 63 62 63
40 29 24 31 36 34 33 35 36 36 31 30 34 35 26 22 22 24 26 29 30 32 32 34 37 42 51 54 51 44 42 40 42 49 60 65 68 74 77 70 71 71 67 67
30 31 31 34 33 31 37 34 35 33 38 46 32 47 31 26 29 28 34 36 36 34 34 37 40 44 50 56 57 50 42 40 38 45 56 64 71 77 74 72 71 72 71 67
40 36 36 36 31 33 41 39 37 36 39 41 35 44 31 28 33 33 33 37 37 36 36 39 43 43 50 56 56 51 45 42 42 42 45 56 68 70 72 71 68 67 67 66
33 28 30 32 30 34 34 33 34 37 41 52 36 36 35 29 31 35 34 35 35 36 35 38 42 45 51 56 55 51 44 41 42 49 54 57 58 61 65 68 70 69 66 69
34 29 25 26 32 32 33 42 56 62 61 51 31 40 33 24 27 30 34 37 38 37 38 41 48 50 52 53 53 45 47 45 44 45 45 44 52 64 73 73 73 72 71 71
50 51 31 26 34 35 33 43 58 71 59 45 34 47 33 21 23 26 31 36 37 38 38 44 48 51 52 52 54 52 50 50 48 48 46 44 45 51 53 57 55 62 65 70
45 49 33 30 28 27 41 51 39 45 59 53 42 40 28 22 25 26 31 36 41 40 38 43 49 49 51 52 51 50 48 48 49 48 49 48 47 47 49 48 49 53 52 44
45 53 37 36 31 31 32 27 44 45 57 63 42 48 36 28 27 26 33 38 40 39 40 43 46 49 49 50 50 48 46 47 49 49 48 46 48 48 48 48 49 48 47 46
48 51 59 44 45 43 37 38 34 35 38 51 51 42 30 30 25 25 35 39 41 42 44 46 46 46 46 46 47 46 46 47 49 50 50 52 53 52 51 51 50 49 48 48
60 58 64 60 46 45 40 38 33 48 48 45 47 45 28 30 36 37 39 39 40 43 46 46 46 45 46 47 47 46 47 49 51 53 55 56 56 58 59 58 56 54 54 52
55 57 69 75 62 53 59 46 39 43 48 60 52 43 31 33 37 39 40 43 42 44 47 44 44 45 43 44 52 52 54 56 58 60 62 63 64 65 65 62 58 56 56 54
62 56 58 58 50 47 59 55 50 52 58 53 45 40 31 32 36 35 35 43 41 43 44 45 46 45 45 45 55 59 62 62 63 63 65 65 67 64 60 57 56 54 52 53
56 55 49 47 45 42 42 44 42 51 46 55 36 36 29 26 27 27 42 44 42 44 45 44 46 47 48 61 66 65 64 58 49 54 60 61 64 56 55 54 52 51 51 50
55 58 52 50 34 32 36 33 31 35 37 39 38 38 27 26 50 48 50 44 47 46 43 42 43 49 64 75 69 62 61 55 52 55 54 55 55 54 56 54 53 53 53 52
53 50 49 50 38 44 50 40 39 37 34 35 40 33 31 37 44 48 50 52 49 50 45 48 62 75 69 67 63 61 54 47 49 53 49 48 45 46 49 49 48 49 48 45
54 54 55 62 56 74 41 35 35 42 35 34 34 35 38 51 53 50 45 56 54 49 58 68 71 71 70 64 58 51 45 44 44 44 44 42 43 43 42 42 42 42 41 43
39 52 60 75 70 53 46 40 43 50 47 38 41 38 44 53 55 55 47 50 62 67 68 71 70 64 60 55 48 48 48 46 43 41 38 39 39 39 39 40 38 36 38 41
57 49 63 98 87 89 50 44 40 43 64 53 47 47 58 56 71 67 54 61 64 62 64 67 60 56 54 48 46 46 44 38 35 30 31 31 33 34 35 34 33 30 34 32
79 74 76 72 80 69 44 45 43 70 65 60 56 53 60 64 58 58 56 64 63 65 64 56 51 53 47 41 38 37 32 28 26 27 27 28 28 29 28 30 30 30 29 33
75 87 88 79 82 86 46 49 60 51 53 56 60 54 52 48 52 61 65 66 68 68 56 46 50 46 36 27 27 28 29 27 27 28 28 28 28 26 24 28 30 29 29 30
68 56 67 72 77 54 50 52 46 45 52 53 53 47 47 48 56 61 66 70 66 57 49 39 38 33 26 25 27 30 28 28 28 30 30 31 30 28 28 30 31 31 30 30
63 50 61 60 53 51 44 40 51 54 57 57 61 62 59 62 63 69 76 76 68 53 42 37 38 32 30 27 26 28 29 30 32 34 34 35 35 36 34 35 34 34 34 35
67 64 67 66 56 51 48 51 56 61 64 67 61 60 60 65 82 86 84 75 54 41 38 37 35 34 32 32 32 32 32 34 36 36 37 38 39 40 40 38 38 37 36 46
70 70 79 71 53 58 57 56 64 66 67 64 64 78 84 90 92 84 73 49 39 37 38 38 38 38 37 36 36 35 37 40 41 40 42 45 44 43 45 46 42 46 54 59

GFSCGP_sfc_rhum_003.txt.gz
RH
76 84 73 55 45 41 41 43 38 33 32 32 34 35 29 24 23 29 32 34 33 32 35 37 44 52 54 52 50 46 43 55 55 81 83 86 75 92 90 85 76 75 71 69
73 73 50 37 38 39 37 39 38 34 30 34 36 35 28 22 26 32 37 39 38 39 39 42 47 57 60 62 59 52 48 47 57 62 71 81 88 89 85 85 82 79 77 75
74 56 39 34 39 39 37 45 49 44 36 37 48 42 30 28 30 36 37 37 40 42 44 49 52 57 60 61 62 55 49 46 49 61 72 75 80 84 88 89 88 83 78 74
52 33 37 41 41 37 42 37 37 40 44 52 41 52 38 35 36 40 45 43 43 44 47 50 52 56 60 61 57 50 50 51 49 52 60 70 78 81 83 82 80 79 81 76
45 40 39 42 37 34 43 42 40 42 47 57 44 47 40 40 43 43 46 46 43 44 47 50 54 54 59 61 58 53 49 48 49 51 61 67 69 76 79 79 78 78 75 79
40 36 36 36 35 35 35 40 43 47 48 61 46 43 44 41 42 43 45 45 41 41 46 50 54 54 57 60 58 57 52 52 51 51 50 53 56 67 74 79 80 80 79 77
37 33 29 30 34 34 37 49 65 66 67 62 38 42 38 30 36 36 43 46 46 44 48 53 57 57 58 60 59 54 55 54 53 53 51 51 52 55 59 61 69 65 75 79
58 53 32 29 35 38 39 45 68 75 70 55 39 46 33 27 35 39 41 45 44 45 52 53 55 56 58 56 56 55 54 54 53 53 53 54 54 58 56 56 56 58 60 62
52 58 37 32 30 33 42 51 44 51 66 60 54 48 28 34 40 44 46 47 47 45 50 53 55 56 56 55 54 56 52 53 55 55 56 56 58 59 59 59 60 62 58 47
50 58 41 39 34 34 35 34 46 53 61 68 54 57 43 37 37 38 48 50 49 47 50 53 54 53 52 54 54 53 53 56 58 60 61 60 63 64 64 64 65 64 58 59
59 57 63 46 47 47 45 42 38 43 51 57 60 47 36 31 31 36 45 49 49 50 53 53 52 52 52 54 57 59 60 62 62 62 63 67 68 69 65 65 64 63 61 61
63 63 72 66 50 48 46 42 40 52 55 56 54 48 34 46 38 46 48 46 50 52 54 53 51 53 57 63 63 65 66 67 70 69 71 70 72 73 69 64 63 56 58 57
61 64 80 68 57 57 61 54 46 49 56 59 54 48 36 55 46 47 52 50 50 53 55 54 51 53 60 71 70 71 69 66 58 59 65 64 70 66 65 62 54 51 51 51
60 54 56 62 55 55 64 57 55 53 63 58 56 49 40 43 43 45 43 52 55 56 50 52 54 59 76 77 72 70 65 58 55 57 62 58 67 59 56 53 53 52 51 53
55 54 52 48 44 42 43 45 47 58 57 54 38 39 33 38 39 41 48 52 54 53 50 52 62 83 86 75 68 63 58 56 55 58 59 58 55 46 46 49 51 50 50 50
54 57 48 46 40 37 37 36 37 40 43 52 49 45 34 35 42 51 58 53 54 50 51 65 82 84 76 76 67 58 56 51 51 49 48 48 45 45 47 46 45 46 47 46
56 50 51 52 48 48 51 44 42 44 40 38 46 36 36 44 45 54 57 55 55 52 72 80 79 75 72 69 58 54 50 46 45 44 43 38 39 42 42 41 42 43 43 41
60 57 61 68 62 74 45 44 38 43 43 43 41 40 44 49 59 54 56 61 60 74 77 77 76 69 65 55 50 48 45 45 40 45 32 32 34 35 36 36 37 37 38 36
51 60 67 76 79 61 50 51 50 52 51 51 52 52 63 60 61 69 66 68 77 80 79 72 63 59 53 46 44 42 41 38 34 34 29 29 29 31 32 34 33 33 32 34
59 61 66 94 87 83 60 53 47 48 61 59 58 61 65 65 68 67 75 72 70 66 61 60 58 51 42 39 38 34 34 29 28 30 31 30 30 31 32 31 30 30 31 30
82 81 81 85 87 73 56 49 49 67 61 57 61 60 71 71 67 69 72 68 69 65 57 52 50 48 44 36 30 29 30 31 30 34 34 34 32 33 32 31 30 31 33 31
83 91 91 86 88 87 55 55 65 60 63 65 63 59 51 61 69 70 73 77 74 69 57 47 48 45 35 27 30 32 33 31 34 37 37 36 35 34 31 35 36 36 37 37
68 68 81 78 75 58 56 58 59 58 60 68 67 62 57 63 67 68 76 75 69 59 46 37 41 38 30 31 32 34 34 35 37 40 39 39 38 37 36 40 41 41 39 40
75 65 74 66 67 66 62 64 60 60 63 67 69 68 61 61 66 74 76 79 70 54 42 39 38 34 32 31 33 36 37 36 41 42 43 42 42 43 42 43 42 44 46 46
76 80 79 78 63 61 61 64 65 66 67 70 70 69 69 75 87 91 92 82 60 44 38 37 38 39 36 37 39 38 37 43 45 46 43 44 46 47 47 46 46 46 45 52
81 77 88 89 69 70 69 63 68 70 69 70 70 80 92 91 94 90 78 52 41 38 40 41 41 40 40 42 44 42 45 48 51 46 46 49 49 49 50 51 49 52 57 60

GFSCGP_sfc_rhum_006.txt.gz
RH
92 93 91 77 45 48 47 49 48 39 31 36 38 38 32 33 31 34 39 42 44 44 47 50 55 59 61 62 57 53 49 52 73 91 94 94 82 90 93 84 76 76 74 72
98 94 75 59 54 44 45 47 47 38 34 36 38 34 34 28 34 42 41 44 47 51 49 51 54 60 60 61 62 57 52 52 66 79 84 85 89 94 91 90 87 82 82 77
83 74 64 50 47 46 50 50 47 46 40 39 56 45 34 36 41 44 45 45 47 49 51 55 59 64 65 62 59 53 55 59 60 71 80 84 86 89 89 91 92 90 87 83
74 55 56 54 47 42 51 39 39 43 48 51 46 57 43 41 42 46 50 47 47 49 54 58 60 62 66 64 59 55 54 52 49 63 67 73 80 81 85 88 88 84 84 88
70 52 55 46 43 40 41 40 44 45 52 60 51 52 45 41 44 46 50 49 48 52 58 61 62 59 63 64 63 60 56 52 54 54 58 66 65 79 82 79 72 71 74 74
53 40 42 42 38 37 39 40 48 55 55 64 50 48 46 47 39 47 53 50 46 52 60 61 61 59 61 63 63 63 58 58 57 57 57 58 60 60 61 64 68 68 71 75
63 37 32 35 38 38 42 52 68 67 69 64 51 50 40 34 41 35 46 50 48 53 59 61 61 61 62 61 61 56 58 60 59 60 60 62 64 65 66 66 67 66 64 67
74 50 34 29 38 41 46 49 67 70 75 61 44 46 33 36 40 42 45 49 49 54 58 59 60 61 60 58 60 60 61 62 63 64 64 66 68 71 69 69 69 71 69 69
50 56 42 37 31 36 44 54 49 58 70 62 56 46 36 47 53 51 54 50 51 54 57 59 59 59 58 60 62 62 64 67 69 70 71 72 74 74 75 75 74 74 67 55
54 60 49 42 36 36 45 39 51 60 65 65 59 52 45 52 57 55 56 53 52 51 58 60 59 58 60 63 66 69 71 73 74 74 76 73 78 76 75 71 71 63 59 58
56 58 72 48 50 49 45 46 43 50 57 59 63 50 41 38 47 50 53 52 53 54 58 59 59 62 65 70 75 77 77 71 69 73 75 76 80 77 74 67 66 60 58 55
68 66 76 68 53 48 49 45 43 51 52 60 58 49 35 49 36 43 49 50 56 56 59 60 63 70 76 79 80 77 72 65 65 68 70 70 74 66 60 55 52 51 51 49
58 73 84 77 67 61 61 51 47 52 57 62 59 52 38 50 42 51 55 57 53 58 63 58 65 78 83 81 78 75 68 64 62 65 66 63 67 56 50 49 47 46 46 48
59 60 64 65 61 60 66 62 54 50 63 55 60 58 47 46 47 51 52 52 58 61 55 60 78 90 85 77 72 66 61 58 60 61 61 66 55 51 49 47 45 43 44 44
49 53 55 52 48 48 52 54 60 60 59 50 49 48 43 39 37 37 40 54 63 60 56 67 91 92 84 75 68 60 55 51 54 53 57 54 52 46 46 45 43 41 42 39
52 54 46 43 39 41 42 40 41 47 53 55 54 44 37 38 45 67 71 62 62 57 63 88 86 83 83 77 61 53 51 50 50 49 49 43 37 36 39 38 38 37 37 36
51 45 44 44 51 48 50 49 48 44 43 38 41 35 41 43 52 63 69 62 59 60 86 83 81 77 71 60 52 52 50 47 41 48 35 32 32 33 34 33 34 36 35 36
57 60 63 62 62 68 52 48 43 44 46 45 44 45 54 62 65 66 67 65 62 81 83 80 76 69 63 53 50 47 42 37 34 37 32 32 33 33 33 33 34 34 32 32
56 63 73 74 76 60 56 53 51 52 61 60 59 62 66 61 70 74 75 73 83 86 82 76 68 62 54 46 42 36 33 31 30 32 34 33 34 34 34 35 35 34 33 34
61 63 64 93 85 73 58 54 51 50 60 65 67 66 75 74 80 71 84 82 83 75 68 65 60 47 44 40 32 29 31 32 32 34 36 35 37 37 37 37 38 35 36 35
75 77 77 87 86 75 58 53 52 65 58 73 72 70 71 77 74 78 80 77 73 68 59 53 51 45 38 31 30 32 35 34 33 37 38 39 39 40 38 38 38 39 41 40
78 90 88 88 88 84 61 63 69 62 74 67 64 66 71 79 82 81 78 77 72 67 56 48 49 35 28 28 32 35 37 35 37 41 42 42 42 40 36 43 43 44 45 47
75 76 83 75 75 62 66 61 62 60 60 66 71 64 64 76 80 77 81 77 71 58 46 37 37 34 30 34 36 38 38 40 42 45 46 46 44 43 43 48 48 49 48 50
77 72 75 69 72 72 64 67 66 64 63 62 66 69 72 69 72 78 81 82 67 53 41 38 35 32 35 37 38 40 41 43 47 50 49 48 48 48 48 49 48 50 53 55
74 80 81 84 74 72 72 68 68 68 71 78 79 73 67 72 82 90 92 89 61 46 40 37 36 40 41 43 43 44 44 48 53 54 52 49 51 52 52 50 50 51 51 59
89 83 86 87 75 72 76 76 74 77 78 73 72 76 87 90 90 93 90 67 51 40 39 42 45 46 46 48 49 49 50 54 58 52 50 53 54 54 54 53 51 55 60 62

GFSCGP_sfc_rhum_009.txt.gz
RH
92 95 91 84 68 56 57 52 54 47 37 41 43 40 34 36 33 36 42 47 50 50 55 56 59 60 58 56 60 61 59 63 82 93 95 96 95 94 95 93 82 77 77 76
98 92 73 69 56 51 50 58 58 42 40 42 45 41 37 32 34 40 44 49 52 56 58 59 62 65 63 61 59 57 58 64 77 91 93 92 94 94 94 94 92 89 86 84
82 80 72 65 70 60 56 58 58 47 43 43 48 48 44 38 46 46 48 50 52 56 60 65 65 68 67 65 64 57 57 53 62 75 86 88 87 88 85 88 90 87 86 91
86 70 77 79 67 62 74 47 49 48 52 57 56 63 48 41 49 50 58 56 55 60 65 63 62 67 68 68 66 61 58 54 51 59 61 74 82 80 84 89 82 74 74 75
82 76 80 85 65 46 57 41 45 50 53 64 56 58 49 46 48 49 52 54 59 62 62 63 65 63 67 67 68 64 60 58 62 61 64 67 68 72 75 73 68 68 67 71
62 54 63 62 49 42 44 45 51 61 59 69 55 51 50 49 39 52 56 54 57 64 66 66 65 62 63 66 66 67 63 64 65 64 68 71 73 72 70 73 71 72 70 72
60 58 44 39 38 44 45 55 72 72 73 70 59 61 39 38 38 39 48 52 56 63 66 64 65 64 64 66 66 62 68 70 72 72 73 76 78 79 79 79 79 75 69 67
67 83 41 34 41 47 51 51 68 69 78 64 53 54 36 41 42 40 45 50 55 62 66 64 66 65 66 66 68 72 75 76 76 77 79 80 79 81 79 79 80 75 76 72
67 57 41 38 36 38 48 57 52 62 74 73 60 50 41 53 59 56 54 54 56 60 64 64 64 66 68 71 75 77 77 77 78 78 78 84 82 79 79 78 76 74 67 52
52 59 49 42 37 37 44 42 55 65 72 71 62 59 49 53 63 63 60 56 56 59 64 65 65 68 73 78 82 79 75 74 75 75 78 77 82 77 76 73 68 63 58 56
54 53 72 47 51 47 44 46 50 55 63 63 68 54 44 41 54 58 56 53 54 58 64 66 70 73 79 83 81 77 70 68 69 72 72 76 74 70 64 55 55 53 54 51
67 64 66 66 64 51 54 44 44 56 58 65 64 53 42 50 48 56 56 57 60 58 63 68 73 82 85 85 77 71 66 64 67 67 66 69 60 50 48 49 47 44 43 43
59 74 84 78 67 71 69 53 48 55 60 65 62 51 39 49 44 51 56 56 55 60 68 72 83 87 86 83 76 69 63 60 61 60 64 58 51 50 49 48 43 40 41 41
58 67 64 59 67 65 71 62 54 53 66 61 61 57 45 48 49 55 57 55 61 66 62 70 90 91 86 76 67 61 56 54 55 54 55 47 45 46 46 46 43 40 39 37
46 54 56 57 53 61 62 63 59 55 55 52 52 54 47 47 46 41 42 52 60 67 63 80 93 92 84 73 64 57 53 51 49 51 46 45 45 42 43 43 40 37 37 34
53 59 50 49 48 44 47 48 64 64 62 58 59 52 44 44 49 52 66 66 68 65 66 88 89 86 82 74 60 53 51 48 42 45 38 39 38 39 40 38 37 36 36 35
48 48 45 49 57 54 48 48 45 44 46 43 39 35 46 57 62 71 74 67 66 64 83 92 85 80 73 59 54 53 46 35 32 38 35 37 38 40 40 38 38 38 38 37
55 57 59 58 64 59 43 50 45 44 49 42 51 53 56 64 70 74 76 71 66 73 90 84 79 74 59 54 47 39 30 29 33 35 36 39 40 40 40 40 39 41 39 38
53 58 70 68 65 56 61 53 51 52 66 59 59 59 65 66 70 72 78 77 79 89 86 80 72 65 53 43 32 26 29 32 34 36 38 39 41 41 41 42 42 41 41 42
58 59 61 91 82 69 55 53 50 45 78 68 67 73 78 76 82 76 85 88 87 80 72 70 63 52 40 31 28 28 29 33 36 38 40 41 43 44 44 44 44 42 44 43
67 70 72 79 78 68 54 54 53 65 56 74 68 74 75 74 75 76 86 85 80 76 69 59 53 43 35 27 27 30 31 36 38 41 43 46 47 48 46 46 46 46 49 48
69 81 81 85 83 74 63 64 66 64 77 65 65 66 68 74 80 88 87 84 79 70 62 53 50 35 27 29 30 32 37 39 42 46 48 50 51 46 41 50 50 52 53 55
79 70 72 71 72 65 72 65 66 62 64 70 73 72 68 75 83 84 86 85 81 68 52 42 41 38 30 32 34 40 41 44 47 50 53 53 53 51 50 57 54 56 54 55
79 75 76 74 78 78 68 69 67 72 72 73 73 74 73 75 77 82 85 88 77 59 51 43 36 32 32 37 41 44 46 48 52 56 58 55 58 53 54 57 56 55 58 60
77 80 82 82 82 79 74 77 75 74 77 78 79 78 78 80 81 87 89 90 75 50 43 38 36 37 42 46 47 48 49 53 55 57 57 58 57 63 60 58 55 54 54 62
90 83 85 83 74 73 77 75 76 77 78 80 82 80 85 88 88 92 92 77 55 49 40 40 44 47 47 51 52 52 52 56 61 56 54 57 59 63 61 58 55 56 60 62

GFSCGP_sfc_rhum_012.txt.gz
RH
86 97 93 84 67 72 61 64 66 50 42 47 45 47 38 36 37 38 44 52 61 58 63 63 64 63 59 60 60 63 65 79 93 96 95 96 95 95 95 95 91 87 83 81
98 92 74 74 69 65 55 52 62 53 46 46 46 45 39 40 36 37 43 53 60 63 63 63 64 66 66 66 62 56 56 62 80 94 95 95 96 97 96 92 83 84 91 91
86 77 66 71 67 62 66 63 73 65 50 49 52 50 48 42 48 49 50 54 61 61 64 66 68 71 70 69 69 61 61 57 59 67 77 78 80 81 82 82 70 73 72 63
89 86 74 78 82 70 90 58 52 54 58 64 52 65 55 44 50 54 60 61 64 66 69 66 65 68 68 69 67 66 64 64 61 66 64 71 77 79 82 83 75 70 70 70
91 97 88 80 70 69 81 50 51 53 66 68 67 62 52 52 52 53 59 62 66 69 68 68 67 65 69 69 73 72 68 68 71 70 73 74 76 80 78 78 73 74 68 72
72 71 80 83 72 58 50 45 47 61 61 74 60 53 57 50 47 56 62 58 62 69 70 69 68 66 70 73 74 76 72 76 77 75 78 81 83 79 73 76 72 73 70 71
70 79 63 53 67 48 49 51 67 75 76 74 67 67 51 43 41 42 49 56 64 71 72 71 68 70 71 74 76 73 77 81 82 80 79 81 84 84 82 82 76 70 65 63
87 94 61 45 66 70 56 57 72 73 79 67 62 62 41 54 55 45 46 51 64 71 72 70 70 73 73 77 81 81 80 80 80 81 84 82 79 78 73 75 73 70 68 67
71 84 48 49 37 58 55 60 56 66 77 80 68 52 42 54 59 63 57 56 65 69 71 70 73 73 79 84 84 80 77 77 77 78 80 81 74 72 71 72 68 60 61 46
63 62 48 38 33 37 48 45 61 67 75 78 70 62 53 42 56 70 63 60 64 68 70 71 74 78 85 87 82 75 73 74 74 73 75 69 67 62 60 58 57 55 52 50
53 57 65 40 49 46 46 52 57 59 68 67 71 53 48 44 46 59 63 59 63 67 70 73 76 85 90 84 77 72 69 69 68 68 68 60 52 51 50 50 52 49 49 48
62 63 69 57 66 47 47 46 48 63 65 72 70 56 45 54 58 60 61 58 61 62 69 75 82 91 87 79 72 67 63 63 62 64 57 50 48 47 48 48 47 44 44 40
60 71 86 70 70 73 64 54 50 57 63 68 64 55 45 53 58 63 62 61 58 60 73 82 92 91 87 77 67 60 58 57 57 56 48 43 43 44 45 43 41 39 40 39
58 68 64 67 68 64 74 62 58 54 70 68 64 59 59 54 55 57 58 66 64 68 72 87 94 92 81 69 63 57 54 52 51 44 40 41 42 41 42 42 42 42 41 41
48 63 66 58 61 63 60 60 58 56 54 57 58 54 49 59 62 62 62 58 65 71 71 87 93 92 80 69 61 55 51 43 45 37 39 40 42 41 42 45 45 43 43 39
51 59 54 54 51 50 57 64 63 61 62 58 59 57 49 56 64 69 72 64 64 70 69 90 92 88 82 68 60 52 46 35 35 36 35 40 42 44 46 45 43 42 42 41
49 49 52 63 58 55 46 46 71 66 63 59 64 51 49 69 61 68 67 66 67 70 73 94 90 83 71 60 54 49 36 29 31 32 37 40 43 46 46 44 44 44 43 45
49 51 54 59 67 54 42 63 45 49 53 46 55 57 59 64 66 74 76 76 70 77 90 92 86 75 61 56 46 38 28 27 33 37 38 42 46 46 47 47 47 48 46 46
55 59 71 62 61 52 61 56 55 54 69 61 62 64 65 68 73 71 76 82 83 84 91 85 77 68 56 44 31 25 28 33 35 35 39 43 46 48 49 49 50 48 48 48
59 58 56 89 81 63 56 56 49 53 74 63 63 70 75 75 76 72 76 86 89 87 80 75 65 55 42 32 29 31 33 30 32 37 44 45 48 51 51 52 50 50 52 48
70 76 69 78 76 67 54 54 52 62 61 73 69 68 71 73 67 74 88 89 86 79 72 64 56 47 37 29 27 33 35 33 38 45 48 50 51 54 53 53 54 52 53 54
66 79 83 86 83 74 63 61 61 63 72 64 64 65 69 69 77 84 88 88 80 74 66 57 51 36 28 30 35 36 32 41 46 50 52 54 55 50 45 57 56 59 60 61
70 62 68 71 72 66 72 67 71 65 65 68 69 65 64 72 81 83 86 89 83 71 59 49 46 38 35 38 35 39 43 48 51 55 55 56 55 55 55 63 61 61 60 59
81 78 76 72 75 73 68 68 65 65 66 67 74 73 74 75 77 82 87 91 86 65 56 47 40 33 32 36 42 46 49 52 56 59 60 59 62 58 62 60 61 66 62 64
76 78 82 82 85 81 75 76 69 70 73 74 76 77 78 79 83 88 90 91 80 62 50 42 36 36 37 46 49 51 51 56 57 59 58 60 59 69 66 62 66 61 58 64
90 83 83 79 76 76 78 73 74 74 78 83 82 83 87 87 86 91 93 90 68 57 43 40 40 42 46 52 54 54 55 58 64 60 55 57 61 68 62 63 62 59 61 61

GFSCGP_sfc_rhum_015.txt.gz
RH
82 98 95 76 71 61 55 58 59 54 40 39 42 42 35 32 33 33 33 43 47 49 52 52 51 50 48 50 49 53 64 73 72 75 74 73 77 70 63 60 58 58 62 65
86 96 76 69 69 58 57 56 55 51 43 40 44 42 35 36 35 32 34 46 48 50 50 53 53 53 52 53 51 50 51 56 70 77 80 77 64 59 56 55 54 50 46 47
86 76 65 70 74 71 63 63 62 61 51 43 45 45 41 35 34 40 41 47 49 50 51 54 54 56 58 59 58 56 54 54 56 55 53 53 54 56 55 55 53 54 49 46
84 85 71 72 76 70 83 58 57 57 62 66 42 56 48 36 37 44 49 52 52 55 56 56 57 57 60 61 62 61 61 58 58 56 58 60 61 61 61 57 54 51 51 50
90 95 79 81 74 65 75 63 60 59 57 51 50 51 44 41 40 46 51 56 57 57 56 59 61 62 61 65 68 66 64 65 64 61 61 59 61 60 58 54 51 51 47 50
89 90 70 68 68 65 47 48 50 51 49 63 53 48 47 39 36 47 50 54 58 59 60 60 63 63 64 68 69 70 66 67 65 64 62 62 61 56 52 55 49 47 43 45
88 95 93 78 65 64 58 67 97 76 65 65 55 55 43 40 36 40 45 50 58 60 62 61 61 62 65 69 70 66 65 68 63 60 58 58 57 54 51 47 42 39 36 41
96 96 80 66 77 82 81 70 68 70 71 59 58 57 36 36 45 45 43 47 60 62 62 61 62 65 69 72 69 65 64 65 62 58 54 48 48 45 40 40 37 36 36 36
83 80 66 50 55 71 77 85 52 63 64 66 60 49 38 42 48 51 52 54 61 63 64 63 64 65 71 70 67 64 62 62 62 55 45 40 36 36 36 35 33 34 32 27
66 66 57 42 40 44 60 50 71 61 67 69 62 54 48 39 39 55 57 56 62 64 63 65 64 71 74 68 64 62 57 57 56 47 37 33 32 30 31 30 31 33 30 31
53 59 64 47 50 48 58 68 59 55 62 62 58 47 41 40 40 44 56 55 59 62 63 65 67 75 72 64 59 56 52 53 51 40 33 30 30 29 28 28 30 30 30 30
50 61 76 60 57 50 46 50 49 59 62 62 57 50 38 48 49 52 56 54 56 59 64 67 75 76 66 60 54 51 48 49 46 36 30 29 28 28 27 28 29 29 29 28
54 69 80 66 60 67 55 47 46 53 56 62 57 50 40 51 56 58 58 54 54 58 69 72 81 75 66 57 50 46 44 45 37 30 27 27 28 28 28 29 30 29 29 29
56 64 66 72 66 63 65 56 52 46 59 58 54 45 43 49 52 56 57 56 55 57 69 78 82 77 64 54 48 44 40 39 31 28 28 29 30 31 31 32 31 32 31 32
53 60 63 58 60 56 59 59 55 51 44 45 47 50 42 43 46 49 48 55 58 64 72 81 84 75 62 53 48 43 34 30 28 27 30 32 33 34 34 35 35 34 34 33
54 62 53 56 58 59 64 62 52 48 55 52 51 50 43 46 52 55 55 53 56 65 70 82 82 73 63 53 48 44 31 26 28 29 30 34 35 36 38 37 36 36 36 35
53 51 58 64 54 48 56 52 64 54 59 45 54 41 49 62 60 59 60 58 61 64 67 84 81 73 60 52 47 37 24 25 27 29 31 34 36 38 39 38 38 38 38 38
59 49 54 59 56 60 48 54 56 55 53 52 49 48 54 62 60 60 62 60 63 65 76 86 78 67 55 48 39 28 25 26 29 31 32 36 38 39 39 39 38 40 39 39
55 54 65 65 59 50 59 56 56 52 60 50 65 69 67 62 60 61 66 72 74 72 83 81 68 57 49 38 29 26 26 27 30 32 34 37 39 40 40 39 40 40 41 40
55 66 70 87 71 51 48 54 49 52 60 63 62 67 67 63 63 63 73 78 84 82 76 71 58 47 35 28 25 25 27 28 31 35 39 39 41 41 41 41 42 42 43 43
70 72 63 76 70 62 52 54 51 59 53 70 69 72 73 65 62 71 80 82 79 73 66 55 49 43 33 26 26 28 29 30 35 39 42 42 41 43 41 42 44 45 46 47
63 73 75 81 77 62 60 58 57 60 69 66 64 63 64 67 75 81 83 83 76 70 65 53 43 34 26 28 28 31 30 35 40 44 45 43 42 42 40 47 47 48 51 52
66 60 68 66 68 68 71 68 70 63 64 65 64 65 64 68 74 84 86 86 78 70 61 52 42 33 31 33 31 32 35 41 44 46 44 44 43 43 46 51 50 52 52 55
82 76 77 66 75 75 73 69 66 64 65 66 65 65 67 72 74 79 88 89 82 66 54 47 42 35 32 34 35 39 42 45 48 46 46 43 45 48 47 52 52 55 56 58
75 74 81 84 86 76 73 72 73 74 74 74 72 72 72 75 80 83 88 91 79 63 53 48 40 32 34 37 41 43 44 49 46 47 45 46 47 52 56 55 53 52 52 59
88 78 78 76 74 74 74 72 73 75 80 79 78 81 88 83 84 88 91 88 72 58 48 43 37 35 39 44 45 46 48 49 52 48 44 48 52 56 55 56 56 60 63 61

GFSCGP_sfc_rhum_018.txt.gz
RH
68 94 95 84 58 45 40 38 44 38 32 35 34 33 28 23 23 21 20 22 26 30 35 34 35 34 35 36 39 46 52 50 46 48 52 51 49 46 42 39 35 34 34 34
72 95 70 68 57 44 40 43 43 36 34 34 34 36 30 25 22 21 20 23 28 33 32 35 35 34 33 35 35 38 46 54 54 56 52 43 41 40 40 40 38 34 33 33
76 75 68 67 49 51 50 48 43 41 41 38 37 37 28 24 24 25 22 23 28 31 32 33 35 40 41 41 40 40 41 44 42 40 39 40 42 41 41 40 39 37 34 33
61 62 73 71 55 46 57 42 41 50 57 55 37 44 31 22 24 28 26 30 31 33 32 34 38 41 45 47 46 45 43 43 41 40 41 42 42 45 42 38 37 35 34 32
82 84 89 78 56 46 44 47 46 52 57 56 44 45 29 28 25 27 29 32 33 34 35 39 43 46 47 52 51 47 45 43 42 40 39 39 42 41 38 34 34 32 30 30
52 80 78 56 48 46 49 48 46 42 46 57 39 38 29 22 23 27 30 34 35 35 37 41 46 47 51 54 52 50 46 45 43 42 40 41 40 36 34 33 28 26 23 25
68 84 86 53 65 58 47 52 93 87 74 51 37 39 27 23 24 25 31 34 35 38 40 44 46 47 49 53 54 48 44 44 40 39 37 36 35 33 30 26 23 22 20 22
97 98 91 59 60 73 59 50 50 59 53 44 42 41 24 24 27 27 25 31 37 39 39 42 44 48 51 52 49 45 44 43 38 35 32 29 28 26 22 22 20 19 19 20
81 97 88 80 64 57 76 66 39 44 44 38 34 31 26 28 30 32 29 35 41 40 42 42 46 47 49 48 47 46 45 43 37 32 26 23 21 21 21 19 18 20 19 17
48 94 84 88 76 64 66 51 71 47 51 49 38 37 28 26 26 35 33 37 39 40 41 43 45 49 48 46 46 43 40 38 34 27 23 21 18 16 17 17 19 20 18 18
50 49 62 69 81 71 66 83 73 45 41 38 35 31 24 26 27 30 31 34 38 42 43 44 45 50 48 45 43 39 39 36 30 24 21 20 18 16 16 17 17 18 17 18
51 37 52 75 47 46 50 58 54 57 50 39 34 29 24 28 30 33 32 35 38 40 42 44 48 51 47 44 40 36 36 32 28 22 19 19 19 17 16 17 18 17 17 17
41 42 56 57 51 42 54 50 47 39 36 41 40 32 27 32 36 37 36 35 39 42 46 47 52 50 46 42 37 34 34 30 24 20 18 18 18 18 18 18 19 18 19 19
54 43 38 47 40 39 53 48 42 44 47 40 36 30 28 32 36 38 37 34 37 43 48 49 53 50 45 40 35 32 31 27 22 20 20 20 21 21 21 21 21 21 21 22
51 46 41 40 42 37 41 47 43 45 40 42 34 34 27 23 30 34 34 35 36 40 49 53 54 51 46 40 35 31 28 24 19 19 22 23 24 23 23 24 24 23 24 24
48 50 42 42 45 42 43 38 40 43 41 37 33 32 25 25 29 31 33 37 38 40 46 51 56 52 46 41 37 35 26 22 19 20 21 24 24 25 27 26 25 25 25 25
50 49 46 49 40 44 50 42 41 35 32 32 38 30 30 36 34 35 37 36 39 40 45 54 57 54 48 41 38 32 22 19 19 20 21 22 24 26 26 26 25 27 28 27
51 45 44 47 41 81 37 36 32 37 32 30 30 32 31 32 39 42 39 40 43 46 49 57 58 55 45 39 34 23 20 19 20 21 21 24 26 25 25 24 24 26 25 26
67 57 59 51 45 38 34 42 39 44 40 35 35 35 41 44 43 50 51 50 49 50 52 59 56 48 41 36 27 23 20 21 20 22 22 24 25 26 25 25 26 26 27 27
61 83 74 71 66 53 33 40 33 34 37 37 35 42 46 46 45 46 55 57 62 62 62 60 49 42 36 28 23 22 22 20 20 23 25 25 25 26 25 26 27 28 28 29
61 70 74 83 86 37 39 40 39 41 41 47 42 45 48 44 45 56 61 64 59 60 57 48 42 38 31 24 22 23 22 20 23 26 27 26 25 25 25 27 28 29 30 31
62 66 73 76 63 63 43 43 41 46 52 50 50 48 52 56 58 60 62 65 62 58 52 44 40 34 27 23 24 25 20 24 26 28 28 27 26 26 26 30 30 28 29 31
52 48 42 43 44 55 53 51 52 46 50 50 49 48 51 55 58 62 66 64 60 56 49 41 38 32 27 26 22 21 24 27 28 28 27 26 27 27 28 29 31 30 30 32
54 54 48 52 57 57 55 53 48 45 49 48 48 50 49 55 59 62 63 66 62 55 50 43 38 35 31 27 27 25 28 29 30 28 27 27 28 32 29 31 30 31 32 37
49 53 55 64 63 57 54 49 52 54 53 54 53 52 54 55 58 60 64 67 63 55 47 42 41 36 27 26 26 28 30 31 30 28 27 28 30 30 31 30 30 35 38 49
53 50 47 42 45 44 47 51 52 55 58 55 58 63 64 58 63 63 65 66 61 53 46 44 37 28 27 27 28 30 32 33 33 31 30 32 35 32 32 32 33 43 51 56

GFSCGP_sfc_rhum_021.txt.gz
RH
55 86 87 73 78 49 45 46 48 34 26 29 31 32 26 21 21 21 18 16 18 23 28 29 30 30 32 36 42 44 44 44 43 46 49 47 47 43 39 36 32 32 32 32
70 92 56 46 60 74 52 47 41 29 28 32 32 30 25 22 23 22 19 17 19 27 28 30 29 28 28 32 37 45 47 48 48 43 44 41 40 39 39 39 35 31 30 30
77 61 51 44 73 79 60 50 37 35 31 32 34 37 32 26 24 20 18 16 19 27 28 30 31 34 36 36 36 39 39 39 41 42 41 41 40 41 38 36 36 34 29 27
75 58 76 56 77 74 69 38 38 35 44 47 35 40 25 21 24 23 19 18 23 26 27 29 34 38 41 42 41 39 38 38 36 36 38 39 39 41 38 35 34 32 30 28
84 76 83 69 81 73 50 38 38 39 42 48 52 49 29 22 23 22 21 22 26 28 28 33 37 41 42 46 46 42 39 37 35 34 34 36 38 37 34 31 30 28 26 25
60 56 62 60 68 74 49 44 45 44 47 68 43 40 28 25 22 19 21 25 28 28 30 35 41 44 49 49 46 44 40 38 36 36 35 36 36 33 33 31 27 25 22 23
76 88 84 75 90 78 55 62 90 82 75 49 30 36 26 22 21 20 24 28 29 31 34 40 43 45 47 49 47 41 38 37 34 33 32 32 33 31 30 26 24 22 21 22
98 98 91 73 88 81 72 60 47 64 52 38 33 40 26 20 21 20 23 27 30 33 35 39 40 44 47 48 42 40 38 36 32 30 29 28 28 26 23 21 21 20 20 20
87 93 82 89 83 58 68 53 38 38 33 34 36 29 22 22 27 25 24 29 33 34 36 37 40 43 46 44 42 42 38 35 31 28 26 23 21 22 22 19 19 20 18 15
79 99 94 91 65 69 55 38 54 39 47 44 34 29 28 25 23 27 25 30 33 33 36 37 40 43 42 42 41 40 35 33 30 26 24 22 19 17 17 18 18 18 16 16
83 97 97 88 92 83 71 56 53 38 36 36 36 29 21 23 24 25 26 29 33 35 36 38 39 42 42 42 41 38 34 32 29 26 23 22 19 17 17 17 16 16 15 15
73 79 99 93 61 47 56 52 46 45 48 34 32 31 20 23 27 26 26 29 31 35 36 38 40 44 43 42 38 36 35 30 28 24 21 21 21 19 18 17 17 15 16 16
56 55 97 98 83 66 62 57 52 41 38 39 35 33 22 27 29 28 29 29 33 36 37 38 42 44 42 40 36 35 33 30 26 22 21 21 21 20 18 17 18 17 18 18
51 45 41 51 53 64 65 62 49 44 46 40 34 29 25 28 31 31 30 30 33 36 39 40 44 43 40 39 36 33 32 28 24 22 22 23 22 21 20 19 20 19 19 21
51 47 36 31 34 39 46 51 52 52 44 42 32 31 23 22 26 27 28 30 34 37 41 42 46 43 41 39 35 31 31 25 22 21 23 24 23 22 21 23 23 21 22 23
50 47 40 42 38 35 36 36 40 41 39 35 32 30 22 20 21 27 28 30 34 37 40 41 45 44 42 39 36 33 29 25 22 21 21 22 22 22 24 24 24 23 24 25
56 56 45 47 38 41 48 36 35 35 33 32 38 31 24 27 28 28 30 31 32 34 38 43 46 47 44 40 36 34 27 22 21 21 20 20 21 22 23 23 23 25 26 26
53 51 53 59 42 74 35 29 30 32 30 29 31 28 25 27 27 29 29 31 33 35 38 44 47 48 44 38 36 28 24 22 22 22 20 20 21 22 22 22 23 25 24 26
48 60 63 58 48 36 32 33 33 36 36 28 28 26 27 36 42 47 41 36 38 39 43 48 48 47 42 38 30 27 24 22 21 21 19 20 21 22 23 23 25 25 26 27
76 61 72 64 63 59 34 34 28 29 40 25 27 29 35 44 44 46 48 48 52 52 53 55 50 44 39 33 28 28 24 20 20 20 21 20 21 22 23 24 26 27 27 28
91 92 96 89 74 55 34 33 32 39 44 34 30 31 40 42 42 48 49 53 53 55 54 48 45 41 34 28 27 26 23 21 20 21 22 22 22 22 23 26 27 28 28 29
76 90 94 94 93 84 36 39 38 46 42 38 37 38 46 53 52 53 55 58 57 56 51 44 41 36 30 27 28 25 22 21 22 23 24 24 24 24 24 28 28 27 28 29
71 46 53 54 56 48 44 45 43 40 43 43 44 44 47 52 55 57 60 59 56 52 47 42 39 34 30 27 22 23 22 23 23 24 24 24 25 26 26 28 29 29 28 28
46 43 40 41 46 47 45 48 45 42 44 42 43 44 44 52 54 58 58 58 56 51 47 43 38 36 33 28 24 22 23 24 25 24 24 26 27 29 28 30 28 27 28 35
44 45 46 48 54 52 49 46 44 44 44 46 43 42 46 49 52 54 56 58 56 53 48 44 42 39 33 26 23 23 25 25 27 26 27 28 30 29 30 29 26 27 30 42
47 41 44 39 38 38 43 45 45 48 51 51 55 56 53 52 56 53 57 57 56 53 48 48 46 36 28 24 23 24 26 28 30 31 31 31 33 30 31 29 28 37 44 46

GFSCGP_sfc_rhum_024.txt.gz
RH
56 76 87 75 70 65 57 60 63 49 39 45 45 39 36 32 31 32 30 28 28 34 38 40 45 48 55 60 61 64 64 64 65 71 71 60 61 58 55 52 43 42 42 45
68 86 58 52 57 63 67 75 71 49 38 42 42 38 35 32 30 27 27 29 28 40 41 42 43 46 50 61 66 66 67 62 57 58 58 56 56 57 57 53 46 40 38 38
76 62 56 50 56 63 61 76 71 79 42 36 43 49 42 32 27 27 28 28 30 38 41 43 47 51 54 59 59 57 58 58 58 55 50 51 60 61 59 58 54 46 36 34
62 50 52 67 61 56 72 58 63 76 56 70 45 70 43 35 32 30 33 30 36 36 38 42 49 57 60 62 59 56 54 54 55 56 61 60 60 61 58 54 51 47 37 34
85 70 65 68 73 62 64 57 76 72 73 70 62 66 53 35 34 32 32 30 37 36 38 47 55 56 60 65 64 58 53 51 50 50 52 57 58 57 53 49 43 36 37 34
69 60 73 57 52 61 60 68 85 86 69 86 58 68 54 38 32 31 30 32 37 36 42 51 58 61 68 67 64 59 53 52 51 50 50 52 51 49 49 42 42 39 38 39
82 82 68 75 77 61 69 90 99 100 99 89 50 58 48 32 26 27 30 37 37 40 47 56 64 69 68 66 61 54 52 50 47 46 44 44 43 41 37 37 36 33 34 37
90 75 89 77 90 80 88 96 92 97 90 62 41 61 46 30 28 27 31 37 39 42 50 56 62 67 68 63 57 52 49 46 42 40 38 38 37 39 34 31 33 32 32 31
99 98 77 62 76 74 87 98 74 56 42 53 53 45 32 34 37 32 37 39 43 45 52 54 60 64 66 61 58 54 48 44 40 38 34 30 29 29 30 28 28 30 27 19
82 98 86 80 83 85 85 70 72 72 63 67 58 50 45 39 41 34 39 43 44 45 50 52 57 62 61 59 58 51 45 42 39 35 32 27 25 25 25 26 25 24 23 22
81 93 95 96 94 94 96 84 66 59 53 65 63 50 35 34 36 37 38 40 43 46 47 52 56 58 59 58 56 49 43 40 38 34 31 30 27 26 25 25 24 23 22 23
80 97 100 97 80 78 68 62 63 61 70 62 52 51 31 35 34 36 34 39 42 45 47 52 56 57 61 59 54 49 44 40 37 31 30 30 29 27 26 24 24 23 24 24
84 95 99 99 87 92 84 58 58 55 55 63 56 53 36 41 39 37 39 43 42 47 51 53 58 58 60 57 52 50 44 39 33 31 30 30 30 28 27 26 26 25 26 27
79 92 98 96 86 73 76 68 65 66 73 60 52 45 44 45 43 41 41 44 45 46 48 52 60 59 59 54 49 47 42 35 32 31 32 33 31 30 29 28 30 30 29 30
63 84 78 71 66 63 69 66 67 69 62 68 51 38 38 42 44 43 42 44 46 48 51 53 60 60 59 54 48 45 39 34 30 31 34 34 31 29 30 33 33 31 33 33
51 73 55 48 62 65 64 59 61 58 56 56 52 47 28 35 37 41 44 44 46 47 51 55 58 59 57 54 47 42 38 33 31 31 31 30 29 29 33 33 33 34 36 36
62 69 60 59 45 50 60 48 55 52 52 51 57 41 37 37 38 40 42 43 48 50 52 55 61 59 55 52 42 42 36 31 29 29 27 26 27 30 32 32 33 35 37 38
65 70 75 82 59 82 46 40 35 39 40 42 41 39 38 38 45 49 44 44 46 48 52 59 64 63 55 49 47 35 32 31 31 29 24 25 28 29 31 32 33 36 37 38
53 66 77 75 65 49 46 43 45 47 46 37 40 38 50 54 59 63 57 53 55 59 62 67 62 58 52 46 34 34 31 30 29 27 25 25 27 30 32 34 36 37 39 41
73 72 86 88 84 78 51 43 35 41 61 44 39 41 54 56 70 75 64 65 68 68 66 63 56 51 45 39 36 32 31 28 27 26 27 27 29 31 33 35 38 39 41 38
94 93 93 92 88 79 46 44 40 60 60 49 44 48 55 69 67 63 65 70 70 66 60 55 53 50 43 38 36 33 29 29 27 28 29 30 31 33 33 37 40 41 41 40
91 95 98 96 97 92 45 49 54 58 56 51 56 57 68 67 65 67 68 70 65 63 60 53 43 39 37 36 34 32 30 29 29 31 32 34 34 32 30 39 42 41 42 43
82 72 79 85 81 56 55 56 57 52 54 59 64 63 61 65 68 68 70 68 64 59 54 46 42 40 37 35 32 32 32 30 30 32 33 34 35 36 36 41 43 43 42 42
65 51 58 57 60 58 54 60 61 59 59 60 59 59 61 68 68 69 67 65 62 60 59 48 44 42 40 34 30 32 32 31 33 34 35 38 40 41 41 44 44 43 42 44
57 55 58 62 65 61 60 59 58 56 56 56 56 59 63 66 72 71 71 69 66 63 59 53 51 46 42 34 32 34 33 35 39 39 41 42 45 45 46 44 41 41 42 50
56 53 61 57 48 52 60 58 55 58 62 63 62 68 68 69 71 72 76 71 68 66 62 62 57 44 37 32 32 34 36 39 42 45 47 50 51 50 50 46 40 43 45 48

GFSCGP_sfc_rhum_027.txt.gz
RH
68 91 91 83 88 72 69 77 82 68 52 57 56 56 50 43 39 45 39 36 40 45 47 48 54 59 69 73 72 74 76 76 70 61 59 52 61 51 48 44 40 40 43 42
81 89 67 61 64 79 75 85 85 66 58 58 58 59 46 40 40 36 39 38 46 52 51 53 54 62 71 78 79 78 71 68 65 61 63 65 58 58 57 54 43 37 37 39
83 67 54 60 68 73 74 84 80 69 63 62 67 65 55 44 36 37 35 34 40 47 50 56 59 65 70 70 70 66 65 59 55 52 52 55 61 64 63 59 53 40 34 34
72 59 59 70 73 63 77 54 55 61 73 87 64 93 61 46 41 38 38 41 42 48 49 52 59 66 66 70 68 65 63 59 60 57 60 63 64 64 63 61 54 45 34 33
90 73 69 70 66 63 70 54 61 62 77 85 77 84 68 47 48 38 33 47 46 47 48 57 62 64 70 67 66 63 59 59 59 59 59 60 63 62 59 51 46 42 38 33
88 67 76 63 52 54 56 68 71 71 79 98 80 89 76 56 41 39 37 46 46 48 56 62 66 66 72 68 64 62 55 56 55 56 57 57 54 49 45 42 42 42 41 40
91 85 76 76 87 77 71 88 93 98 97 86 73 82 72 44 34 34 38 46 46 53 62 69 71 70 72 68 63 57 53 53 49 46 46 44 41 38 38 39 37 35 36 36
97 95 86 71 74 77 85 83 89 89 76 71 72 98 57 40 34 33 39 43 50 60 65 71 71 72 72 64 60 55 50 48 44 42 42 40 37 40 36 34 34 34 32 32
94 92 71 64 61 60 78 93 64 95 96 81 73 56 39 42 43 45 46 48 57 64 67 72 72 70 72 67 59 53 48 46 42 38 35 32 32 32 31 30 30 32 28 21
86 97 68 79 82 70 72 60 92 99 96 98 71 60 51 48 44 48 49 52 59 62 65 69 70 70 69 63 58 51 46 44 40 34 30 28 28 28 28 27 26 25 25 25
94 99 91 96 95 87 92 91 79 79 73 96 83 62 43 44 39 48 49 50 59 61 62 67 68 65 67 61 54 51 45 42 39 34 31 30 30 28 27 26 26 25 26 26
91 98 99 92 78 69 71 75 78 87 99 85 64 55 40 42 41 43 49 49 56 56 61 66 66 64 63 60 50 46 46 42 37 34 33 33 31 28 27 27 27 28 28 28
92 98 100 99 96 91 94 82 74 86 85 72 68 56 46 45 44 43 50 51 54 57 63 66 65 63 62 57 51 48 45 39 35 34 34 33 32 30 29 29 30 29 30 31
83 97 100 99 90 86 96 93 86 77 84 78 63 60 58 51 47 52 50 49 54 57 60 65 64 64 62 57 52 46 43 37 36 36 36 34 32 32 31 33 33 34 33 34
89 99 94 91 80 72 74 76 78 86 80 68 55 52 52 50 49 48 52 53 56 58 61 65 66 65 61 57 52 43 38 36 36 37 39 37 34 32 33 35 35 34 36 36
74 96 87 90 65 67 70 66 73 71 68 63 66 64 42 51 52 51 54 53 55 57 59 65 62 63 60 54 47 38 38 37 36 37 37 34 32 32 35 34 35 35 38 39
67 79 87 83 68 67 76 70 70 71 66 61 70 54 45 49 46 47 56 51 54 57 62 64 61 60 55 49 41 38 36 35 33 33 31 30 28 31 33 33 34 37 39 42
78 75 81 86 64 78 49 45 55 65 58 59 56 45 44 53 67 66 62 54 55 56 59 63 63 58 53 46 40 35 34 34 35 32 29 28 30 30 32 34 36 39 41 43
62 74 83 83 84 61 52 44 49 51 52 50 53 50 55 62 64 69 72 66 62 61 63 70 62 56 48 40 34 33 34 35 34 30 28 28 29 31 34 36 39 40 43 46
73 74 88 92 88 82 56 46 42 46 62 57 53 56 56 59 64 80 82 75 75 69 63 59 53 43 37 35 30 31 34 32 31 29 30 28 31 33 36 38 41 43 46 44
92 92 96 91 94 78 53 45 46 58 53 60 57 57 58 61 66 76 78 74 67 62 57 52 44 40 39 35 32 33 32 31 30 30 31 32 34 36 36 41 44 46 47 47
87 92 96 92 97 92 52 49 51 53 62 70 75 74 79 79 78 79 74 71 66 65 56 46 43 42 42 36 33 36 32 32 33 33 33 35 36 35 34 44 46 47 48 50
95 81 86 84 75 61 64 61 61 59 62 74 75 74 73 77 78 75 75 70 65 56 46 42 41 43 42 38 33 34 34 34 33 33 35 37 38 40 43 46 48 51 49 49
79 66 73 77 62 63 60 65 64 64 68 71 69 70 69 77 74 74 69 64 61 54 50 44 41 40 38 36 35 36 36 35 35 37 39 43 46 48 47 50 50 50 50 55
72 62 65 63 75 68 66 63 65 65 64 67 67 66 69 70 72 69 68 66 64 60 51 46 45 42 39 36 37 37 37 38 40 42 46 50 53 53 54 52 50 53 52 56
59 61 63 68 53 53 58 63 60 60 65 68 71 78 76 71 74 72 72 67 66 64 61 58 52 47 40 37 38 40 41 43 46 48 51 55 59 59 57 55 53 50 50 52

GFSCGP_sfc_rhum_030.txt.gz
RH
75 93 94 84 91 81 78 85 90 81 61 72 67 62 52 51 55 53 48 48 44 44 50 53 62 71 79 78 79 84 85 80 59 57 56 60 60 45 41 39 39 41 42 43
85 90 68 67 70 84 92 94 88 67 57 58 73 74 59 48 45 48 42 46 42 54 56 61 69 82 82 87 89 85 84 78 69 60 64 58 60 56 45 43 38 37 38 38
89 68 58 68 74 79 82 94 86 83 66 57 53 67 64 52 49 43 40 38 45 49 56 65 77 84 87 86 83 75 72 67 61 54 51 52 50 56 53 53 47 38 34 37
82 66 64 69 76 73 88 70 70 68 66 92 71 85 68 59 53 48 41 47 48 50 56 64 76 80 80 81 76 70 65 61 58 54 53 50 54 59 68 61 49 41 34 35
89 84 77 75 70 64 75 56 60 61 63 72 71 86 73 59 56 52 45 42 43 50 54 63 72 70 75 75 74 70 67 67 70 67 59 60 64 67 64 55 46 38 36 34
91 68 79 66 55 55 61 67 70 74 77 98 68 78 68 66 55 49 43 44 49 52 57 68 74 71 73 70 68 66 64 67 65 60 61 59 55 50 48 48 47 44 40 40
94 96 82 74 77 67 63 84 97 98 97 84 56 77 61 64 56 42 38 46 52 54 67 75 73 68 66 65 64 59 57 59 56 53 50 47 44 40 39 40 39 36 35 37
99 92 95 81 82 84 82 81 93 94 99 65 77 88 68 52 39 37 40 44 53 63 67 71 69 67 64 61 61 54 51 50 46 42 42 39 38 42 40 36 36 34 34 33
97 92 75 69 67 64 88 95 65 88 84 98 85 83 59 53 50 51 53 56 62 68 72 73 70 66 64 62 56 50 47 45 41 39 36 36 35 34 34 31 32 32 30 23
84 96 78 70 75 71 64 64 91 96 99 98 91 78 43 50 58 61 59 63 68 74 77 75 69 68 65 57 56 50 43 40 37 34 31 32 31 30 29 28 26 26 27 28
71 98 89 90 99 91 96 90 77 69 80 96 98 80 41 38 48 58 59 64 73 78 78 75 72 68 63 57 50 48 42 37 34 31 32 32 31 29 28 28 27 27 28 29
86 99 98 90 75 71 73 74 70 79 74 72 97 74 48 44 50 48 54 63 69 72 76 76 71 69 61 54 50 46 42 37 35 34 34 34 31 28 29 29 29 30 30 31
92 99 98 100 98 84 80 71 62 54 82 73 88 72 46 53 55 52 60 67 67 74 77 76 72 67 61 54 49 46 41 38 37 36 36 34 33 31 31 32 32 32 34 35
88 99 99 97 90 88 98 84 69 62 89 72 94 85 57 55 54 62 63 65 68 73 74 75 71 68 60 52 48 45 41 37 38 37 36 35 34 33 33 35 35 35 35 37
92 100 100 96 93 94 77 89 83 78 68 79 62 78 63 49 52 59 60 64 68 74 76 72 71 69 62 55 49 41 39 38 38 39 41 38 36 35 36 37 36 37 38 39
87 99 99 98 83 91 91 82 78 82 84 92 68 62 44 55 58 66 64 63 66 70 72 70 68 68 62 54 45 37 39 40 39 41 40 38 36 34 36 36 37 37 39 40
85 96 99 99 76 89 99 93 87 95 83 80 76 53 51 53 51 64 65 58 62 66 70 69 68 64 59 49 39 38 38 39 38 38 36 34 32 32 36 35 36 38 40 43
69 78 87 97 70 78 52 46 60 62 59 56 57 49 51 55 70 69 73 59 61 63 68 66 66 63 55 44 40 37 35 36 37 36 33 31 32 32 34 35 37 40 42 45
75 81 92 97 91 65 48 46 60 70 66 62 61 57 65 68 67 73 84 71 69 65 67 66 64 57 48 40 35 34 37 38 36 34 30 30 31 33 35 37 40 42 45 49
76 80 89 96 88 83 60 52 46 50 64 61 56 63 65 65 64 71 91 83 80 77 70 64 55 48 40 37 33 34 37 36 34 31 32 31 34 34 37 40 44 45 49 48
87 90 95 95 96 78 60 52 51 62 54 64 63 62 61 56 69 87 77 72 66 62 55 48 45 42 37 34 33 35 35 34 33 34 34 35 36 37 39 44 48 50 51 50
92 94 94 94 97 82 55 46 49 49 76 78 78 80 88 88 82 78 72 69 63 57 50 45 42 40 38 35 34 36 35 36 36 37 37 38 38 38 39 48 50 51 53 54
91 84 90 85 78 67 66 63 67 64 69 81 85 82 81 82 80 76 74 65 57 51 48 44 42 41 42 40 33 35 37 37 37 37 38 41 43 47 48 53 54 55 54 58
86 78 87 81 67 76 68 72 67 68 76 80 78 78 75 81 76 74 68 59 55 52 48 44 41 41 43 38 36 37 39 38 37 39 45 49 51 56 54 53 51 58 62 66
81 76 77 79 72 71 67 71 72 75 74 75 75 73 74 72 74 69 68 62 56 50 47 44 41 39 42 40 40 40 40 40 42 46 48 51 56 61 59 55 58 66 64 64
63 71 71 74 54 55 58 66 67 70 75 74 75 78 76 68 70 67 68 63 55 55 54 50 46 40 42 41 42 44 44 45 48 47 51 56 64 64 58 62 65 57 54 54

GFSCGP_sfc_rhum_033.txt.gz
RH
78 92 92 76 86 87 88 91 90 84 64 74 79 77 67 60 57 55 62 56 51 50 45 50 53 66 76 80 78 75 84 70 61 59 57 56 50 43 40 38 35 35 40 43
90 95 78 71 75 86 94 93 92 77 64 65 67 66 58 47 48 55 50 52 52 51 54 54 65 85 85 86 90 93 79 74 69 62 61 57 50 43 40 40 33 36 38 38
89 71 60 68 80 82 85 92 81 82 70 67 74 62 44 39 47 52 49 44 44 47 52 61 76 88 91 92 94 92 81 71 64 56 50 47 40 39 37 35 42 39 37 38
86 68 70 75 77 80 88 72 71 77 88 95 76 82 58 53 50 52 50 50 48 50 50 56 84 91 93 92 91 81 72 63 55 51 48 45 45 48 61 52 43 40 36 36
89 92 89 87 75 66 75 61 72 80 89 89 74 91 68 53 50 50 62 52 54 51 53 65 80 85 89 87 86 78 70 66 66 59 54 54 61 58 56 45 39 36 37 35
73 67 84 79 64 60 65 73 78 93 82 96 70 82 60 47 52 59 55 54 53 48 55 65 84 81 84 82 80 76 72 74 67 63 62 56 55 50 47 51 46 43 40 40
98 96 85 80 87 71 64 99 98 98 98 88 62 73 60 46 56 56 54 54 51 55 66 82 81 80 77 76 76 72 68 70 65 60 58 53 49 45 44 44 44 38 36 37
97 91 87 81 85 88 81 87 94 95 90 79 61 81 57 42 35 30 29 48 55 61 70 76 77 75 73 70 69 67 64 60 54 50 47 44 42 44 42 40 38 36 35 35
98 93 82 81 74 70 96 97 71 90 92 96 82 68 48 43 45 56 53 50 61 68 72 75 73 70 68 65 63 60 56 51 46 42 40 40 39 37 35 33 32 34 32 26
84 98 78 75 76 71 76 69 95 99 94 94 83 80 50 43 30 22 55 63 68 71 75 76 70 67 64 60 57 52 46 43 40 37 34 34 33 32 31 29 28 29 29 30
77 90 91 95 99 86 92 97 81 73 88 97 99 69 68 40 32 35 67 70 75 79 80 74 69 65 60 56 51 46 41 37 35 33 33 32 32 30 29 29 29 30 31 32
76 99 97 84 80 68 70 81 78 80 90 78 96 71 52 59 51 60 74 74 82 81 76 74 70 64 57 54 48 43 38 35 34 34 33 34 32 30 31 31 32 32 33 34
87 99 97 96 96 96 99 95 94 69 69 75 72 52 56 41 66 63 77 83 86 85 82 76 70 63 58 52 48 41 37 36 37 35 34 34 34 33 33 34 34 35 35 38
82 99 99 92 86 97 98 94 96 84 78 71 69 51 36 39 65 75 86 83 88 84 80 76 71 64 58 51 46 41 40 37 38 36 37 37 36 34 36 37 37 37 38 41
88 99 99 95 92 94 98 90 83 83 65 70 59 68 59 44 57 69 78 81 85 86 84 76 73 67 59 53 46 40 40 39 37 39 42 41 39 39 39 38 37 39 41 41
91 98 100 98 83 94 98 96 76 72 60 64 75 67 48 51 56 68 72 74 80 83 81 76 71 66 57 50 44 39 41 41 40 42 43 41 40 38 38 35 38 39 41 42
96 99 100 99 97 96 99 94 77 76 65 60 91 68 52 58 58 64 69 68 75 78 79 76 72 62 55 48 39 40 40 42 42 42 40 38 37 37 36 36 38 39 43 46
90 96 98 99 90 97 71 79 78 79 77 77 78 72 69 58 64 68 70 65 71 75 75 74 70 64 53 44 41 40 40 41 42 40 37 36 36 34 36 37 40 43 45 47
72 84 96 99 99 71 55 87 92 94 90 81 80 77 59 70 65 71 78 69 70 70 71 71 67 59 48 42 38 38 41 41 39 38 35 32 32 35 38 40 43 45 47 48
86 88 94 96 98 85 60 53 48 56 80 64 68 67 68 65 65 64 84 82 81 77 74 70 59 50 43 40 36 37 39 38 38 35 32 32 37 37 40 43 47 47 51 49
95 92 95 95 86 81 66 57 53 65 55 63 62 67 69 61 80 85 80 78 77 72 65 56 51 46 41 36 35 38 38 38 36 35 36 39 39 41 44 48 49 53 54 52
80 93 95 90 98 82 60 48 52 50 79 82 82 77 92 90 81 76 70 68 65 63 57 48 45 41 38 36 36 39 37 38 39 40 41 41 45 41 42 51 55 54 56 60
92 83 91 88 82 68 69 66 68 67 70 85 87 87 80 81 80 72 68 62 58 53 50 44 42 41 42 41 34 36 41 41 41 40 43 47 49 50 52 56 56 58 62 68
86 84 89 82 77 79 72 74 69 72 80 87 85 79 75 81 72 66 60 57 55 52 47 42 40 41 43 40 39 39 41 40 40 45 50 52 56 59 59 53 53 66 70 75
84 83 83 84 75 67 70 71 76 81 80 79 78 76 74 70 68 62 60 57 53 50 46 43 42 41 43 42 42 42 42 41 44 49 49 57 59 64 62 57 64 76 71 68
76 80 80 76 64 62 63 69 73 74 78 75 75 77 74 68 67 63 61 55 52 52 48 46 45 42 46 43 45 46 45 46 48 49 51 61 64 66 61 67 69 57 55 56

GFSCGP_sfc_rhum_036.txt.gz
RH
81 92 93 78 77 73 94 97 95 84 68 81 79 73 63 58 68 72 62 59 61 57 47 47 46 53 59 68 74 86 89 82 67 64 62 59 58 50 42 39 36 36 38 41
90 96 78 71 75 87 93 90 78 66 69 74 71 68 56 52 54 56 54 56 58 56 55 50 55 76 79 78 81 90 83 78 70 66 65 58 69 47 40 39 36 34 34 40
92 74 68 76 84 86 90 93 81 74 71 66 78 65 40 35 37 42 39 41 48 52 53 55 63 80 89 90 92 92 84 77 69 57 49 44 44 36 36 35 36 36 38 41
92 72 74 81 85 86 86 72 76 79 89 91 80 78 50 49 42 36 37 49 54 56 56 54 64 87 92 93 96 92 78 70 60 54 50 45 45 40 40 38 35 36 38 39
86 93 96 90 78 74 78 68 78 80 92 96 85 94 64 54 46 44 64 63 54 55 51 56 66 71 92 96 96 87 73 67 64 55 50 51 54 46 38 36 34 37 38 37
75 67 77 83 72 69 70 75 81 88 96 98 72 86 58 43 38 43 51 55 54 58 58 55 69 91 95 96 90 79 71 74 67 60 54 48 41 37 38 43 40 43 43 43
84 91 78 75 85 77 78 97 98 99 97 86 66 78 60 44 42 46 47 57 62 62 64 84 92 93 94 93 86 79 71 74 59 55 51 43 39 38 39 42 40 38 38 40
93 90 90 78 80 82 88 83 93 94 95 86 65 84 54 46 36 33 31 39 53 62 76 82 86 88 89 87 82 76 72 69 57 54 53 48 44 46 44 41 39 38 38 38
96 93 77 83 80 71 94 96 71 92 81 95 72 78 53 41 36 39 56 44 44 66 83 86 89 86 85 83 79 72 66 59 53 48 45 44 42 40 37 35 36 37 35 30
81 96 76 82 83 79 81 68 97 98 96 94 86 83 63 47 42 32 26 35 60 76 86 91 88 83 79 74 69 61 53 49 45 42 38 36 35 33 32 31 32 32 32 34
85 90 92 93 98 84 97 98 99 80 87 94 92 55 56 55 64 63 57 30 66 78 85 86 82 74 68 63 58 52 45 41 39 36 34 32 31 30 30 30 32 33 34 35
76 96 97 83 59 67 63 88 80 97 94 89 90 58 50 70 65 65 68 74 88 88 86 80 74 67 62 57 51 45 40 37 36 34 32 32 32 31 32 33 34 34 36 38
76 97 99 87 93 80 100 96 95 84 92 82 85 56 34 34 36 75 91 96 94 88 84 76 69 65 59 52 45 40 37 36 35 33 32 33 35 35 36 37 37 37 38 41
73 92 95 88 73 79 100 98 98 97 97 81 76 53 35 34 48 68 92 95 95 92 82 75 68 62 55 47 42 38 38 36 35 34 35 37 38 38 39 39 39 40 41 41
83 99 98 94 84 87 96 99 98 98 86 91 61 56 45 47 47 74 88 96 92 88 82 74 67 61 53 47 41 38 38 37 36 38 41 42 43 43 42 42 41 42 42 43
87 99 100 97 83 95 99 96 98 95 91 79 63 60 41 49 75 72 89 95 93 86 77 72 63 58 53 44 40 38 40 41 40 42 43 44 44 42 43 41 40 40 43 45
96 99 100 93 91 98 100 97 97 94 74 70 80 57 43 56 57 68 84 87 87 81 76 70 63 56 50 43 38 40 41 43 42 42 42 42 42 42 42 38 38 41 45 48
89 98 99 98 98 96 77 79 84 91 69 64 58 57 65 65 67 65 70 78 82 80 77 71 63 57 50 43 42 42 42 44 44 42 40 41 41 39 37 37 41 45 48 50
76 88 99 100 97 87 64 90 89 96 90 76 73 60 59 70 75 76 75 73 78 79 75 71 62 54 46 43 41 41 45 44 41 40 40 38 37 35 37 41 46 49 51 53
88 83 98 99 99 98 69 61 77 74 88 80 76 76 78 75 77 73 83 81 83 76 75 71 59 50 44 42 39 40 43 40 40 39 37 36 35 37 43 48 49 52 54 48
98 99 98 99 97 82 63 63 71 82 56 70 79 77 87 83 83 87 84 86 80 77 70 59 54 49 43 39 38 41 41 40 39 37 38 37 38 46 49 52 54 55 54 54
86 92 88 91 97 84 62 56 61 57 75 78 80 74 76 87 81 77 77 77 74 71 64 54 50 45 41 38 38 40 40 42 40 43 40 44 49 42 46 54 56 56 61 67
90 83 91 86 84 68 72 62 66 68 71 84 86 90 82 82 79 74 72 69 61 58 54 48 45 44 45 43 34 37 45 41 42 42 49 52 52 53 53 56 59 62 68 74
87 86 91 86 78 76 76 72 76 76 82 88 85 81 77 77 69 66 62 60 57 54 51 46 43 42 43 42 39 39 42 41 43 51 54 57 65 60 61 53 55 72 74 78
83 88 85 84 77 78 71 75 84 84 80 79 76 73 70 66 65 62 61 57 52 50 47 44 43 42 44 40 42 42 42 43 47 52 54 61 62 63 63 59 67 77 78 72
86 81 84 79 64 65 64 77 81 83 84 80 76 76 71 63 62 57 56 51 50 50 47 46 44 42 44 42 46 47 47 48 51 52 55 67 63 69 63 70 73 59 56 56

GFSCGP_sfc_rhum_039.txt.gz
RH
75 84 90 78 76 70 82 90 85 66 60 67 67 66 55 49 49 53 48 44 45 50 42 41 41 38 41 47 55 58 76 82 72 68 65 61 60 70 55 48 38 38 40 35
89 91 73 69 72 77 78 83 78 65 58 66 68 68 53 47 45 40 39 40 43 41 46 44 42 42 46 47 58 69 77 76 68 65 63 58 72 72 68 45 39 38 37 34
89 70 67 73 79 83 87 89 77 74 63 60 65 59 37 31 35 36 38 37 37 39 39 40 44 47 59 62 64 71 74 70 66 57 57 54 61 55 51 40 44 44 33 31
90 74 74 84 84 82 84 68 71 78 83 81 64 70 41 33 31 28 28 33 38 38 36 39 45 49 64 65 73 74 72 66 58 53 55 56 63 57 45 44 42 36 32 33
85 87 94 85 76 76 75 64 72 77 86 93 75 89 48 45 44 38 34 35 34 37 36 42 47 48 55 77 82 76 70 62 56 52 54 55 55 53 40 34 33 32 33 30
74 69 73 76 70 68 66 77 74 84 94 96 65 81 53 39 33 31 28 28 44 43 41 43 46 53 70 84 85 77 68 62 56 54 50 49 44 38 34 34 34 36 29 31
85 85 77 70 80 76 74 99 94 94 97 81 60 78 56 38 37 34 34 35 38 44 54 56 66 73 82 89 84 74 66 63 55 51 46 40 35 31 31 32 32 29 28 30
89 88 83 76 78 67 81 81 88 94 87 73 64 76 50 40 36 33 32 32 31 48 55 59 64 74 80 87 79 69 65 62 53 48 40 35 37 37 36 33 30 27 26 28
96 89 72 84 80 70 84 96 69 89 72 88 58 53 38 32 34 39 35 33 43 40 50 65 74 78 82 84 76 70 64 59 52 47 41 39 36 36 33 30 27 27 27 26
78 94 72 80 82 80 83 70 94 97 96 92 68 65 51 44 36 40 55 54 49 40 54 71 79 83 83 80 72 65 57 52 47 42 38 35 31 28 28 26 27 27 26 28
76 82 83 86 95 84 90 96 99 95 96 88 70 48 39 35 43 64 63 68 68 46 60 75 83 81 79 71 64 56 49 45 41 36 32 30 27 26 24 25 26 26 27 28
78 93 99 84 68 67 65 73 80 97 94 91 82 62 33 55 68 63 66 81 85 77 83 85 78 73 70 62 55 48 42 38 35 31 28 27 26 26 25 26 27 27 29 30
80 97 96 83 84 80 96 80 71 94 95 95 92 58 32 33 40 53 65 84 88 86 82 75 71 69 62 55 46 40 36 34 31 28 28 27 28 28 27 28 29 29 31 32
68 96 90 87 65 65 98 98 98 99 97 78 88 60 43 38 38 52 53 88 88 83 77 74 68 62 54 46 39 36 34 31 30 29 30 31 30 30 29 30 31 32 32 33
85 100 91 79 76 82 96 98 97 99 89 94 60 67 54 44 57 53 53 86 84 86 76 70 64 54 46 40 36 34 32 31 30 32 35 35 35 34 34 35 34 34 34 35
88 98 99 97 81 82 100 95 98 96 87 92 80 76 54 45 57 62 67 83 81 84 74 66 59 49 44 39 36 35 34 34 34 36 38 39 36 35 37 35 36 36 36 36
89 97 100 95 79 84 95 97 98 95 87 80 94 70 56 55 51 56 71 76 82 81 71 63 55 48 41 38 35 35 34 35 36 37 37 36 34 36 36 35 35 36 37 36
86 92 99 96 93 94 70 83 87 94 83 77 69 60 54 60 65 72 75 80 84 75 68 60 52 46 40 36 36 36 36 37 38 37 36 35 35 35 35 35 35 37 36 36
85 86 99 99 97 79 66 66 88 94 82 80 70 63 58 68 73 72 73 80 79 73 64 57 50 44 39 38 36 38 39 38 36 36 35 33 32 34 34 36 37 38 37 37
93 84 91 99 99 97 71 66 74 78 87 74 69 68 76 80 82 79 85 82 80 72 64 58 49 42 39 38 36 38 39 35 36 35 34 32 33 34 37 38 39 40 39 37
98 92 95 96 99 86 68 65 80 76 74 66 74 73 79 85 85 85 86 86 79 72 63 52 46 42 40 37 36 38 37 36 35 34 33 34 35 38 39 40 41 40 41 43
87 96 94 91 96 92 65 61 64 55 65 69 71 79 86 88 84 82 81 80 73 68 60 50 47 43 39 36 37 37 37 35 34 35 38 39 40 37 40 41 42 43 47 49
87 81 87 81 79 65 73 64 62 70 73 74 79 79 82 78 82 78 75 70 64 59 54 47 44 44 41 38 33 36 36 35 36 38 42 43 42 43 42 42 45 45 51 54
88 86 91 86 76 80 69 68 75 80 83 86 86 80 75 76 71 68 63 61 58 54 50 46 43 42 40 35 34 35 35 36 38 42 49 49 47 48 46 44 45 52 55 58
85 88 86 84 76 77 74 70 81 82 78 76 71 70 70 68 68 64 61 58 54 51 48 44 42 41 41 38 36 35 38 39 42 46 48 50 50 49 49 49 51 57 58 60
89 84 84 79 66 67 68 74 77 82 80 73 69 69 65 63 63 57 56 52 49 48 45 44 42 40 40 38 39 41 43 42 44 49 52 52 50 52 51 54 54 57 54 56

GFSCGP_sfc_rhum_042.txt.gz
RH
57 68 69 50 48 45 51 52 55 44 40 43 39 36 31 28 28 28 27 26 26 24 24 26 26 27 29 28 28 29 33 40 48 53 56 60 60 65 66 64 52 46 39 34
72 78 52 48 48 55 53 55 51 43 39 43 39 39 30 28 28 27 24 21 19 18 18 21 24 25 27 29 30 32 38 45 52 52 53 52 59 70 74 58 50 43 34 34
65 55 51 56 60 64 58 56 51 50 43 42 45 42 28 22 21 21 22 21 20 20 19 17 17 23 30 32 31 35 40 50 53 53 54 56 59 55 54 48 45 40 30 26
62 49 58 61 61 54 61 46 54 56 59 61 47 50 30 24 23 22 19 19 20 21 21 20 19 18 27 31 35 37 44 52 54 56 55 58 60 63 57 46 47 46 37 29
72 69 71 70 61 53 60 50 52 56 65 69 56 82 30 23 27 22 20 18 18 18 19 21 23 23 22 34 40 45 49 54 54 53 53 56 57 52 48 46 40 41 33 30
54 52 57 52 51 54 54 59 59 59 77 87 43 60 32 17 15 17 18 18 18 17 20 21 23 26 27 34 50 54 54 54 53 54 53 56 55 51 47 40 46 45 42 32
67 67 58 57 64 62 66 86 84 84 91 64 34 42 37 20 23 23 22 18 18 19 21 25 28 32 33 38 56 58 54 55 53 53 53 51 49 50 48 38 40 36 27 30
75 74 66 63 64 67 84 68 69 74 54 32 41 54 26 20 25 23 21 18 24 25 24 22 29 37 39 46 56 57 54 54 51 51 49 46 42 34 31 30 30 30 28 26
74 81 57 60 59 54 64 86 56 76 56 65 36 26 20 18 19 20 21 29 31 29 28 28 25 36 40 48 56 56 53 52 50 48 43 36 32 33 30 29 28 26 24 21
64 94 56 61 66 62 59 49 80 91 84 69 40 34 32 26 24 23 24 31 30 34 37 29 25 38 44 49 55 54 50 50 48 41 37 34 32 29 27 26 27 23 20 21
62 71 74 74 84 68 80 90 79 75 77 69 66 40 23 24 22 22 36 34 36 45 46 34 29 41 50 55 58 54 50 48 44 39 34 30 29 26 25 24 22 21 20 21
57 79 87 76 47 44 44 57 62 93 87 87 80 61 27 28 26 39 35 31 36 51 57 50 46 54 60 61 57 51 47 44 40 34 30 28 26 24 23 22 21 20 20 20
62 92 89 75 72 59 79 65 60 84 88 94 87 56 28 29 37 33 32 31 35 55 59 62 60 60 60 57 52 47 42 38 33 29 28 27 25 23 22 22 21 20 21 22
61 78 92 76 50 55 96 87 94 100 97 71 75 56 37 29 32 30 29 34 45 59 63 62 60 58 56 54 46 40 35 30 29 28 27 27 25 24 22 22 22 22 22 24
68 99 81 75 64 61 74 85 95 100 93 96 57 50 40 36 38 35 33 38 57 70 69 65 62 58 54 44 38 34 31 29 28 30 31 29 26 25 24 25 24 24 25 26
75 88 83 97 58 64 93 80 94 96 95 96 91 78 44 40 38 38 44 52 71 73 72 63 59 53 45 40 36 34 32 32 32 35 33 30 28 26 28 27 26 28 29 28
80 91 96 94 63 66 83 85 95 94 86 78 96 62 46 47 52 49 53 56 56 73 68 62 54 48 42 40 36 34 32 32 32 31 29 27 26 28 28 27 28 30 30 28
77 86 97 97 77 76 59 66 80 92 85 74 63 55 51 48 47 54 72 66 67 70 60 55 50 46 40 37 37 33 32 30 30 29 27 26 26 27 27 28 30 32 28 27
67 70 98 95 84 56 55 55 67 92 81 64 69 59 54 50 58 92 83 68 64 59 52 50 46 42 35 32 29 29 29 30 30 29 27 25 25 26 27 30 31 29 28 27
76 78 96 91 92 74 54 54 64 68 94 60 66 62 58 61 62 74 84 74 64 53 48 44 39 35 32 30 28 30 31 30 30 28 25 23 24 26 30 32 31 30 28 29
98 99 97 90 95 65 45 50 64 74 87 66 72 68 67 65 73 74 72 67 59 53 47 39 36 34 31 29 30 32 32 31 28 26 26 28 29 31 31 30 29 30 30 31
84 92 93 96 98 86 49 48 54 49 60 64 70 71 75 71 73 77 74 70 60 54 48 42 40 37 33 31 32 33 33 31 30 31 34 35 33 30 29 31 30 31 31 30
66 57 54 57 57 45 50 53 51 56 58 60 67 71 83 83 73 72 73 66 59 53 50 42 38 35 32 32 31 34 33 32 34 36 36 33 31 31 30 30 32 30 31 30
60 58 60 66 49 54 51 53 58 68 66 68 72 70 68 71 70 72 66 62 54 48 44 39 37 36 34 34 33 33 32 32 33 32 32 32 32 32 32 34 32 31 31 34
55 65 62 61 51 48 51 59 61 67 68 62 60 61 61 64 63 62 60 55 51 46 42 38 36 34 34 33 32 31 32 29 30 33 35 36 35 33 33 34 31 32 35 46
60 57 57 48 50 51 53 64 66 66 67 61 60 62 58 57 58 54 53 49 47 44 41 39 36 34 32 31 32 32 29 30 31 33 35 35 34 33 34 33 30 50 52 52

GFSCGP_sfc_rhum_045.txt.gz
RH
49 54 54 41 36 34 42 40 38 32 28 33 33 31 26 22 21 22 22 21 20 20 19 19 20 22 21 20 22 23 24 26 30 38 45 47 52 74 88 83 62 57 50 44
67 74 42 36 38 41 43 45 40 33 30 35 33 32 26 24 23 21 21 20 19 18 17 17 18 21 22 23 26 26 25 27 34 39 44 45 59 79 84 74 58 50 47 41
62 48 43 44 49 51 47 46 42 40 34 33 36 36 25 20 21 21 20 19 18 18 17 14 14 18 26 26 25 27 26 30 37 41 45 49 66 67 68 66 61 55 48 46
53 42 47 49 53 46 53 36 41 44 50 51 38 53 31 21 19 18 17 17 17 18 16 16 15 15 18 25 28 29 30 33 39 46 50 59 68 70 67 71 67 56 42 39
64 58 55 57 49 43 51 45 46 48 57 66 51 62 33 17 16 15 15 15 15 15 15 16 17 20 18 22 31 35 33 36 44 48 53 60 60 60 59 65 55 55 50 34
47 43 48 49 45 45 48 52 55 56 65 88 45 44 31 15 12 13 11 14 15 14 15 15 18 21 22 27 33 42 40 43 47 54 52 56 58 55 54 58 64 64 49 37
59 56 49 44 55 51 58 69 84 88 90 65 26 30 30 16 16 16 16 15 14 14 16 17 18 21 22 28 31 42 43 46 50 52 51 52 56 53 55 59 66 51 45 39
74 78 54 56 59 63 65 67 68 73 50 36 27 42 24 14 17 18 17 17 16 16 18 23 23 24 25 32 32 41 46 47 48 50 52 53 50 50 52 47 40 36 36 34
61 70 48 50 51 51 68 89 52 72 53 60 33 20 16 15 15 16 17 18 20 21 23 28 28 24 25 30 33 44 48 47 49 51 52 50 49 46 43 34 32 31 31 27
52 87 51 52 52 52 50 42 80 90 84 64 32 28 27 22 20 18 19 20 22 23 28 31 28 26 22 30 34 45 45 47 50 51 48 44 37 31 30 29 29 30 28 30
51 64 71 63 77 65 68 75 68 53 63 61 57 36 20 24 22 22 21 19 25 27 30 37 30 25 26 32 40 45 46 49 50 46 40 36 32 28 28 28 28 26 26 26
51 69 86 72 44 40 42 55 59 87 71 71 72 56 26 25 23 24 24 26 26 24 36 42 37 34 37 42 51 49 48 48 45 39 37 33 28 28 27 27 26 25 24 21
53 80 86 80 63 47 62 52 49 67 82 94 90 57 23 23 27 25 28 28 24 25 35 46 46 47 49 58 55 49 47 44 39 36 32 29 29 29 28 27 29 25 23 21
54 66 90 75 59 54 100 72 69 99 98 70 71 54 39 34 36 34 26 26 27 27 47 51 50 51 54 57 51 47 44 39 35 32 29 29 28 26 25 24 24 23 22 23
60 94 71 67 57 56 63 70 69 97 96 98 67 68 54 52 47 40 34 32 30 42 57 59 58 56 58 54 46 40 37 33 30 32 31 31 29 27 26 26 25 24 24 24
70 86 76 94 60 56 71 55 55 74 95 93 95 93 60 47 36 46 41 36 52 57 74 68 61 59 50 44 40 36 32 33 30 33 36 32 30 28 30 28 27 28 28 28
83 96 98 84 55 51 77 69 75 91 89 92 90 57 44 48 61 78 72 73 64 67 71 64 59 50 45 38 34 34 33 34 38 40 34 32 29 30 30 28 29 30 30 29
77 89 90 77 56 75 42 47 59 74 79 68 70 61 56 54 55 75 84 78 70 67 63 57 50 49 40 38 38 39 40 37 39 38 35 30 29 28 29 29 31 32 29 28
73 94 83 78 64 48 40 49 56 79 85 67 68 58 52 52 83 87 87 67 64 57 52 49 43 43 45 47 44 44 45 40 36 34 31 27 27 28 28 30 30 29 28 28
71 79 95 78 86 72 48 48 55 64 96 58 76 72 64 57 94 95 83 58 56 52 51 53 55 62 76 73 65 64 57 50 47 32 26 24 25 27 30 32 31 30 30 31
92 97 95 83 85 54 35 44 61 64 80 62 76 75 66 66 75 84 74 58 49 53 59 56 52 64 56 49 39 35 32 30 26 24 25 27 29 31 32 31 30 30 32 35
80 88 91 97 97 81 41 46 59 51 61 57 85 75 72 68 72 73 64 57 51 48 43 37 35 33 30 28 30 32 30 27 29 32 34 34 33 29 29 32 30 31 31 33
59 58 80 62 54 36 42 47 44 48 52 53 61 87 78 80 90 81 68 71 74 62 59 49 40 41 41 39 36 37 33 34 35 36 36 34 31 30 31 30 33 31 30 29
47 42 54 53 41 43 40 41 48 56 56 57 64 61 89 76 72 66 60 57 54 59 61 51 46 39 36 33 33 33 34 34 33 33 33 32 32 31 32 38 34 30 29 31
49 54 53 50 44 42 48 52 54 58 58 55 57 59 63 73 76 72 79 57 49 44 40 37 36 35 35 33 33 32 32 31 32 32 34 37 37 32 33 34 30 29 33 45
49 49 54 47 46 47 50 54 57 57 62 56 57 59 58 60 64 58 54 49 46 44 40 38 37 36 35 34 33 32 31 32 34 35 37 38 36 33 35 33 28 50 48 48

GFSCGP_sfc_rhum_048.txt.gz
RH
64 73 76 59 55 46 44 48 51 39 32 37 39 38 33 29 28 28 28 28 28 28 26 26 26 28 27 26 31 32 37 36 36 48 60 67 70 76 85 87 71 74 75 62
68 78 49 39 41 45 44 53 54 41 32 39 42 41 34 30 28 26 25 24 24 25 25 23 26 30 30 32 32 32 36 37 37 38 54 64 94 90 96 92 81 73 65 62
67 55 44 48 50 54 55 58 52 48 41 40 44 47 39 29 28 27 25 24 23 24 23 22 22 25 32 32 35 33 38 37 40 50 64 82 86 82 86 75 69 66 67 66
56 45 44 54 55 50 60 44 44 47 58 72 51 82 45 32 28 26 28 28 27 24 23 23 23 24 22 32 32 38 40 37 45 57 63 80 84 92 93 90 83 66 66 61
71 59 60 60 52 47 54 49 52 55 68 76 64 84 58 32 29 22 23 24 25 25 24 24 25 25 25 29 40 32 41 36 47 50 59 82 83 87 81 71 69 63 66 59
54 46 54 53 45 46 50 57 60 65 76 92 67 66 60 33 25 22 18 22 21 22 23 24 25 29 32 34 36 48 50 49 56 59 71 75 76 78 77 67 73 71 63 51
60 61 52 48 55 53 58 68 95 99 99 92 39 58 50 27 23 22 20 24 23 22 23 26 30 32 32 33 41 40 56 55 66 74 76 71 71 70 71 71 70 55 50 47
81 85 62 51 58 70 70 75 96 89 91 72 47 59 36 23 20 24 23 24 26 26 26 30 41 41 40 39 41 42 59 62 72 71 72 72 63 66 67 68 56 57 51 48
76 78 50 51 50 54 69 87 66 81 69 90 55 32 23 18 19 20 23 25 27 26 27 40 41 40 38 41 44 43 64 66 72 70 72 62 61 63 67 57 49 48 43 35
60 88 56 56 54 54 61 52 86 96 97 88 58 43 37 32 31 26 26 27 26 28 35 40 46 44 37 39 46 46 64 68 69 73 60 58 61 58 50 39 41 39 30 31
52 70 75 66 80 76 74 82 75 73 85 93 90 56 35 38 34 36 34 30 30 38 35 46 52 50 42 41 51 60 67 66 70 62 52 45 41 39 36 35 32 30 30 29
52 75 95 81 55 53 56 67 69 92 86 89 98 73 32 35 38 40 39 32 32 34 36 53 56 57 52 50 60 67 63 61 54 43 41 37 35 32 30 29 29 29 29 27
58 86 86 77 70 53 71 62 60 68 84 87 91 69 30 31 35 35 36 37 34 33 36 59 60 57 64 78 73 71 60 49 44 41 37 35 35 33 29 29 30 28 30 28
56 73 93 96 77 74 94 74 68 85 98 76 77 67 52 46 51 54 54 47 42 40 45 66 70 64 79 83 71 57 48 43 41 37 35 34 32 30 29 28 29 29 26 28
66 92 82 78 67 62 69 75 77 91 85 95 69 69 63 70 65 62 58 63 64 43 70 71 72 69 74 74 59 50 43 41 35 35 36 35 31 28 28 29 28 34 32 31
68 94 85 93 66 64 79 68 67 67 70 95 93 95 74 58 51 58 68 76 80 66 79 76 74 68 57 49 48 43 43 40 35 38 42 35 30 30 32 31 34 35 37 36
84 91 97 90 65 61 78 68 66 88 84 89 98 78 64 68 57 80 84 82 77 70 78 78 70 52 46 44 41 45 39 41 41 39 36 35 33 34 36 34 34 38 37 38
75 84 90 96 74 91 53 58 65 74 77 77 79 67 61 62 77 88 89 84 73 70 73 69 52 46 41 38 38 38 40 42 44 43 37 35 34 34 36 36 38 40 36 36
71 92 99 87 68 59 55 59 66 77 84 76 78 79 70 74 87 90 81 60 63 59 54 50 44 42 39 41 42 47 47 48 45 49 45 35 35 36 35 35 36 37 37 33
74 87 99 96 92 84 56 58 59 70 97 69 84 82 77 78 93 98 80 58 55 50 48 52 53 52 59 58 51 54 52 52 53 48 43 40 47 40 40 41 39 37 37 37
97 99 99 95 93 72 43 64 73 94 82 70 82 84 77 91 90 85 72 79 82 85 78 71 75 84 86 82 81 84 85 85 81 77 75 59 40 38 36 36 36 38 41 41
84 92 92 92 96 92 54 60 72 66 71 70 88 81 78 80 79 65 58 78 82 86 84 86 95 94 95 92 88 90 83 72 52 41 38 37 36 36 34 38 40 40 41 41
77 71 76 79 74 50 57 57 59 60 65 66 71 91 82 92 88 74 67 70 65 60 48 47 51 49 42 36 32 38 42 38 37 36 37 37 36 38 40 42 44 43 40 40
59 54 71 72 58 56 60 58 64 69 70 63 74 85 92 90 87 77 85 85 83 73 76 69 63 62 62 54 46 42 37 35 35 36 38 40 41 44 44 47 44 42 46 50
68 62 66 67 57 60 60 65 66 66 64 62 67 73 84 81 71 69 78 63 66 67 66 46 43 40 38 36 36 34 34 33 36 41 48 49 46 44 45 45 46 48 65 61
65 70 74 69 60 62 75 71 65 64 66 62 67 76 79 78 84 72 70 52 46 47 42 41 39 37 36 35 35 36 37 38 42 46 51 53 51 49 48 45 49 46 45 43

GFSCGP_sfc_rhum_051.txt.gz
RH
78 90 95 84 75 63 63 60 59 54 41 43 51 51 42 37 36 33 32 38 33 33 33 33 30 30 29 32 34 40 44 50 63 79 86 89 92 92 94 86 68 74 72 66
79 87 66 58 62 65 63 60 64 50 41 45 48 47 39 35 35 32 31 33 31 28 30 30 29 32 35 32 34 39 44 38 43 65 77 84 92 97 96 95 76 76 73 65
83 59 51 58 61 57 67 70 67 59 50 50 55 54 47 37 35 31 28 27 27 27 30 30 30 29 32 38 38 38 40 46 42 50 86 94 95 95 96 90 81 78 70 69
63 53 53 64 65 57 71 54 54 56 66 80 58 85 65 41 31 32 37 34 30 28 30 28 26 27 28 32 38 40 40 47 48 60 81 86 88 95 96 95 91 78 68 72
75 64 57 66 63 54 64 54 59 63 76 84 75 83 62 51 36 31 28 29 35 34 29 28 31 28 28 29 35 44 44 47 50 53 70 81 94 98 95 90 82 81 75 62
62 51 58 59 52 53 53 62 66 73 82 98 78 75 61 44 33 28 29 24 30 29 28 30 30 34 34 36 37 46 46 50 52 52 79 82 94 95 92 88 85 84 80 70
68 68 59 54 66 62 64 78 96 93 96 92 64 79 66 43 33 29 28 25 25 24 25 26 41 44 44 43 40 42 45 54 58 68 85 85 87 90 87 83 82 82 63 59
91 95 70 58 67 76 78 77 94 95 98 86 59 80 49 30 30 26 25 26 26 30 28 28 44 46 46 45 45 44 44 53 73 89 84 80 82 88 86 84 78 74 58 55
90 85 59 56 56 63 81 90 70 87 85 94 72 49 32 26 30 27 27 27 28 28 30 36 48 48 48 48 47 47 47 64 89 86 82 79 83 85 85 81 71 64 56 46
66 90 60 60 57 58 65 61 88 95 93 94 74 59 43 40 40 37 39 38 35 34 34 42 54 52 51 53 52 50 49 75 88 84 76 73 82 83 77 68 60 47 37 36
57 77 89 69 80 78 77 88 78 80 91 94 96 67 41 41 41 46 44 39 37 35 35 38 56 56 58 59 58 61 73 87 92 72 70 78 76 70 63 57 45 34 34 36
58 79 95 86 64 60 70 76 70 93 82 96 94 84 41 36 43 44 40 47 45 48 35 45 60 61 62 66 68 66 87 86 66 58 64 63 58 50 49 47 34 31 32 32
63 83 86 85 71 65 82 69 72 75 91 94 96 76 38 44 40 39 55 60 56 50 46 66 68 65 76 88 88 88 65 54 49 51 45 42 39 39 39 40 33 32 30 32
58 78 87 91 85 81 89 76 76 82 99 84 85 65 48 46 45 56 64 70 71 68 69 71 71 73 90 89 79 65 52 48 43 41 40 40 39 37 34 32 32 36 34 35
68 94 89 83 77 77 79 82 78 87 74 92 63 62 55 53 66 67 64 68 60 63 71 79 71 79 92 79 72 62 57 48 43 44 47 44 44 38 33 37 36 33 35 34
76 93 85 95 73 76 85 73 74 74 70 68 66 74 63 62 64 61 81 81 79 75 79 76 78 82 70 62 47 50 62 57 48 42 43 42 36 37 39 35 37 35 34 35
82 86 96 95 71 73 88 74 74 75 78 68 92 76 70 74 73 90 90 86 79 76 80 78 62 56 48 45 45 50 53 48 44 42 36 35 36 42 47 46 41 36 36 35
85 77 95 98 88 90 62 60 62 72 74 78 76 74 73 74 84 84 67 70 67 67 67 53 49 49 45 44 44 44 47 42 42 40 44 51 58 61 52 39 40 45 46 49
69 82 95 91 91 68 58 69 69 80 84 74 78 69 76 80 87 91 61 53 55 52 48 48 45 45 47 48 48 51 57 52 52 50 51 68 60 48 45 46 43 36 34 36
77 80 96 97 96 90 62 64 70 76 94 77 76 83 81 88 94 98 87 60 57 53 50 52 51 51 55 55 56 65 67 80 96 86 84 57 56 62 72 69 68 60 43 39
96 97 98 84 97 78 55 63 78 90 80 73 80 89 81 93 90 85 84 82 73 71 74 73 75 76 77 76 76 83 87 95 99 81 85 88 91 89 78 61 46 41 41 40
86 93 95 89 97 92 53 80 79 66 76 79 86 85 88 79 66 79 82 87 87 86 92 91 94 98 92 90 87 98 97 99 96 92 93 89 67 45 39 41 41 42 43 43
83 78 88 82 75 53 58 61 75 69 73 81 78 92 84 80 70 64 67 74 86 90 92 91 95 96 96 97 90 97 99 93 78 54 48 46 43 40 42 45 47 45 42 44
73 58 76 76 62 60 55 77 73 75 78 75 74 92 88 85 74 72 71 64 64 61 60 58 57 56 48 42 40 41 39 39 43 50 51 43 45 47 47 50 45 48 52 55
77 70 69 71 63 76 75 72 79 76 69 70 71 85 86 85 82 79 81 73 69 67 63 62 66 62 52 49 47 45 41 37 38 41 50 52 51 48 48 48 49 64 66 55
80 78 78 77 58 66 76 81 73 73 72 72 74 92 81 73 83 79 84 73 68 53 47 46 43 40 39 37 37 39 38 39 44 51 53 56 55 52 50 49 48 50 48 45

GFSCGP_sfc_rhum_054.txt.gz
RH
86 87 92 87 72 65 64 62 69 56 45 51 49 51 48 43 42 39 38 40 37 35 34 37 36 34 34 33 34 42 51 70 78 89 93 96 95 95 93 93 78 74 79 75
87 89 72 65 70 72 74 81 79 56 48 51 54 54 44 38 37 34 31 30 32 33 34 35 35 36 36 35 35 38 47 50 72 75 77 90 92 95 93 94 91 81 77 75
88 73 61 61 67 75 74 73 70 65 55 57 58 45 41 40 38 33 30 30 30 30 29 30 33 33 34 37 40 39 41 50 63 69 87 99 98 98 99 99 96 89 80 79
66 54 54 62 69 61 73 58 57 60 67 79 62 75 63 46 45 36 40 42 34 31 31 29 30 32 32 34 34 40 42 47 52 84 92 90 86 95 97 95 97 94 83 82
82 63 66 71 66 57 68 56 60 66 79 84 81 84 58 47 39 36 30 28 30 36 35 34 35 31 31 32 33 36 43 48 54 72 86 89 85 93 99 98 95 93 93 88
66 57 58 58 56 54 55 64 72 82 86 96 78 78 60 47 37 29 27 28 27 36 35 35 35 34 36 39 37 39 47 51 55 63 78 86 96 98 98 97 97 92 92 91
71 71 60 56 67 62 64 76 96 94 98 83 70 86 67 47 39 38 34 32 26 30 31 38 46 46 45 45 45 43 42 40 54 64 81 85 94 94 93 93 93 92 86 83
92 95 69 60 67 76 74 75 92 84 98 91 66 83 50 41 34 29 29 34 34 34 33 32 46 49 47 51 50 48 47 47 47 68 88 93 91 93 93 90 89 85 80 77
85 86 64 60 60 62 80 89 71 90 86 96 78 58 34 40 40 38 40 42 44 41 39 36 47 50 50 47 47 51 51 51 52 75 96 96 95 94 92 92 88 82 78 66
71 93 64 62 56 61 67 65 89 94 82 88 76 72 50 45 46 42 47 48 48 48 45 42 47 53 53 52 54 59 60 58 59 93 95 94 94 93 90 86 84 74 64 56
67 81 97 70 80 82 83 90 86 82 90 94 97 60 46 42 46 51 52 49 58 61 54 50 48 49 56 58 58 60 67 74 96 91 91 95 95 91 86 86 77 61 49 49
68 83 95 91 71 65 72 80 76 92 79 97 90 76 48 55 51 50 42 57 57 64 59 60 52 60 66 66 77 83 86 96 89 85 89 92 88 86 84 78 64 51 48 41
65 81 95 89 74 70 86 80 74 77 89 95 94 72 44 49 38 40 50 59 66 67 66 71 70 68 72 88 91 90 88 79 79 80 83 81 82 79 75 60 50 46 40 35
64 78 84 89 80 84 90 84 82 85 98 91 88 66 47 45 44 47 55 62 63 66 64 64 68 72 90 82 77 70 65 68 67 72 68 71 68 61 47 42 37 37 37 38
66 91 90 85 78 81 79 79 82 89 75 90 72 70 54 45 45 55 64 75 75 74 72 70 78 84 88 75 69 69 70 73 73 68 62 59 52 47 41 40 39 39 38 38
73 88 83 92 76 82 91 82 80 77 72 71 68 69 45 44 66 71 85 82 80 72 73 78 77 80 66 66 69 72 71 66 73 66 62 51 46 49 49 46 48 46 52 59
79 90 92 94 76 79 92 81 78 76 75 65 79 60 52 70 73 87 78 73 70 65 78 65 51 49 52 61 62 68 67 69 66 57 55 55 50 51 53 54 57 63 66 65
89 79 93 97 89 94 62 65 65 69 64 64 63 69 68 72 86 70 68 62 60 60 54 56 49 51 54 58 68 73 73 78 74 72 70 62 67 73 72 74 75 83 88 75
70 80 92 88 99 74 63 76 74 82 76 72 74 71 69 77 93 88 81 53 52 49 56 51 49 51 51 54 55 62 69 76 82 80 78 80 79 83 78 81 80 62 51 60
80 83 95 95 98 87 68 69 76 80 94 74 75 76 91 87 94 94 85 63 59 52 53 54 55 56 63 64 63 66 72 77 87 85 92 91 96 93 91 82 85 93 94 82
99 99 99 92 88 83 57 59 81 90 75 76 82 88 90 95 86 86 83 76 70 78 78 72 73 76 73 71 71 89 91 98 100 95 98 98 96 91 95 99 99 92 77 57
93 96 94 91 96 94 55 84 82 66 74 81 88 84 90 78 80 83 83 84 83 88 92 90 96 99 92 88 93 98 98 100 100 97 97 96 94 96 94 92 77 58 47 48
89 78 90 80 77 56 60 66 61 72 79 80 86 91 83 76 80 80 85 88 88 89 92 94 94 98 98 96 92 97 99 97 98 96 93 87 66 48 42 44 48 48 49 50
81 63 78 77 67 66 60 63 76 81 82 79 82 90 81 70 69 68 74 82 87 87 88 90 90 89 85 81 86 95 88 72 57 56 52 46 49 50 50 51 48 51 53 55
83 66 68 82 64 64 79 76 80 81 74 70 74 92 88 67 72 71 73 70 65 65 58 54 53 52 51 50 50 47 46 54 59 46 55 58 53 49 51 53 59 62 61 50
84 81 88 84 62 61 64 78 78 79 74 72 84 95 79 75 76 67 76 67 64 64 63 59 49 48 47 47 45 42 42 46 49 54 54 57 56 52 54 57 56 53 48 46

GFSCGP_sfc_rhum_057.txt.gz
RH
93 94 94 90 78 63 69 75 78 65 50 53 55 58 46 42 48 50 48 45 43 40 33 38 39 39 39 40 40 45 74 76 85 92 96 95 96 96 98 92 79 76 75 79
90 96 83 77 84 83 72 84 85 64 55 56 58 59 46 40 39 38 34 34 35 36 36 35 37 40 39 37 39 42 53 72 77 84 86 91 93 94 94 94 90 80 79 84
84 75 64 70 79 81 85 86 76 70 59 62 64 54 45 39 39 37 36 33 33 33 31 30 36 35 39 40 39 38 43 54 74 75 88 99 99 99 99 99 96 86 84 87
72 61 64 69 71 71 82 60 60 63 70 81 65 71 59 44 43 42 39 37 41 38 34 34 34 36 36 35 36 38 40 48 68 78 88 91 88 92 95 94 94 95 92 94
91 72 73 75 69 59 69 58 62 69 81 82 81 84 56 48 41 34 36 31 32 33 40 39 38 35 34 34 35 36 40 46 56 73 82 90 89 89 96 99 98 97 97 94
69 57 57 61 59 56 59 64 73 86 82 92 78 74 51 46 42 34 37 35 34 34 34 36 41 39 40 38 37 39 41 42 51 69 91 93 90 97 99 100 99 98 97 96
71 71 61 57 68 62 65 75 93 86 96 82 76 83 63 48 46 44 42 41 44 43 40 38 37 49 47 44 44 44 43 41 49 63 83 93 94 96 95 96 96 97 97 96
95 94 70 62 69 75 77 72 87 74 96 89 74 87 56 42 37 34 43 52 52 54 49 43 38 50 52 51 47 49 47 45 46 52 71 91 94 96 96 95 96 94 93 92
88 88 69 62 63 63 81 88 73 90 85 96 81 61 35 43 46 49 50 48 55 61 62 55 47 49 53 53 50 50 52 52 52 56 71 92 97 97 96 96 96 96 92 86
73 95 66 67 62 66 69 65 87 94 82 81 65 72 45 48 51 52 53 53 55 62 63 65 56 50 50 53 53 54 58 60 61 67 87 95 97 96 97 96 96 90 84 79
70 82 96 72 78 84 86 93 86 83 89 88 92 45 51 46 52 55 51 51 59 69 70 68 67 64 60 56 65 64 65 70 75 90 95 98 99 98 96 95 90 82 75 72
72 84 97 88 75 67 74 79 78 90 83 98 92 73 48 51 50 52 49 53 57 66 71 70 69 69 74 78 89 92 92 93 94 95 97 99 97 96 96 91 81 72 76 64
65 83 96 86 73 72 84 81 74 81 87 99 96 66 49 57 51 47 42 49 61 61 63 61 62 60 72 92 89 80 76 84 94 95 96 96 96 94 86 75 63 60 51 45
62 79 84 89 76 84 94 89 84 86 97 92 88 73 52 45 48 41 42 79 86 72 79 79 85 74 90 84 70 65 67 77 81 85 93 94 86 80 73 70 63 51 41 43
69 89 89 81 77 81 80 80 90 87 82 89 81 75 57 46 47 43 77 78 73 72 72 73 77 89 82 67 71 78 78 78 71 67 69 73 68 60 57 53 47 43 41 41
74 91 89 91 76 82 90 82 79 84 78 80 72 73 48 44 42 68 84 74 72 67 60 71 61 60 62 72 83 78 77 71 63 58 58 56 51 51 51 53 53 56 61 67
76 91 92 96 78 81 89 84 82 79 79 67 80 59 45 57 70 83 76 71 64 65 58 53 54 55 62 69 76 81 74 60 63 62 61 55 56 62 64 64 69 75 81 85
85 87 88 95 89 94 64 63 68 71 64 64 55 52 52 67 79 70 72 62 58 54 60 58 55 60 69 71 69 71 77 80 81 79 78 77 80 80 80 82 88 92 94 93
69 81 91 94 96 78 69 81 76 78 76 63 59 56 69 79 91 88 76 57 53 51 54 56 55 59 62 70 73 79 85 86 87 90 95 93 85 88 90 95 97 98 97 98
74 86 96 96 95 88 65 79 77 72 87 67 70 71 89 91 97 96 79 67 60 61 56 60 66 66 69 67 65 70 76 83 94 91 94 89 92 93 97 96 97 100 100 99
99 99 99 84 87 78 61 55 80 83 74 66 81 83 86 88 86 89 75 82 86 76 75 76 80 82 81 83 82 92 96 98 100 93 95 97 97 98 98 100 100 100 96 92
85 91 96 97 97 92 57 83 84 62 71 71 85 87 85 82 82 83 82 82 86 88 88 94 97 99 92 88 89 98 98 100 100 99 99 100 100 98 96 95 93 94 68 55
92 81 87 80 77 57 55 66 57 66 72 76 84 89 82 83 83 84 87 86 90 88 87 90 97 99 97 96 95 97 99 99 97 97 99 99 90 72 56 53 52 52 53 55
82 68 82 80 64 62 56 63 67 68 77 81 76 90 76 78 79 81 88 89 88 88 87 92 93 94 96 93 96 96 92 84 79 79 61 51 54 55 54 54 53 54 55 55
84 70 67 72 72 62 63 71 65 72 80 76 72 90 76 72 72 74 81 82 86 83 79 70 68 60 76 84 81 67 60 57 48 54 59 60 54 55 59 60 57 58 57 49
89 85 91 86 72 69 72 67 70 80 78 72 77 95 82 66 72 73 77 67 68 68 62 58 57 56 56 53 49 49 53 49 54 57 57 58 57 61 64 68 71 54 52 48

GFSCGP_sfc_rhum_060.txt.gz
RH
93 97 96 84 74 73 76 80 82 70 55 59 60 63 51 42 49 51 52 49 48 45 40 41 39 42 41 46 46 46 76 90 94 97 96 97 95 94 94 97 89 91 81 86
96 99 82 70 72 67 64 73 83 70 60 59 61 62 49 42 44 41 39 38 40 40 39 37 37 40 41 40 45 46 47 68 91 92 90 87 90 90 91 96 95 90 86 90
86 91 88 90 92 89 80 81 84 78 63 65 66 58 49 40 40 40 40 40 40 40 36 33 38 38 40 42 43 44 46 49 81 86 92 99 98 99 98 97 98 94 90 90
81 78 91 90 93 89 99 68 63 64 73 84 68 78 59 48 39 39 43 37 36 36 38 41 40 39 40 39 41 42 44 49 64 90 93 93 90 93 92 92 93 96 91 92
92 78 76 83 73 66 74 60 64 71 83 82 79 79 53 48 40 35 42 42 45 46 41 40 43 41 41 40 41 41 40 48 53 77 89 96 94 94 96 97 96 96 96 92
72 60 61 63 62 58 62 67 75 81 80 90 80 72 45 46 48 47 44 48 54 55 52 48 46 50 50 49 48 45 42 41 50 65 89 95 94 97 98 100 99 99 99 97
83 79 63 57 68 60 66 78 92 81 92 83 82 84 60 51 50 51 49 53 58 63 58 53 50 49 52 52 51 50 49 45 49 61 80 92 94 96 95 97 98 99 99 99
96 96 72 62 68 75 80 75 86 69 91 79 74 87 57 47 44 46 52 56 60 65 70 64 56 56 57 56 56 54 51 50 49 53 67 86 94 98 96 96 96 96 97 96
87 95 67 62 64 63 83 90 70 89 88 94 81 66 41 46 52 54 50 54 58 65 70 71 68 59 58 58 58 60 56 55 57 59 62 71 89 97 97 97 97 98 97 96
80 96 74 68 63 67 71 67 85 93 86 77 62 67 40 52 57 51 51 55 56 62 69 74 72 66 63 64 65 67 66 64 66 75 79 81 89 94 96 98 99 98 97 94
71 82 91 74 80 84 83 92 85 82 89 83 82 40 48 48 52 61 56 56 62 70 74 76 74 72 72 76 87 92 93 94 94 95 95 96 97 99 98 98 98 96 94 90
71 87 96 90 76 71 74 80 77 89 88 97 93 64 47 53 56 50 50 52 68 78 78 78 75 76 79 91 90 83 79 88 96 97 98 98 93 95 95 93 89 84 82 71
67 84 97 90 75 72 85 82 74 80 88 97 88 53 46 65 56 51 50 50 84 84 86 84 82 88 91 90 80 78 78 84 94 96 97 94 93 91 87 79 74 69 64 58
61 79 83 89 75 84 94 90 80 83 96 92 92 71 55 48 49 50 48 75 88 71 74 71 83 94 92 82 81 82 80 81 85 92 93 90 87 81 78 70 62 56 51 52
68 90 87 77 78 82 82 85 88 87 85 89 79 79 60 53 50 49 47 76 79 71 67 64 73 81 81 80 72 72 82 78 72 78 79 72 70 68 66 62 60 60 62 58
74 95 90 91 76 83 91 82 85 85 81 84 76 78 50 45 45 48 81 76 77 70 61 54 59 64 71 73 86 78 77 73 67 68 61 59 60 64 69 69 71 79 73 66
80 91 95 94 84 85 91 86 82 85 85 76 90 62 45 50 54 78 78 71 67 58 62 58 63 67 69 71 71 78 71 66 67 63 62 65 67 74 77 79 82 81 83 85
83 86 90 92 88 95 61 65 68 72 68 70 63 52 48 50 78 73 70 66 64 55 59 59 60 69 75 73 76 79 83 81 81 77 76 75 79 84 85 88 91 94 94 92
63 79 86 92 94 76 74 80 77 76 80 64 62 53 50 74 88 92 67 56 61 62 56 60 65 65 69 73 77 80 83 87 89 91 93 87 85 90 92 98 99 99 99 100
84 89 89 97 90 90 62 78 74 77 94 63 62 60 75 87 94 94 77 64 74 66 60 68 69 68 70 74 73 82 95 96 99 97 96 92 94 97 99 98 99 100 100 99
97 98 96 88 92 76 60 61 75 93 78 64 76 81 83 91 87 87 72 87 86 75 76 79 83 88 86 84 86 97 97 99 100 94 97 98 98 98 98 100 100 100 99 93
90 92 96 94 99 94 58 83 80 63 69 75 82 85 87 89 85 81 78 85 92 87 86 91 92 98 90 87 92 99 99 100 100 98 98 100 99 99 100 99 96 90 70 60
92 86 80 83 78 59 54 65 60 64 67 77 85 86 87 84 86 82 87 85 95 85 85 92 97 96 96 92 95 97 100 99 97 97 97 99 98 76 62 59 53 55 54 57
85 77 80 81 64 68 56 57 61 72 78 79 81 84 85 80 83 84 87 89 87 82 87 90 95 96 97 96 97 99 98 91 95 90 66 56 57 56 56 55 54 55 55 57
88 81 78 78 75 70 73 65 67 70 72 78 77 87 84 79 79 83 90 90 84 85 87 82 80 90 96 91 88 81 73 57 51 58 62 59 57 60 60 53 53 56 54 52
92 87 91 89 72 79 76 67 69 74 77 75 78 91 86 73 75 78 85 83 84 82 70 64 66 73 78 67 58 60 54 55 59 58 55 60 64 71 72 77 79 56 55 56

GFSCGP_sfc_rhum_063.txt.gz
RH
86 96 95 80 74 61 68 68 76 69 50 50 57 59 48 42 42 41 40 39 38 38 37 37 36 35 37 38 39 38 48 72 85 93 93 94 96 95 93 91 82 83 75 76
98 100 80 69 73 66 64 72 74 60 51 51 56 54 45 41 42 39 36 36 37 36 32 32 34 36 36 35 39 41 42 49 81 79 78 79 85 90 89 92 90 84 79 79
95 93 87 88 80 80 72 70 74 65 55 54 58 52 44 34 35 35 34 34 34 34 34 31 32 35 41 40 38 38 40 43 63 80 83 90 90 92 92 94 92 91 82 80
94 88 88 95 95 86 94 66 63 61 66 75 58 62 51 39 38 42 43 44 44 45 42 38 40 38 39 39 42 43 42 42 50 74 84 85 80 85 82 86 88 88 88 84
96 94 92 96 93 87 93 81 60 64 72 69 63 64 45 38 38 41 43 47 50 51 50 45 44 48 43 49 47 44 41 42 43 56 76 84 84 84 82 84 84 89 94 88
85 71 83 78 82 76 64 63 67 72 71 83 63 60 39 39 39 41 41 48 53 57 55 51 50 50 49 54 54 55 43 38 42 50 69 88 86 87 94 93 93 90 94 94
98 91 71 62 71 58 62 73 87 82 88 69 71 73 48 42 43 40 46 48 52 60 61 59 55 54 54 57 58 52 50 45 43 46 52 68 87 88 91 89 91 89 97 98
94 97 78 62 70 79 69 71 82 69 73 62 69 76 45 42 40 41 44 47 54 60 62 64 62 58 57 60 59 56 54 50 48 48 48 55 69 86 90 87 87 90 92 92
90 97 64 62 62 62 71 81 62 87 80 82 65 56 39 42 46 45 46 50 54 59 63 66 65 62 58 60 60 68 66 61 55 56 59 58 58 71 86 90 89 88 88 91
77 96 73 68 63 63 67 64 81 90 82 72 50 51 42 50 46 45 47 50 53 63 68 68 67 66 61 63 72 74 71 75 80 82 78 75 78 77 79 85 87 89 88 87
71 81 90 70 77 79 79 87 81 75 77 67 60 34 42 47 47 50 48 49 60 76 74 73 69 68 69 76 71 64 65 72 79 82 84 90 91 90 90 90 90 88 86 87
72 85 96 89 72 67 68 76 70 86 85 90 86 49 38 44 50 51 48 49 74 77 77 68 70 75 81 73 66 64 67 72 80 83 88 88 85 86 88 88 86 84 85 80
63 83 94 86 77 70 81 74 69 74 84 95 74 45 42 51 50 46 48 49 77 75 62 68 78 85 76 71 70 71 68 69 76 82 84 84 83 82 82 78 75 74 70 67
60 76 82 85 70 81 94 86 76 83 91 82 85 58 46 46 47 45 47 67 71 66 63 59 63 69 72 72 70 68 65 66 70 77 78 79 78 72 70 67 60 55 51 48
66 90 84 72 76 76 78 86 81 86 81 84 68 72 55 50 51 50 50 70 70 66 63 57 60 69 72 73 69 66 66 63 62 61 64 68 66 64 62 64 66 65 60 61
73 98 85 89 75 81 88 79 83 75 75 75 72 72 49 45 44 47 73 72 70 64 62 56 59 66 69 70 74 70 71 67 60 64 64 65 68 71 77 79 77 78 82 82
78 89 90 92 80 83 93 85 82 83 81 71 87 65 49 49 52 78 76 70 64 57 61 58 62 73 74 75 74 77 74 68 70 71 69 70 75 81 85 83 86 93 97 95
81 85 87 93 84 94 58 63 68 71 70 73 66 55 50 48 71 73 68 64 59 59 59 58 62 73 75 74 80 77 76 78 83 83 80 77 80 86 87 92 97 100 99 98
62 77 88 89 95 71 81 77 78 76 80 63 62 53 51 56 82 88 62 55 55 61 61 62 64 66 67 73 74 79 85 86 89 91 92 91 87 92 95 98 100 99 99 100
80 76 84 98 93 82 59 70 71 72 95 62 58 62 66 81 92 88 71 61 66 65 63 68 67 68 74 79 80 88 95 95 97 96 98 96 98 97 99 98 99 100 100 100
95 96 90 95 97 77 54 54 65 92 84 63 71 74 75 89 83 82 72 78 75 75 78 79 81 86 84 81 87 96 96 99 100 97 98 98 98 98 99 100 100 100 98 96
89 94 92 92 98 89 57 70 81 66 68 67 76 80 87 84 82 75 79 86 89 87 85 86 91 96 88 89 95 99 98 100 100 98 98 99 100 99 100 95 83 69 62 56
90 80 75 74 74 57 53 67 59 59 62 73 80 82 86 85 84 80 88 92 87 82 87 88 88 92 90 91 94 99 100 99 98 98 98 94 75 61 53 43 45 46 46 47
86 79 78 80 64 69 55 57 57 60 70 78 78 76 86 81 82 84 85 89 86 83 82 86 91 95 95 96 97 97 96 90 85 74 53 47 46 48 46 45 43 45 46 44
86 82 82 83 75 72 75 70 69 67 70 73 72 77 85 82 85 84 88 87 83 83 84 85 90 94 91 92 93 89 80 61 51 51 52 51 49 45 44 44 40 40 41 41
92 85 92 90 73 75 75 72 68 70 72 72 74 84 86 78 81 82 86 83 83 86 81 75 85 90 89 85 80 69 51 50 51 48 48 53 56 60 63 65 64 57 59 59

GFSCGP_sfc_rhum_066.txt.gz
RH
68 94 97 87 54 36 33 47 49 45 40 50 46 44 38 33 32 30 26 23 22 22 21 23 24 23 26 25 25 23 25 33 45 74 90 91 90 86 86 82 64 60 57 55
83 99 70 63 59 49 45 48 46 53 44 42 43 43 37 34 32 30 27 24 23 24 23 21 20 21 21 23 24 27 25 26 31 45 66 66 72 80 81 88 84 70 67 63
79 85 70 78 75 67 51 42 44 47 47 42 43 42 38 31 27 26 26 26 27 28 26 25 24 23 27 27 26 26 28 28 28 35 44 59 65 80 84 90 87 81 76 71
82 83 79 80 87 72 87 50 48 50 50 52 44 35 37 30 36 33 33 34 33 33 30 29 32 30 31 30 32 31 29 29 29 33 43 54 62 69 70 69 71 74 75 84
98 94 95 99 88 78 94 50 50 52 55 52 50 46 34 30 38 38 38 40 40 39 36 35 37 38 36 42 41 36 31 30 30 30 39 51 58 56 59 62 66 68 76 86
93 84 83 82 86 77 77 62 51 50 52 79 46 47 32 28 30 37 39 40 43 43 39 38 40 39 41 43 42 42 34 30 29 34 35 48 54 57 65 66 68 69 76 88
96 97 91 82 96 92 81 81 95 88 82 57 53 53 32 32 31 34 40 44 46 46 44 43 43 41 44 47 48 42 38 34 33 34 33 35 46 56 63 64 66 69 76 89
96 98 96 90 72 72 67 61 63 67 59 41 56 49 32 32 29 33 37 40 47 49 47 48 48 48 44 47 48 49 48 42 36 36 35 34 40 44 58 66 64 66 69 82
87 98 84 81 64 52 60 73 46 70 60 51 35 41 32 34 35 35 37 40 49 53 52 52 50 48 44 47 52 53 49 50 51 53 48 41 40 45 49 56 63 68 70 77
62 95 70 60 54 51 53 46 64 83 73 56 36 34 35 44 39 38 39 38 44 54 54 51 48 52 52 54 52 49 47 52 57 59 55 55 58 58 59 58 58 59 62 70
51 62 85 63 68 64 62 66 61 50 54 43 32 22 24 35 36 35 36 38 47 55 54 50 51 52 59 53 50 48 49 53 57 59 64 72 70 68 69 70 70 71 70 74
55 62 88 78 58 53 51 54 47 73 76 66 60 31 26 31 32 36 34 37 48 57 51 56 61 60 54 52 51 50 51 53 57 61 64 70 67 66 69 69 69 70 74 72
47 66 88 82 64 60 67 58 52 58 74 85 52 34 31 31 33 32 34 37 52 53 52 53 54 55 54 53 53 52 49 52 56 61 63 65 64 62 63 61 61 62 66 65
49 58 78 65 56 64 98 70 61 93 87 58 53 38 34 33 33 33 38 44 54 52 53 52 51 53 53 54 52 50 47 48 51 55 60 64 62 59 57 55 50 49 47 46
47 78 70 60 61 63 68 75 69 88 70 87 44 42 32 32 35 38 39 53 59 56 53 51 56 56 53 54 50 50 51 51 51 54 59 62 62 60 60 64 64 61 60 61
54 86 71 82 64 66 78 66 67 64 56 55 52 52 33 32 34 39 56 64 63 58 55 51 56 57 54 55 56 56 56 53 52 56 59 61 64 70 75 78 81 81 84 83
58 70 75 82 67 69 76 68 66 65 58 54 66 45 36 39 40 50 65 66 62 55 53 53 57 63 60 59 58 58 56 56 58 62 60 65 68 73 77 81 84 94 96 95
59 62 68 72 64 73 50 49 54 58 53 54 49 46 43 42 43 64 63 62 58 54 53 52 57 64 61 60 62 61 60 62 67 66 67 72 74 80 85 93 97 99 99 100
49 56 74 73 66 54 68 62 59 63 73 48 48 45 45 47 72 74 59 54 53 52 50 52 55 62 64 64 65 70 70 70 74 78 81 79 80 93 95 99 100 98 99 100
61 56 59 83 80 63 57 63 55 53 96 57 49 52 61 68 74 69 63 56 54 51 52 58 59 61 63 69 70 74 81 86 93 91 96 95 94 97 99 98 100 100 100 100
72 77 74 65 71 50 40 43 47 80 82 56 53 56 62 68 67 70 61 63 56 58 64 68 68 68 69 75 81 92 94 99 100 95 97 98 98 99 98 100 100 100 99 91
64 71 72 71 73 73 41 61 66 60 52 48 54 55 62 70 72 69 70 68 66 67 69 73 77 82 76 78 89 98 100 100 100 98 98 100 99 94 92 86 72 60 55 50
68 53 50 51 50 44 42 48 43 45 50 54 60 58 63 75 75 73 74 72 74 70 73 75 71 76 79 82 92 96 100 96 96 95 94 85 70 46 32 31 34 34 33 32
61 58 56 59 48 47 41 42 49 47 56 59 57 55 66 69 69 73 75 78 75 74 74 76 77 81 87 90 92 94 94 83 73 65 52 38 32 32 32 33 30 29 28 25
53 60 59 59 51 47 52 52 54 60 60 61 57 54 61 64 70 71 80 74 72 70 73 77 80 82 92 94 92 84 77 64 52 37 34 36 34 28 27 28 24 24 30 31
62 52 55 49 43 51 47 50 61 65 63 68 60 57 66 64 69 70 80 73 72 71 73 78 76 83 82 78 76 71 59 49 35 33 36 36 36 37 40 42 46 60 59 61

GFSCGP_sfc_rhum_069.txt.gz
RH
89 84 93 80 57 45 31 35 34 30 38 40 37 32 31 26 31 28 22 19 18 18 16 16 17 18 20 20 21 21 22 24 36 44 75 90 94 89 71 57 51 51 48 49
72 87 68 70 53 53 38 32 32 32 32 43 35 35 28 29 29 28 24 19 17 17 16 18 19 20 19 21 23 24 23 22 24 33 54 69 77 82 80 86 78 65 55 56
63 66 55 81 76 71 66 39 33 37 40 41 36 38 34 29 27 25 25 24 22 23 22 20 20 21 23 23 22 23 24 24 23 26 32 58 59 63 78 86 84 77 71 65
52 71 56 74 93 85 64 32 30 36 47 44 38 29 29 27 29 27 25 25 26 27 26 27 29 28 30 29 29 29 28 26 26 27 28 36 51 60 60 64 66 72 73 77
97 79 81 81 90 86 76 46 38 43 43 45 49 49 32 28 34 30 29 33 32 31 30 33 36 35 36 42 42 36 30 28 27 27 30 34 42 48 50 50 55 58 67 76
89 74 80 81 86 88 51 49 50 50 54 82 40 40 37 32 30 32 32 33 35 35 32 33 36 36 40 43 42 41 32 28 28 30 30 36 44 48 54 55 56 56 60 69
97 96 89 84 97 88 76 84 98 98 93 59 39 47 29 27 26 30 33 35 40 38 38 38 39 38 42 45 47 41 37 33 31 30 31 32 38 45 52 54 56 57 63 77
99 99 99 92 93 95 95 96 97 77 62 44 44 53 32 26 24 31 34 38 42 41 42 44 44 44 41 45 48 46 44 44 40 37 34 31 34 36 39 46 53 55 57 63
94 99 94 89 77 76 94 88 47 53 42 42 35 31 30 30 29 34 34 38 45 46 46 47 44 45 44 46 49 47 45 46 48 49 46 41 36 39 42 44 48 55 57 65
58 96 94 91 73 54 64 51 66 83 69 51 32 29 31 34 36 34 36 37 41 46 48 45 44 46 48 49 48 45 44 47 50 52 52 53 55 55 55 54 54 54 53 56
47 60 87 66 87 77 60 62 56 51 52 45 34 24 25 32 33 36 36 36 41 48 49 47 48 49 51 47 46 45 46 49 52 52 57 61 60 60 60 61 60 61 61 63
46 57 84 71 52 48 45 47 42 73 68 60 62 35 24 29 31 31 35 36 41 50 49 52 55 51 49 48 48 46 46 48 52 55 56 58 57 57 57 58 60 60 65 63
42 62 87 74 58 52 60 49 43 49 78 82 51 38 25 29 31 30 31 35 43 50 49 49 49 50 49 49 48 46 45 48 50 53 56 56 56 54 53 51 49 50 52 51
46 50 74 65 58 59 96 60 54 89 86 49 47 32 33 32 32 28 34 36 44 50 49 48 48 49 49 50 48 47 46 46 49 54 56 60 58 56 56 54 52 52 50 50
40 71 62 52 51 53 64 68 61 92 66 85 37 33 29 29 29 30 36 44 50 51 50 48 51 50 48 48 47 48 50 50 50 54 59 62 62 61 63 65 67 64 63 61
44 79 62 83 53 56 70 58 58 60 51 46 42 42 28 25 31 36 40 53 58 54 52 48 53 51 49 50 51 52 53 52 51 56 60 62 63 67 72 74 74 74 79 78
47 59 69 76 60 59 72 60 57 56 49 46 58 40 34 36 36 39 48 58 59 54 51 50 52 54 54 54 52 53 52 52 55 57 60 63 66 72 75 75 78 85 89 94
50 52 58 61 57 73 51 43 47 51 47 45 42 38 36 38 38 42 51 56 54 52 51 49 52 56 56 55 56 55 56 58 62 62 66 66 71 82 91 93 96 99 98 99
41 46 60 68 55 45 60 56 52 58 64 44 45 40 41 44 61 62 54 52 50 50 47 47 50 55 60 59 60 63 63 66 69 73 78 79 82 94 94 98 100 98 98 100
50 46 56 72 76 60 61 60 48 49 85 50 44 48 54 62 68 69 57 51 52 48 48 52 55 57 59 64 65 70 73 75 86 88 91 88 91 88 99 98 99 100 100 100
62 61 68 60 65 48 41 43 43 81 85 53 48 49 53 58 61 62 55 57 50 50 56 57 61 63 66 70 72 84 89 98 99 94 95 94 97 96 97 100 100 100 98 89
53 57 61 60 64 68 50 57 54 61 48 47 50 51 55 63 66 63 63 63 57 59 64 64 72 78 71 73 84 98 100 100 99 99 98 99 95 85 87 90 75 61 56 48
58 45 47 46 50 43 36 44 38 41 48 52 55 52 56 64 71 67 69 64 62 62 63 69 73 71 75 76 86 96 99 96 96 93 89 82 69 49 34 33 34 32 29 28
48 47 48 53 40 39 36 36 46 44 51 55 53 52 55 60 66 66 67 69 66 63 65 62 63 78 82 78 86 93 93 81 73 70 61 40 30 30 30 34 29 27 26 26
48 51 48 47 42 42 41 40 49 53 55 60 56 52 51 54 63 66 69 69 64 65 66 68 70 76 80 80 87 81 74 65 58 42 33 33 34 28 27 28 28 24 39 47
44 46 52 44 39 39 45 47 51 56 59 60 63 56 54 56 58 61 70 68 62 62 66 74 72 77 82 87 79 72 64 55 40 33 37 35 33 32 42 47 53 63 61 62

GFSCGP_sfc_rhum_072.txt.gz
RH
87 98 96 80 60 64 64 57 50 45 35 50 50 52 43 33 36 37 33 30 26 24 24 24 22 25 28 30 33 33 35 40 63 75 94 97 91 96 95 86 69 66 64 63
91 97 80 56 55 66 61 54 50 38 40 48 46 46 36 34 34 36 33 31 28 26 23 22 26 32 28 29 33 34 34 35 37 52 79 89 94 91 84 95 93 90 80 74
87 76 65 68 65 66 62 70 64 41 46 52 50 48 40 32 31 31 31 32 31 31 32 29 28 31 35 33 35 35 35 34 35 36 52 87 89 94 97 92 86 85 88 90
86 57 67 74 77 67 77 54 58 40 54 76 51 63 41 36 38 36 36 32 32 37 37 36 38 40 44 51 49 45 42 40 37 40 42 63 84 88 93 95 91 86 83 85
94 75 80 93 90 79 85 78 52 58 58 58 61 73 44 37 38 38 34 36 40 39 40 44 44 45 51 56 57 50 42 40 38 37 41 50 55 66 80 82 88 91 92 90
92 73 80 78 76 78 86 90 81 66 67 95 60 63 53 42 35 35 39 42 43 42 44 47 48 50 58 60 58 53 44 40 38 40 43 46 52 58 73 80 80 82 84 94
89 96 89 79 97 91 93 100 99 99 98 89 50 64 49 33 31 36 43 47 49 48 49 51 53 54 58 63 64 56 56 51 47 46 43 44 49 57 67 74 81 81 84 88
89 98 98 93 88 94 96 96 99 91 92 73 50 75 47 34 33 35 40 49 51 54 58 59 60 59 59 61 65 61 59 61 62 63 61 54 49 60 62 62 69 81 82 85
97 98 94 91 86 84 98 99 85 78 56 78 62 51 42 38 44 45 46 49 57 59 61 60 59 61 63 66 63 61 60 63 65 67 70 71 74 75 76 71 66 74 82 81
69 98 96 94 85 82 93 68 89 97 86 77 56 53 52 47 46 44 46 51 58 59 60 59 60 63 65 62 61 60 59 64 66 70 76 75 77 78 80 81 84 81 81 83
55 76 98 95 97 97 95 99 69 64 71 85 72 50 38 40 40 43 46 46 54 60 60 62 64 66 63 62 62 62 62 65 69 71 77 82 82 80 83 85 84 84 84 85
55 72 94 79 57 53 56 62 59 93 83 86 89 59 32 38 42 45 45 44 55 60 61 66 68 63 62 63 61 60 62 65 69 71 74 74 73 70 68 66 69 71 74 66
53 79 91 80 72 62 72 60 53 72 90 90 90 60 37 43 43 39 44 46 57 60 60 66 62 62 62 62 61 60 60 64 67 70 73 73 72 71 70 67 62 58 58 59
57 65 88 91 79 77 89 71 67 90 94 78 77 46 45 42 43 38 43 46 59 60 57 58 63 64 64 62 62 62 63 63 67 72 75 79 78 76 75 73 70 69 69 71
58 79 78 60 57 61 78 78 76 90 81 85 58 44 38 40 41 37 48 50 60 60 59 60 63 65 64 63 64 65 66 67 68 73 77 81 80 81 82 84 81 83 83 81
53 84 79 91 58 61 78 65 67 72 66 60 52 51 33 32 34 44 52 61 66 64 60 58 61 61 64 68 66 64 68 67 68 74 78 77 80 81 82 81 82 79 87 88
58 76 84 90 68 68 84 70 66 67 60 57 70 53 45 45 43 48 58 67 69 63 56 55 62 63 66 67 64 69 69 68 71 75 75 77 78 82 87 85 86 92 92 93
60 64 74 87 77 92 65 52 54 59 54 54 50 47 44 48 52 56 64 70 69 61 54 53 58 67 69 66 68 69 71 75 79 81 80 76 84 93 93 96 96 97 98 98
52 60 76 89 77 58 73 62 61 64 68 51 53 50 46 58 78 74 62 64 64 58 56 54 66 70 73 65 66 75 76 81 84 87 88 87 92 96 95 98 99 98 98 97
57 60 74 86 91 79 76 60 53 51 89 54 49 52 63 74 92 94 65 59 56 52 58 68 70 65 66 70 70 73 77 84 92 88 93 87 88 97 99 98 97 99 99 99
72 69 82 78 85 65 65 59 53 89 91 57 60 61 61 76 80 74 63 60 56 62 67 69 71 69 74 76 79 89 91 98 99 93 90 92 92 98 98 96 100 99 97 96
63 69 65 67 80 81 60 61 70 71 60 58 63 66 68 76 69 65 64 64 63 71 73 74 80 84 79 82 90 99 99 99 99 97 98 99 97 92 93 95 92 87 82 72
76 60 63 60 65 52 57 51 49 51 60 68 66 67 67 79 74 70 72 67 66 73 77 82 82 80 79 81 93 97 98 97 97 96 95 87 91 94 92 69 61 53 47 45
60 57 65 66 54 53 49 54 56 58 67 68 64 65 68 74 75 71 71 71 71 76 80 81 81 83 82 83 86 96 96 91 85 84 82 80 50 44 44 45 41 41 40 39
69 64 64 60 54 57 53 53 64 65 69 72 67 64 61 63 75 71 75 73 71 76 77 77 80 81 80 85 89 91 87 79 75 73 51 46 48 45 48 74 54 60 73 64
60 65 72 68 59 57 69 65 63 69 73 72 75 72 63 64 71 72 78 74 68 77 80 80 72 77 78 85 87 83 76 68 56 46 52 53 47 43 62 73 82 63 63 59

GFSCGP_sfc_rhum_075.txt.gz
RH
90 96 96 82 64 66 70 79 82 69 53 62 63 58 49 41 36 39 39 34 32 29 24 23 26 29 31 32 39 46 67 77 79 96 97 97 95 95 96 94 86 72 64 63
96 98 82 70 59 70 73 75 73 56 49 58 65 60 51 43 43 38 37 37 33 34 32 30 31 35 32 33 37 38 37 41 77 81 89 97 97 96 94 95 94 92 90 80
99 89 84 69 69 76 85 88 83 64 56 53 59 65 58 45 39 39 35 35 33 33 34 35 38 40 41 44 47 43 44 44 42 46 90 96 96 96 97 96 94 93 94 93
97 67 76 76 75 70 88 62 62 63 65 95 59 83 56 46 41 37 37 38 34 33 36 44 46 50 51 57 56 49 45 44 40 42 52 94 96 95 97 96 94 95 93 94
83 81 94 91 77 71 85 81 78 71 84 74 72 74 57 44 45 37 43 38 37 40 45 48 50 52 54 57 59 57 46 41 40 42 44 54 62 76 91 97 97 96 95 93
90 76 82 83 83 83 80 87 85 84 91 99 77 74 62 59 42 41 36 45 47 50 52 50 53 58 62 65 65 63 47 49 48 45 44 48 52 57 63 80 92 94 97 97
97 97 88 78 96 85 85 96 99 99 99 93 68 74 51 45 41 36 46 52 51 51 54 54 60 64 66 69 67 59 64 67 68 67 65 57 53 59 67 74 87 88 91 91
98 99 98 89 85 86 95 96 98 93 96 86 63 84 58 42 38 43 45 53 55 63 64 65 62 65 67 69 67 64 68 70 70 73 76 81 81 75 75 75 78 89 94 97
95 99 92 85 81 80 95 99 93 90 78 82 71 62 41 46 59 56 57 55 66 69 69 67 68 70 72 68 66 66 69 71 74 79 81 83 84 86 89 91 91 92 93 88
89 96 92 88 82 85 93 74 98 99 96 88 73 71 61 51 66 61 63 62 68 69 67 66 69 72 68 65 66 65 68 72 75 81 86 86 88 89 92 90 93 93 93 92
72 85 99 93 95 91 98 100 93 84 98 89 83 58 44 42 55 57 58 62 65 67 67 71 76 70 68 68 67 68 71 73 76 82 80 81 76 73 73 77 83 85 77 79
60 81 99 93 77 72 76 90 76 93 94 86 93 63 38 44 53 50 53 57 66 66 70 76 72 70 71 69 67 68 70 72 79 76 75 75 70 68 68 66 63 62 64 61
58 83 95 90 74 66 75 72 68 72 87 89 87 65 46 48 53 53 55 64 67 66 74 74 71 70 69 66 66 67 67 74 77 75 75 76 77 76 77 74 70 66 68 69
60 75 82 88 78 80 88 73 72 80 89 86 80 60 51 46 46 46 51 58 70 65 66 71 73 72 70 67 68 67 68 72 77 78 80 83 86 86 84 82 80 77 79 81
61 80 78 69 63 74 82 79 81 83 76 80 60 52 49 44 44 42 45 55 71 66 64 66 71 74 70 70 70 69 72 74 77 80 84 88 88 88 90 92 92 94 94 91
63 86 80 90 63 66 81 73 77 71 66 68 63 57 37 37 40 42 56 64 71 68 65 66 68 68 70 71 70 68 72 74 78 83 86 85 86 80 84 83 90 88 89 90
68 80 89 91 72 75 86 76 76 78 71 64 72 53 48 41 40 54 65 72 73 70 64 65 65 68 70 71 70 74 74 74 80 84 84 84 81 86 86 88 89 95 96 97
67 75 83 92 82 94 60 60 60 67 63 63 57 51 45 48 55 61 66 72 76 68 64 62 63 64 67 73 73 75 77 82 86 88 85 84 89 95 96 92 95 98 98 98
64 71 84 89 90 69 74 68 66 69 69 57 57 52 51 67 75 80 70 72 74 66 60 64 62 71 78 76 68 74 88 89 92 97 92 92 96 96 97 98 99 98 98 98
63 69 81 88 93 87 84 64 58 60 85 63 55 54 60 79 89 87 69 65 62 61 64 69 77 77 78 75 70 78 88 86 92 95 92 91 96 97 98 98 99 100 96 97
80 80 87 86 93 71 78 68 56 89 84 66 60 64 75 82 81 81 67 66 63 69 68 74 77 81 77 78 81 90 92 98 98 90 90 95 98 97 97 100 100 98 98 96
72 76 77 68 75 85 59 60 65 72 65 62 68 74 78 78 72 69 66 65 68 70 76 77 86 86 83 85 89 98 99 99 96 94 95 97 98 95 90 96 96 93 89 80
75 64 63 65 68 55 65 61 57 61 67 72 70 72 72 78 76 70 71 66 69 72 80 86 89 84 86 90 96 97 98 97 96 96 95 94 89 97 97 94 89 80 66 58
74 61 67 62 60 58 55 64 63 62 71 71 68 64 70 78 77 73 72 70 71 76 86 89 91 94 92 85 91 97 96 95 93 90 88 96 97 97 92 62 54 50 47 47
67 68 69 68 59 63 56 71 72 71 72 76 77 71 66 70 80 79 78 76 72 76 85 87 91 90 82 80 90 94 93 86 83 83 89 80 60 55 69 66 49 66 76 51
67 69 75 76 58 65 80 74 72 73 76 75 78 76 67 63 75 76 83 77 74 75 78 85 86 86 81 84 87 91 85 79 87 75 57 58 56 53 78 87 88 62 62 60

GFSCGP_sfc_rhum_078.txt.gz
RH
86 96 99 90 73 64 74 82 77 84 63 72 69 61 49 42 43 39 42 43 40 33 29 28 29 38 47 55 88 93 93 90 94 96 97 97 97 96 96 91 82 73 69 70
94 97 85 72 67 69 66 80 89 70 59 74 67 62 54 47 46 43 39 38 36 34 35 35 35 40 37 42 46 53 57 86 91 95 96 96 96 97 96 96 94 88 80 79
98 76 67 86 73 76 87 82 82 73 63 70 77 73 63 55 49 44 39 37 36 36 35 44 42 43 47 49 47 44 45 45 53 84 96 98 97 97 97 97 97 96 95 94
96 68 84 94 79 68 93 78 70 76 80 93 67 92 66 54 54 48 45 42 42 36 40 46 47 52 55 60 58 51 46 44 42 46 79 97 96 97 96 96 96 97 96 96
78 82 94 99 77 67 85 75 71 84 94 71 74 80 67 50 57 50 42 38 42 38 48 52 53 55 59 60 60 61 47 45 44 45 48 81 93 95 94 96 95 95 96 96
79 75 84 84 88 76 83 83 83 87 96 99 83 82 80 52 43 44 41 39 41 49 54 56 61 63 69 72 69 61 65 69 67 58 52 52 53 57 62 69 91 98 98 97
96 94 93 88 96 84 86 96 98 100 99 95 78 76 62 49 43 42 42 46 54 59 61 65 68 70 72 70 67 68 71 73 74 79 84 71 62 63 66 72 83 89 94 95
98 99 98 91 86 94 95 86 94 92 97 89 74 88 62 48 43 42 44 50 55 60 65 66 68 70 74 68 67 72 74 74 77 80 85 89 90 90 91 86 91 96 98 99
98 99 92 83 85 79 96 100 90 91 84 92 83 70 46 62 74 65 64 63 65 66 73 73 73 78 71 70 69 71 73 76 81 86 89 90 92 92 94 93 94 97 95 91
82 98 87 93 81 89 86 81 99 100 97 92 81 75 64 74 76 69 71 78 79 71 74 78 82 77 72 69 69 73 76 81 85 88 88 91 94 93 94 95 95 93 93 94
77 82 97 87 94 95 98 98 92 86 96 95 91 68 48 52 63 71 77 78 79 73 70 78 81 75 73 72 74 75 76 81 86 82 81 78 75 71 72 76 76 73 71 79
69 78 94 83 79 64 78 84 84 95 99 94 90 71 44 45 62 64 69 75 78 72 72 81 77 76 73 70 71 74 78 82 80 76 76 75 72 72 70 69 67 66 68 65
59 87 98 98 93 84 99 87 74 79 88 90 89 67 48 58 59 55 60 74 77 77 83 78 75 74 71 70 70 72 77 83 80 77 79 80 80 79 80 78 76 74 76 78
62 78 79 88 75 84 90 90 92 83 91 83 85 58 55 57 56 59 66 72 77 78 81 76 76 73 72 71 72 73 77 82 82 81 85 89 90 90 90 89 88 86 87 89
57 79 77 72 75 77 78 81 83 81 70 82 61 59 50 49 54 53 59 72 76 73 78 74 75 75 72 75 73 76 80 84 83 86 89 92 91 90 93 95 94 94 94 95
70 89 79 88 69 74 82 78 80 72 65 68 68 63 41 43 42 44 52 63 76 72 71 71 71 74 75 78 75 74 81 84 84 88 90 87 82 81 86 88 88 87 90 90
72 84 88 91 80 78 85 77 84 81 71 62 71 54 49 45 42 44 53 58 68 73 69 69 70 70 71 74 73 76 77 80 86 88 88 85 82 85 87 87 89 93 95 95
76 82 86 92 84 97 56 67 64 71 68 65 59 54 50 45 48 55 68 64 74 75 69 70 71 72 70 70 71 76 80 85 88 91 91 84 87 93 91 96 97 99 97 99
67 78 87 91 92 67 72 71 74 76 74 64 63 56 64 66 71 78 70 78 77 74 68 68 67 71 71 76 76 80 80 87 94 96 92 90 95 97 96 98 98 98 98 99
70 75 82 92 93 88 76 71 63 69 90 68 60 58 71 80 80 73 72 73 73 66 67 69 69 74 79 82 80 82 84 91 96 93 93 93 96 97 98 98 99 100 98 99
82 78 86 88 93 78 64 77 68 89 76 69 62 62 77 80 72 80 69 68 69 72 76 78 77 84 84 81 81 87 88 97 97 91 93 97 97 98 97 100 98 94 99 98
74 84 86 83 79 83 66 64 71 70 67 68 74 76 76 82 76 72 69 70 73 75 76 80 88 90 89 84 86 94 99 99 96 92 97 98 96 90 92 95 98 96 94 92
71 65 71 69 69 53 63 64 60 64 68 74 67 74 75 78 77 72 72 68 70 72 74 80 91 94 91 89 88 97 98 94 93 92 94 96 93 86 86 97 95 93 80 75
75 71 66 66 62 61 65 65 64 62 72 76 69 67 73 76 77 73 72 70 72 73 77 86 92 95 97 95 93 94 95 90 93 89 88 89 95 97 98 89 82 71 66 58
68 69 71 71 65 63 62 70 72 75 74 74 76 73 70 73 78 78 79 76 74 75 80 87 92 95 95 94 96 97 94 91 92 90 92 94 97 96 90 66 60 54 55 51
72 71 76 76 61 63 74 80 73 74 77 76 77 78 72 68 70 79 82 81 79 80 86 87 92 91 93 89 88 92 90 86 86 89 95 94 78 67 75 67 82 62 66 56

GFSCGP_sfc_rhum_081.txt.gz
RH
88 94 98 96 77 66 79 77 89 85 72 74 77 74 52 44 42 43 43 45 38 38 33 29 31 39 68 85 91 93 94 94 96 97 98 98 98 97 97 90 82 77 76 77
98 96 86 79 71 69 69 82 89 79 70 74 80 76 55 48 47 42 37 40 41 42 32 35 38 38 41 43 80 93 93 94 96 97 97 96 96 96 96 96 93 83 81 82
84 78 82 92 79 79 82 73 87 77 73 80 78 80 65 52 53 49 42 38 40 41 38 44 45 48 49 47 49 55 62 67 94 96 98 98 97 97 98 97 97 96 95 90
83 68 94 97 82 76 89 68 68 74 82 91 75 96 72 54 53 53 47 48 45 44 41 46 48 51 54 60 57 50 47 46 46 64 96 97 97 98 97 97 97 98 97 96
79 77 88 100 88 72 84 73 75 84 88 85 83 87 80 56 62 51 48 44 45 42 41 46 50 56 62 63 64 57 50 51 48 47 57 94 99 98 97 97 95 95 96 96
87 77 79 85 86 75 81 82 88 89 94 96 85 88 89 65 49 53 48 49 46 42 48 52 62 67 74 74 65 70 71 75 72 61 56 60 88 91 87 80 89 94 97 98
99 87 90 84 97 85 84 92 99 99 99 94 85 89 70 60 45 44 40 47 48 50 61 68 72 75 75 73 75 72 74 80 82 85 84 76 62 62 62 66 76 84 93 96
98 99 96 90 92 92 90 86 94 92 92 94 85 94 70 56 49 45 43 46 56 66 69 76 78 80 76 71 77 77 78 82 84 87 90 92 92 93 91 88 93 97 98 96
98 99 95 92 87 79 97 95 84 89 85 93 87 79 54 54 57 59 62 65 69 71 75 77 79 82 77 74 77 80 82 88 91 92 93 94 95 94 95 96 96 98 96 92
82 99 88 94 81 85 86 85 92 98 98 94 83 80 69 60 59 73 74 71 75 79 82 82 84 81 76 74 78 81 85 90 91 90 91 90 92 93 95 94 92 90 94 96
75 83 98 87 97 95 95 97 93 89 96 95 94 66 57 52 59 72 78 84 85 84 84 87 81 77 78 78 80 82 83 88 87 82 80 79 77 73 75 76 75 74 75 81
71 85 98 95 85 74 83 84 88 95 97 92 92 72 54 51 57 75 85 83 87 81 85 88 81 78 78 77 79 82 88 83 81 78 79 80 77 76 77 76 75 72 74 71
70 88 98 92 84 87 90 79 71 78 91 97 90 72 51 68 71 75 84 86 82 82 88 89 82 74 74 75 76 80 87 86 81 79 81 82 82 82 84 84 82 81 84 85
62 80 80 87 75 89 100 95 85 87 94 88 90 69 49 63 68 68 72 78 82 81 84 86 82 78 72 73 76 80 87 84 83 83 87 91 94 94 96 96 94 93 92 92
60 84 81 75 78 78 83 86 94 92 82 85 73 66 45 54 63 64 68 78 79 86 89 84 83 79 75 75 75 77 86 86 86 89 91 94 94 96 97 96 95 95 95 95
71 90 79 86 71 77 81 80 89 89 83 77 69 68 49 47 56 61 71 83 79 76 82 82 80 80 76 76 78 78 87 88 88 92 94 92 85 85 92 88 87 87 89 90
74 86 83 85 80 79 79 78 85 80 74 68 73 56 50 54 46 55 62 74 76 76 76 76 74 74 77 74 73 80 85 86 91 93 92 88 82 86 88 86 89 92 96 96
78 79 83 94 84 88 54 74 66 71 71 69 61 53 50 50 46 46 55 53 62 74 76 75 78 78 73 75 75 79 84 88 91 94 94 88 86 90 92 92 97 98 98 99
71 84 90 93 93 72 72 75 77 79 71 65 62 57 61 68 70 74 68 71 59 71 70 73 75 75 76 74 73 77 87 92 91 96 96 92 90 96 97 98 99 96 98 100
74 78 83 94 93 85 73 78 64 69 85 75 64 62 69 79 75 73 70 73 78 77 72 74 77 79 78 79 74 83 89 90 92 94 96 93 96 97 98 98 99 100 97 96
82 80 82 88 94 79 62 77 70 90 74 75 68 65 75 78 68 74 72 70 75 74 76 80 82 82 78 82 87 91 91 95 94 92 94 96 97 97 98 100 99 97 99 97
77 88 91 83 83 84 69 75 75 70 76 78 78 75 77 82 83 78 73 72 73 76 82 84 88 90 90 89 89 92 96 98 96 95 98 98 98 91 93 94 93 97 97 95
75 67 77 68 68 52 61 71 64 65 67 80 68 80 77 80 77 74 74 72 73 74 76 80 84 91 94 92 86 93 98 94 93 96 97 96 90 90 89 93 98 97 94 92
76 70 66 66 62 62 63 74 69 67 74 80 73 74 72 72 75 71 72 72 72 77 77 82 86 95 97 96 90 89 94 89 89 92 94 93 89 90 92 93 93 91 83 76
68 72 71 72 65 64 64 72 74 79 75 77 76 74 71 73 76 74 77 76 73 79 78 84 87 94 95 97 96 94 90 87 89 86 89 93 94 94 98 93 91 80 70 60
70 72 76 76 61 60 63 76 77 79 82 80 78 77 74 74 71 78 84 83 80 83 85 86 92 92 94 95 98 89 89 88 92 94 94 92 92 97 94 80 69 59 55 58

GFSCGP_sfc_rhum_084.txt.gz
RH
98 92 92 90 90 71 73 88 86 76 70 68 83 73 66 64 79 75 83 86 70 42 34 31 32 49 84 90 94 95 94 95 96 98 98 98 96 98 96 91 89 85 87 88
99 90 71 72 84 78 64 76 87 83 76 76 84 79 64 56 59 50 62 64 51 39 41 36 30 32 42 70 90 94 95 96 95 97 97 96 97 97 96 96 90 90 90 91
98 78 72 93 95 94 72 69 88 80 80 79 81 84 77 67 59 54 45 42 41 38 39 38 38 37 42 46 54 82 94 96 96 95 97 98 97 98 98 98 98 96 93 91
97 80 81 100 99 87 88 59 65 75 83 92 81 91 80 71 64 61 54 47 38 39 42 41 45 49 52 54 52 49 51 54 62 97 98 97 98 97 97 97 97 98 97 96
94 82 97 100 97 80 86 62 72 76 89 85 87 91 82 69 70 55 51 51 48 43 41 40 49 53 62 62 62 54 52 52 49 48 67 98 99 98 98 97 96 96 97 97
90 80 74 87 95 80 83 82 86 91 90 98 85 89 87 76 55 56 53 46 46 44 42 42 55 69 78 72 70 72 71 76 73 61 58 58 83 96 98 96 95 96 96 97
98 91 87 82 99 90 89 91 99 100 100 89 87 92 75 72 52 47 46 48 51 47 44 50 69 80 82 80 82 78 78 83 85 84 85 80 69 65 69 74 76 76 87 94
97 99 92 87 97 99 92 85 92 92 93 94 90 96 71 63 57 53 44 42 45 52 50 58 70 81 80 82 85 84 85 87 88 89 92 93 93 94 94 92 94 97 98 93
98 99 90 87 86 93 97 98 74 89 88 93 88 78 55 60 54 53 56 56 58 64 72 75 82 82 80 83 83 86 90 93 93 93 94 96 96 96 97 96 97 98 97 88
84 98 90 93 88 90 90 84 93 92 96 94 82 82 67 56 52 58 64 71 76 82 89 91 89 82 81 84 88 90 91 93 93 93 91 88 90 91 91 88 89 92 95 95
89 85 99 96 99 98 89 99 89 88 93 93 94 69 59 57 49 52 68 76 86 88 90 92 90 85 84 87 89 91 93 90 88 85 83 81 79 76 76 78 78 78 80 81
83 87 98 97 91 79 87 87 87 94 95 91 94 79 57 59 55 61 75 83 87 88 91 92 90 87 86 88 84 92 92 88 85 80 80 80 80 80 82 82 81 78 81 79
71 88 98 98 89 89 94 88 83 84 92 95 94 77 49 67 63 82 85 88 90 90 93 92 90 86 85 84 82 90 91 88 83 80 82 82 84 86 91 90 88 88 89 90
61 80 82 87 74 85 99 95 86 85 98 89 92 77 60 54 58 77 86 88 90 91 92 91 91 86 83 80 79 86 89 86 84 85 88 91 94 95 96 96 95 95 94 95
65 87 82 78 77 90 92 93 92 90 80 85 82 74 58 50 51 69 82 89 88 91 92 90 89 88 80 81 78 83 88 88 88 91 92 96 97 97 96 96 96 96 96 96
72 87 78 88 82 84 85 87 92 87 78 88 78 76 56 51 73 74 83 88 84 84 88 88 86 87 83 81 82 82 90 88 89 94 96 94 96 95 94 91 91 93 95 94
75 85 82 81 81 77 74 76 87 88 87 82 91 66 59 57 54 61 70 85 78 81 83 85 81 81 80 80 79 84 91 91 93 94 95 92 84 86 87 86 89 93 97 96
76 77 81 95 83 82 53 74 70 76 78 75 72 61 53 52 52 51 61 67 79 79 77 82 81 83 78 79 79 86 88 92 95 96 95 91 89 89 90 92 95 99 99 99
73 84 91 93 93 69 70 80 79 80 69 68 69 62 57 69 73 61 54 56 65 70 76 74 77 79 78 74 76 86 94 94 94 96 94 94 89 94 95 98 99 97 99 100
77 79 84 94 92 80 69 79 73 73 84 75 70 65 62 75 76 68 77 77 80 79 72 78 81 79 79 82 79 84 92 90 96 94 92 92 92 96 98 98 99 100 97 96
86 80 91 80 91 81 64 71 75 88 72 75 74 72 72 80 67 74 77 72 76 77 80 81 80 79 80 82 82 86 90 95 94 92 94 96 95 98 98 100 100 98 95 92
82 90 92 83 91 88 60 77 81 66 71 74 81 76 76 83 85 83 76 76 76 81 84 84 89 90 90 89 88 93 95 96 96 95 97 98 98 96 96 97 95 93 94 94
75 70 77 77 78 57 58 73 72 67 68 76 71 83 79 82 84 83 79 78 76 79 82 84 89 92 93 92 91 94 95 94 94 96 97 97 93 92 89 89 94 99 96 94
77 68 69 70 68 65 61 73 74 76 72 78 80 80 75 76 76 73 72 76 74 78 84 86 89 90 93 94 93 91 94 89 91 95 96 93 93 94 89 87 92 97 96 93
68 73 74 75 68 68 64 73 77 81 74 78 80 79 74 75 75 74 77 74 74 78 81 85 83 89 88 96 96 95 89 87 90 91 94 93 90 93 93 94 96 94 87 73
75 71 74 74 63 63 64 76 81 82 84 82 79 79 74 74 77 78 83 83 79 79 82 86 83 85 91 96 95 91 90 88 88 91 95 97 93 96 96 97 91 77 68 63

GFSCGP_sfc_rhum_087.txt.gz
RH
100 99 98 96 92 77 64 80 76 70 70 67 65 66 56 67 74 68 71 69 61 52 48 35 31 47 79 83 93 93 91 94 95 93 93 92 90 88 84 80 79 77 75 77
98 97 78 74 81 89 64 79 78 73 67 70 69 67 60 57 73 69 66 67 57 52 48 40 33 30 34 71 85 91 90 89 89 92 91 90 91 91 87 87 80 78 78 81
93 90 59 84 80 99 75 78 84 74 72 67 73 76 68 60 52 56 57 61 52 44 44 40 35 33 37 39 61 85 88 89 88 89 90 90 91 91 92 89 88 85 81 82
98 90 70 98 96 95 85 62 65 78 76 78 69 77 70 64 62 55 50 49 54 48 44 38 37 35 39 40 47 52 77 88 90 90 88 87 89 90 87 86 88 88 84 81
96 92 87 95 94 95 96 55 62 72 79 76 78 79 66 62 65 58 54 51 44 42 41 39 39 43 44 56 54 52 51 49 49 74 90 90 90 88 87 86 86 85 87 88
81 83 76 83 87 90 92 74 76 83 81 94 76 78 68 63 54 52 47 48 45 42 38 37 44 56 59 62 57 61 60 60 52 49 50 68 85 87 91 90 89 88 87 87
98 85 87 81 98 90 99 79 96 95 96 86 76 86 62 58 53 45 44 45 46 45 41 40 47 61 65 64 68 67 66 71 68 65 63 57 53 53 62 69 71 69 70 78
96 98 84 89 97 100 81 78 89 92 90 86 84 91 59 52 51 45 46 40 42 52 48 45 51 60 65 71 71 71 72 73 73 74 77 79 79 74 76 76 76 82 84 83
98 100 80 80 87 97 98 94 68 86 80 83 76 66 47 50 50 49 47 49 48 46 51 50 58 65 68 73 73 74 76 79 78 80 79 81 80 82 84 85 85 86 85 82
87 98 86 93 81 92 96 78 90 92 93 86 70 67 49 46 44 44 47 52 53 61 64 72 73 72 73 72 74 77 76 78 81 78 75 76 76 75 74 72 76 80 79 79
91 89 98 92 96 97 97 99 88 81 83 80 76 53 48 48 44 43 45 54 61 73 81 82 76 73 75 76 77 80 77 77 74 71 69 67 66 65 65 66 66 68 67 68
83 88 97 92 88 82 86 85 76 89 95 88 84 59 41 45 50 53 53 66 73 78 83 80 76 75 77 78 80 81 78 74 71 69 67 66 66 66 66 67 68 66 68 68
77 88 97 96 86 89 99 86 78 82 88 93 86 66 46 52 50 59 68 74 81 85 86 82 77 74 74 75 79 82 77 74 71 70 69 69 70 70 72 72 72 72 74 75
67 80 82 86 71 84 99 92 81 83 96 90 86 66 52 51 51 48 66 78 82 83 84 81 79 75 73 74 77 80 77 72 72 73 74 76 76 77 78 79 79 78 77 78
70 95 79 78 74 88 88 91 92 91 80 84 67 70 50 52 51 47 60 82 84 86 86 82 80 76 73 72 73 77 77 75 74 77 80 82 83 83 83 83 84 83 81 81
70 84 76 86 80 80 84 85 89 87 82 81 80 79 55 49 51 58 68 85 85 83 83 82 80 77 73 70 71 78 79 79 78 81 84 86 85 83 84 84 84 82 83 82
74 80 82 84 78 73 70 73 88 88 86 75 85 62 54 56 53 52 63 83 79 78 79 81 78 76 72 69 68 77 80 79 81 83 85 85 83 84 83 82 83 86 88 86
73 74 77 91 78 80 50 70 71 81 80 81 78 70 59 56 49 48 55 69 78 76 78 78 76 76 72 69 70 75 82 83 86 86 87 83 83 84 85 88 93 98 97 98
69 78 88 86 87 63 67 75 76 75 66 67 74 69 63 59 64 58 52 60 66 74 73 72 74 74 73 69 68 76 84 86 88 88 89 87 85 88 89 97 99 98 99 100
77 76 80 89 89 73 59 76 66 67 78 66 69 68 69 68 72 66 69 67 65 63 66 73 78 76 72 72 72 79 84 86 88 86 86 84 87 90 97 96 99 100 98 98
86 81 87 77 81 75 62 61 70 81 70 74 72 69 69 71 63 71 72 71 71 74 73 76 78 78 78 78 76 83 86 92 89 87 88 90 91 96 97 100 100 99 96 91
84 88 92 86 88 85 56 78 80 64 67 72 77 71 72 80 81 76 73 74 74 77 78 81 83 85 84 81 79 87 92 92 92 91 93 97 97 95 96 97 95 91 86 82
78 72 78 76 75 58 56 70 67 63 69 72 70 79 76 78 80 77 75 74 73 76 78 81 84 86 85 84 82 87 88 90 92 92 96 97 95 94 93 93 91 89 81 75
78 71 71 72 65 64 61 62 69 74 71 72 78 77 76 76 75 74 72 70 73 74 76 81 85 88 89 87 84 79 88 88 89 91 96 96 94 95 90 86 86 88 82 76
71 76 75 76 68 65 62 65 72 80 73 73 77 76 76 77 77 75 76 75 72 74 76 80 83 83 81 85 87 86 88 84 88 90 94 95 93 93 91 88 86 83 76 71
80 74 76 71 65 67 66 73 79 78 81 79 76 77 77 76 80 81 84 83 79 77 77 80 81 77 80 85 88 89 88 85 86 90 96 94 92 93 91 91 94 85 78 77

GFSCGP_sfc_rhum_090.txt.gz
RH
96 99 98 82 82 80 35 40 40 36 48 52 45 41 38 35 38 33 29 34 33 29 23 27 29 31 66 64 62 62 65 77 83 90 91 88 90 80 69 64 64 59 56 56
99 93 65 51 69 88 70 40 48 37 56 52 43 45 39 36 37 33 30 27 29 35 26 29 31 27 50 66 67 68 66 67 77 76 84 83 85 90 85 82 71 64 63 63
96 61 53 67 95 100 67 41 41 50 57 54 48 54 43 36 37 34 34 32 28 35 32 30 32 36 34 42 63 76 75 80 81 80 84 82 85 90 91 88 85 77 72 72
83 82 64 82 84 96 77 36 46 48 52 62 52 45 39 37 40 38 34 36 36 36 31 29 30 34 34 32 32 44 76 77 85 85 88 88 88 86 86 82 79 76 73 72
81 90 80 99 77 92 93 54 47 52 50 53 63 61 32 42 41 39 34 33 33 33 31 32 34 33 31 39 41 40 45 65 77 82 85 86 85 83 82 85 82 76 75 73
74 80 76 64 82 87 93 66 59 55 62 85 40 51 32 35 34 34 31 30 32 30 30 30 31 35 38 43 44 48 46 48 50 68 80 84 88 82 86 85 81 76 74 73
75 80 75 66 98 89 100 82 97 94 89 58 44 56 34 31 34 29 27 27 30 30 30 29 30 37 42 47 47 46 45 51 44 44 47 54 63 64 69 66 62 63 62 69
79 88 78 74 78 100 99 95 68 63 55 41 60 59 34 28 25 27 29 28 30 31 30 30 29 32 44 52 49 47 45 49 48 49 50 50 49 48 50 51 51 51 55 60
84 94 72 67 84 87 95 98 53 65 59 51 43 43 34 30 33 34 33 31 32 30 32 32 32 35 39 45 46 48 48 50 52 53 53 54 55 59 62 65 63 64 69 68
94 98 70 92 82 93 97 83 76 89 81 56 53 44 22 33 31 29 27 29 29 30 30 30 33 38 42 48 53 53 50 51 56 56 54 55 57 57 58 58 64 68 66 68
86 91 100 96 94 87 97 98 68 58 69 48 52 36 31 31 31 32 29 31 33 36 39 36 40 44 49 54 58 58 55 56 56 53 52 53 53 54 53 54 55 58 58 59
60 92 94 97 74 60 88 67 55 74 82 69 60 38 29 31 35 36 34 43 44 46 49 48 48 51 53 55 57 59 59 57 56 54 52 53 53 52 51 52 54 53 56 56
65 87 95 98 90 87 94 79 60 62 75 82 52 38 31 35 37 32 37 42 52 54 57 53 52 51 51 52 54 56 56 56 56 55 53 53 54 53 53 53 54 55 56 57
72 69 76 67 56 68 100 77 63 88 90 62 57 41 35 35 35 32 32 44 50 55 58 54 52 51 50 52 55 55 54 53 56 56 56 56 56 56 56 57 57 58 57 59
68 86 67 66 63 65 71 74 73 94 68 85 46 52 33 28 32 32 37 47 52 58 60 58 54 51 51 53 53 54 54 55 55 58 60 62 63 63 63 64 64 62 61 62
76 81 64 78 63 65 70 68 68 66 60 57 55 52 38 33 31 33 33 49 54 56 59 56 55 51 50 50 50 54 56 58 58 59 62 65 65 66 68 67 68 66 67 67
68 70 70 78 63 57 59 52 66 67 64 57 70 48 39 40 39 38 35 45 52 51 53 57 54 53 51 49 49 52 53 54 58 60 62 66 66 68 69 69 70 72 74 73
58 56 60 64 57 52 43 48 53 57 57 59 55 52 44 42 39 36 32 35 41 49 50 52 52 52 51 48 49 48 53 57 64 62 64 65 67 69 72 76 82 90 87 89
53 55 65 63 54 48 59 58 55 56 55 51 53 49 47 47 46 46 37 36 35 42 45 47 48 50 51 51 49 52 58 62 68 66 69 70 68 73 76 86 94 94 98 100
58 55 57 69 67 52 53 53 49 50 66 54 54 50 51 52 57 40 51 52 43 45 50 52 53 54 54 52 50 54 58 62 68 67 68 66 74 77 83 86 97 100 99 100
62 64 69 60 64 48 44 51 52 65 65 55 59 54 54 53 47 58 54 56 56 59 59 57 58 58 58 57 58 62 62 74 73 70 72 74 78 83 87 99 100 100 98 94
54 58 60 63 64 66 42 57 62 52 54 59 61 52 55 58 61 59 59 60 61 62 62 64 64 69 66 65 64 71 78 78 77 73 78 81 84 86 92 97 97 93 88 82
57 48 47 49 44 42 40 51 47 49 55 57 58 60 55 61 62 61 59 58 59 60 60 61 63 65 65 66 65 74 72 72 72 76 78 82 84 89 91 91 92 89 80 74
51 49 47 53 46 45 43 42 44 51 56 58 59 57 60 60 58 58 56 56 56 57 58 61 62 64 65 64 63 57 64 66 69 70 74 81 90 94 92 88 85 86 83 76
50 53 54 51 47 44 46 49 48 58 64 60 60 59 61 62 65 61 67 68 65 63 62 64 60 60 60 63 65 65 62 66 70 70 77 88 88 92 91 87 86 84 78 73
52 52 49 48 49 50 46 57 58 60 64 63 61 63 64 60 65 63 67 67 66 64 63 65 71 67 61 69 72 74 75 72 69 73 82 88 90 90 89 92 92 86 82 79

GFSCGP_sfc_rhum_093.txt.gz
RH
88 100 99 94 84 53 71 45 34 26 32 39 42 36 28 30 30 29 25 23 23 25 23 23 28 46 52 53 54 55 64 66 80 88 88 85 83 85 73 67 61 58 54 53
97 96 58 60 64 89 92 65 38 25 35 41 41 39 29 30 31 29 26 22 22 23 23 24 27 34 52 56 58 60 54 59 71 81 81 80 78 82 77 82 69 65 65 65
84 62 48 59 93 100 87 60 43 31 44 42 44 43 36 29 28 28 26 23 21 21 24 25 28 32 52 59 60 60 57 53 62 73 83 84 88 91 92 87 84 82 82 76
76 60 60 78 94 84 82 41 43 36 52 53 40 50 34 31 32 29 28 26 25 23 25 25 29 33 36 38 57 60 61 72 81 78 79 85 85 85 86 80 84 79 84 83
94 74 62 77 74 71 94 72 40 47 48 43 47 48 28 27 33 31 28 25 24 25 28 28 30 37 36 36 42 44 70 70 78 81 80 90 89 83 89 91 90 82 76 87
91 86 72 70 60 63 85 69 73 52 58 86 42 40 26 32 28 26 24 24 24 25 29 27 32 33 36 42 44 46 46 62 76 79 91 83 87 87 90 95 95 83 79 81
82 98 83 79 99 95 98 87 98 96 95 55 30 44 28 24 25 22 24 24 23 24 28 29 30 35 35 43 48 49 41 48 54 59 71 77 84 78 83 89 89 86 79 84
75 94 94 77 83 100 100 97 87 76 70 46 41 43 30 21 20 24 24 22 22 24 25 27 27 33 35 42 57 52 56 52 44 47 50 48 51 52 58 55 55 51 51 57
69 92 82 67 71 79 99 95 58 59 34 43 38 29 27 27 27 29 27 27 28 27 26 26 27 26 30 45 47 47 47 49 48 47 47 48 48 52 59 63 59 58 60 62
96 92 62 79 69 81 97 94 75 86 70 56 39 27 30 32 29 28 28 28 27 25 25 26 27 27 30 36 42 44 48 46 48 48 47 48 51 54 54 55 62 64 63 65
74 88 100 84 78 92 98 99 79 56 64 45 51 32 26 29 29 28 26 26 25 26 27 26 26 28 32 38 44 45 46 54 56 53 50 51 51 51 51 53 55 57 57 59
76 91 94 98 71 51 65 72 52 74 66 61 62 40 26 30 32 30 29 36 35 35 33 32 30 37 42 48 48 48 51 52 52 52 48 51 52 50 50 51 52 51 54 54
77 86 96 99 90 85 86 74 69 51 78 78 62 42 26 31 31 28 30 33 39 42 44 41 40 44 46 47 48 49 49 51 50 50 50 51 51 50 50 50 52 51 53 54
75 94 97 77 65 64 96 75 55 86 86 46 48 37 32 30 32 28 30 32 38 44 47 44 44 43 44 46 47 48 48 49 51 50 51 52 53 52 52 53 53 54 54 55
84 98 61 55 54 55 68 68 61 97 63 83 44 42 29 25 29 28 28 35 40 45 48 47 46 44 45 47 48 47 48 49 50 52 55 56 57 58 57 60 59 58 58 58
68 80 59 75 56 56 65 57 59 58 54 51 49 49 33 30 29 29 27 34 41 46 49 47 46 44 45 46 48 50 51 51 52 53 55 58 59 60 63 63 63 63 64 64
60 60 66 76 55 52 66 57 59 57 53 53 65 47 36 36 33 35 32 34 38 42 46 48 47 46 44 44 45 49 50 50 52 53 54 58 58 62 64 64 66 69 71 70
52 50 53 53 48 58 43 39 44 51 46 47 50 46 41 39 35 36 33 32 32 38 41 45 45 45 44 43 44 45 47 50 56 55 56 58 60 63 66 69 74 82 81 84
46 48 53 58 44 46 56 53 48 52 54 48 50 45 42 42 42 45 36 35 34 31 37 39 41 43 45 45 44 46 50 54 60 58 60 61 61 65 69 77 87 86 93 100
50 49 54 58 63 47 50 47 44 44 63 50 51 48 48 47 56 49 48 47 40 37 42 42 43 44 46 47 45 49 53 55 62 61 61 60 67 68 76 78 89 100 97 100
54 54 61 51 57 43 39 46 46 68 83 54 54 48 46 48 50 51 48 51 50 53 52 52 50 51 50 50 51 57 58 65 65 62 65 66 71 77 77 93 100 100 100 98
50 52 53 53 59 60 38 53 58 50 47 53 54 47 48 51 54 54 54 55 57 57 57 60 58 64 60 59 59 67 73 74 73 70 74 75 78 77 83 94 96 96 94 93
52 44 53 48 47 39 35 40 38 43 46 53 54 52 49 54 57 56 55 54 55 54 55 55 58 61 60 62 60 66 70 70 72 71 74 76 76 78 80 86 93 94 88 85
44 42 44 47 43 40 39 38 40 40 51 56 54 53 55 58 56 57 56 56 55 54 54 55 57 58 60 60 60 55 60 60 63 66 67 71 77 81 82 88 87 89 88 84
50 48 46 44 42 41 44 48 44 50 56 56 54 56 59 65 68 57 66 63 63 64 58 56 56 54 54 56 57 55 59 60 65 62 64 72 78 84 88 90 86 89 82 84
44 51 53 75 47 48 43 42 53 53 58 57 57 59 59 56 59 56 61 61 61 61 60 60 61 64 64 64 66 66 68 69 71 72 71 77 83 82 88 91 97 96 90 91

GFSCGP_sfc_rhum_096.txt.gz
RH
90 96 97 89 90 83 75 62 56 41 36 43 52 48 37 30 30 36 37 36 34 32 31 35 44 62 68 70 69 71 79 84 84 91 97 96 94 91 86 77 71 65 62 66
89 94 59 67 79 96 97 94 57 46 39 45 51 52 36 33 39 39 35 33 32 32 32 34 45 60 69 72 74 78 78 83 86 87 92 95 96 94 95 90 84 79 76 74
88 64 56 64 83 100 90 90 67 75 48 52 46 57 45 32 37 37 35 32 29 30 32 36 41 55 71 75 78 79 75 77 89 91 96 96 97 97 96 95 98 94 91 92
80 54 69 69 92 92 85 63 64 51 65 99 65 91 76 55 38 38 39 38 36 32 30 32 41 55 77 84 81 77 76 78 86 92 96 96 97 98 98 98 97 93 96 96
90 80 67 98 96 75 81 80 72 78 65 57 66 72 65 46 40 36 36 37 35 34 34 36 44 46 49 62 81 87 84 87 93 94 94 96 89 85 87 91 89 94 96 96
90 80 85 70 72 71 81 76 74 82 86 99 75 58 43 38 36 37 32 32 33 34 34 37 49 52 56 62 63 65 87 88 93 92 91 90 87 86 91 94 95 94 95 97
98 94 83 78 98 91 98 99 99 99 99 89 58 59 42 30 28 30 30 33 31 32 36 44 49 55 60 66 70 77 72 75 85 92 94 86 80 82 78 87 88 82 80 86
89 99 88 88 90 100 99 100 99 89 92 66 49 90 46 32 31 31 32 34 32 33 40 44 48 49 58 66 73 68 65 66 68 76 80 81 91 92 86 80 77 78 80 79
84 98 77 81 84 85 100 100 90 99 59 78 54 46 32 36 39 38 38 34 38 41 38 42 42 48 55 66 67 69 70 67 69 68 65 59 59 67 71 72 74 75 76 71
90 94 71 76 68 83 98 92 97 99 97 92 56 48 42 42 39 38 41 41 41 40 39 37 41 43 52 60 63 62 64 66 63 60 62 60 64 67 70 78 81 81 79 79
68 87 99 78 79 88 97 94 95 82 83 88 75 57 46 43 37 36 36 35 37 38 36 36 38 41 54 62 65 65 66 67 66 63 60 63 66 65 69 72 74 74 73 72
84 98 97 90 67 57 66 73 76 97 77 95 91 64 41 42 38 38 42 42 47 43 42 41 41 56 63 66 65 69 73 74 71 66 62 61 61 62 66 67 67 66 69 69
84 95 99 99 94 83 90 75 74 75 89 86 95 62 39 44 40 37 42 50 51 53 56 52 56 61 68 70 69 71 72 73 70 69 68 67 64 64 64 64 62 61 64 66
79 94 99 98 81 81 96 77 70 92 96 66 95 52 42 41 41 41 42 48 56 58 57 58 62 65 67 68 68 69 70 69 69 69 71 72 71 67 69 69 67 68 68 71
83 100 96 63 59 66 77 83 73 87 76 84 60 51 42 42 44 40 42 45 53 59 60 61 63 66 68 70 68 67 69 69 69 71 74 76 75 74 74 74 73 73 73 73
84 96 72 87 58 62 78 68 66 68 63 61 59 64 46 42 39 42 50 44 50 57 59 59 59 63 68 72 69 66 70 70 70 74 76 75 76 76 79 79 79 80 80 79
74 94 84 94 65 62 82 68 68 67 63 63 75 60 54 51 44 47 48 45 47 52 60 60 61 62 63 66 66 71 71 69 71 73 74 74 74 78 81 79 81 85 88 87
70 64 67 81 73 84 60 47 54 60 54 56 54 53 52 52 48 49 48 49 44 50 54 60 62 62 62 63 65 66 68 71 74 74 74 73 75 79 82 85 90 92 92 91
58 69 74 84 65 64 68 62 60 67 67 56 60 56 52 52 60 63 54 54 53 47 50 58 60 63 64 62 62 66 72 74 77 75 78 77 76 83 86 93 93 92 96 100
56 63 78 82 84 72 71 59 51 56 85 60 62 63 60 60 83 81 63 62 64 58 65 65 62 63 66 65 64 69 74 77 82 77 78 77 80 85 89 93 95 100 99 100
72 72 82 78 82 64 56 56 57 88 92 68 67 62 60 75 75 69 65 66 66 70 71 68 71 72 71 68 68 73 76 81 81 77 79 83 86 89 91 96 100 100 100 100
60 72 74 73 80 80 56 66 75 62 66 66 71 63 64 69 68 68 67 69 71 72 75 79 84 85 80 77 76 82 84 86 84 83 85 88 91 90 94 97 99 99 98 98
68 63 72 64 66 50 49 51 48 49 53 71 69 67 66 69 71 67 69 69 69 69 71 72 80 81 81 81 80 86 89 88 88 88 90 92 92 89 85 95 97 99 95 94
62 54 62 58 57 54 55 54 54 55 72 71 68 68 68 72 72 75 74 74 73 71 72 71 72 77 82 81 74 80 84 84 85 89 91 92 93 88 87 93 92 94 94 92
70 64 61 60 58 64 60 59 64 64 67 68 66 68 77 75 70 69 74 71 75 73 72 73 75 74 75 75 75 75 75 74 80 80 77 83 86 86 91 94 91 90 85 86
58 70 84 92 63 63 61 58 67 68 73 75 70 74 73 69 71 71 79 79 78 80 76 78 76 77 78 77 77 71 70 71 74 74 79 87 90 88 96 96 96 85 86 84

GFSCGP_sfc_rhum_099.txt.gz
RH
92 97 98 95 89 98 77 89 87 57 44 67 79 66 57 52 72 79 63 54 44 50 45 48 66 76 85 86 91 84 87 90 92 94 96 96 90 92 90 78 74 65 63 71
92 95 66 76 76 91 99 93 74 56 40 46 54 57 44 38 38 42 46 42 43 41 43 50 69 82 81 86 85 94 89 87 86 87 95 96 96 95 94 90 83 78 76 75
90 67 53 70 86 95 95 98 75 62 55 55 55 64 59 42 38 43 39 37 36 34 38 50 68 82 87 89 91 89 89 89 90 92 99 99 98 98 96 96 96 97 96 95
88 74 60 76 91 94 98 92 74 64 79 85 78 90 67 54 44 42 44 45 40 36 36 50 60 78 89 87 90 91 92 94 94 97 96 96 97 98 97 95 96 95 96 96
88 94 77 100 92 82 98 85 77 79 87 81 93 97 71 60 51 50 43 45 42 39 37 49 55 64 86 91 93 91 90 93 96 96 96 97 95 92 94 96 93 94 91 92
89 83 89 76 77 84 83 89 90 87 97 97 92 98 54 59 52 53 45 44 39 38 36 48 50 62 71 82 77 90 94 96 97 96 96 93 89 94 95 95 97 97 96 96
98 99 86 77 97 90 99 99 99 99 99 94 73 78 54 44 40 40 38 42 40 39 35 50 63 66 68 71 74 83 90 98 97 94 93 90 92 90 89 90 92 90 88 89
96 98 90 83 90 98 100 100 98 94 96 83 67 79 60 38 39 34 35 38 38 39 40 63 60 63 61 67 74 70 80 85 92 96 95 93 90 94 90 85 80 80 82 87
96 98 87 81 78 88 100 99 96 91 81 84 82 61 36 45 43 40 41 42 44 40 43 60 60 56 67 72 73 69 74 73 79 82 74 78 82 85 81 80 83 85 80 76
91 97 74 82 75 86 93 87 97 97 94 89 70 56 48 55 46 41 42 41 40 43 44 56 52 54 66 70 75 72 73 74 76 77 76 77 78 79 82 84 84 85 82 82
80 84 96 84 86 91 93 98 95 94 92 89 86 64 52 53 45 47 45 41 41 42 40 42 52 63 67 73 74 75 75 74 77 76 77 76 70 76 80 83 78 74 74 77
95 94 90 89 91 66 80 78 84 96 92 98 92 70 47 47 45 48 49 47 50 46 45 44 68 72 72 76 77 79 82 80 80 77 75 74 70 71 69 69 71 73 75 74
85 96 96 93 87 79 84 80 78 85 90 96 98 69 44 47 44 44 54 58 56 57 56 60 73 75 77 80 84 85 84 82 79 76 76 77 72 75 74 70 68 65 68 71
87 86 98 93 80 86 97 82 80 90 95 98 94 63 54 49 50 53 52 60 62 63 60 64 76 80 81 79 82 83 81 77 76 77 78 80 79 78 77 75 72 72 77 75
86 98 93 85 72 76 82 84 82 88 74 86 76 56 54 49 48 50 52 59 62 63 64 64 70 77 81 81 82 80 79 78 77 79 81 82 81 81 81 80 79 80 80 76
90 94 84 90 64 71 87 80 80 76 70 70 62 68 59 51 47 44 50 52 61 64 62 63 66 75 82 83 82 77 79 78 78 80 82 80 80 82 84 84 85 85 85 85
82 93 93 98 69 63 83 73 75 71 65 64 79 67 58 54 48 50 50 47 52 61 63 64 68 72 77 78 75 79 79 79 80 82 81 80 81 84 86 85 87 90 90 92
89 81 82 90 75 83 62 53 59 65 60 59 59 60 58 58 56 63 60 52 50 50 62 64 67 70 73 75 76 78 77 79 82 82 82 81 83 86 88 89 92 93 93 93
89 79 90 87 84 68 73 65 64 67 75 62 67 66 62 60 67 76 66 65 62 58 68 64 65 68 71 73 75 75 80 82 84 83 84 83 84 89 91 93 95 94 95 100
64 73 86 90 87 77 77 65 60 61 92 76 70 65 62 65 82 81 70 68 72 74 73 76 69 68 70 72 74 75 81 84 85 83 83 82 86 90 92 94 95 100 97 100
84 81 88 86 89 70 65 66 63 78 82 69 68 66 71 79 77 73 73 75 74 78 82 82 82 81 74 72 74 80 84 86 84 83 84 86 89 91 92 96 100 100 100 100
69 83 85 84 82 81 62 67 81 72 69 70 73 69 78 76 74 74 74 77 77 77 78 83 87 88 86 81 78 84 86 84 87 87 88 91 92 92 94 97 98 99 99 99
75 70 77 74 77 53 51 55 55 51 56 80 73 79 72 77 78 74 76 75 75 76 78 80 85 85 88 86 85 87 88 90 90 90 92 93 94 95 96 96 96 98 98 98
72 66 70 64 70 72 70 68 67 68 76 76 75 72 72 76 78 84 81 81 79 76 76 78 81 84 85 84 80 86 91 90 91 92 94 95 96 94 90 95 94 96 97 97
80 66 73 82 76 73 61 68 75 72 73 74 75 81 81 80 80 76 80 76 76 78 78 80 82 83 82 80 80 86 87 89 92 92 90 89 89 90 92 93 92 93 88 91
80 82 92 96 86 83 71 66 73 76 77 78 79 81 81 75 79 80 87 85 85 88 88 89 89 88 86 82 82 81 80 83 83 83 82 88 91 90 96 96 96 86 87 85

GFSCGP_sfc_rhum_102.txt.gz
RH
92 94 95 90 91 98 98 95 88 72 62 79 79 66 86 86 86 86 88 81 73 61 58 64 83 91 94 96 96 92 94 94 89 91 94 96 95 94 91 83 75 67 67 72
88 95 74 61 90 97 99 90 98 76 54 68 76 75 72 87 84 84 84 85 71 53 51 61 79 92 94 94 93 96 93 93 86 90 92 95 96 96 93 91 84 78 76 75
91 72 58 64 94 98 99 89 87 86 70 72 70 81 78 71 71 77 86 85 59 42 48 58 83 92 94 96 95 92 92 90 91 91 98 99 98 98 98 96 95 95 90 89
87 77 77 70 91 97 95 86 80 76 92 98 83 96 85 85 60 53 66 77 54 40 41 53 69 90 94 94 95 93 94 93 93 97 95 96 95 97 97 96 98 97 95 96
79 91 89 89 75 84 100 88 82 76 89 84 94 84 75 62 60 46 40 45 41 41 40 52 62 78 88 94 94 96 95 96 97 97 96 97 97 96 97 98 97 96 94 95
92 83 97 90 76 78 87 94 84 86 90 97 92 82 64 64 54 44 42 44 41 42 42 50 65 79 93 96 96 96 96 97 98 98 98 95 94 96 98 99 99 98 98 98
95 100 87 77 96 91 99 99 99 99 99 96 95 96 73 52 45 39 40 42 42 40 42 53 65 83 91 93 94 96 96 100 99 98 98 94 94 95 95 96 98 96 94 92
97 99 98 81 90 97 100 100 98 96 97 95 75 92 60 43 38 42 39 40 41 44 42 57 67 74 79 88 92 97 98 99 98 96 95 92 92 95 94 93 95 95 92 88
96 99 81 82 82 90 100 98 94 93 82 92 94 66 41 43 45 44 42 41 44 44 44 61 70 68 70 75 82 94 96 97 97 94 94 94 94 93 93 88 88 91 91 89
89 95 81 85 80 82 95 90 96 96 89 94 82 61 51 53 53 52 48 46 46 46 46 67 67 62 68 69 73 74 85 92 95 94 93 92 92 91 88 91 92 90 90 89
94 82 92 83 90 93 93 96 96 86 93 90 87 65 59 58 49 49 52 53 50 52 52 65 72 68 71 77 75 76 77 82 87 84 87 89 89 89 91 91 91 86 82 85
91 85 98 88 81 73 75 81 92 92 92 98 92 75 52 58 57 55 58 55 58 50 50 60 68 74 78 78 78 78 82 82 86 85 85 86 86 86 85 85 82 82 83 82
85 92 93 88 83 78 90 86 85 87 90 99 93 77 48 58 52 54 61 69 62 61 65 80 81 78 81 81 80 82 86 88 86 84 84 83 82 80 80 77 74 75 80 80
84 91 93 84 70 84 97 90 88 87 94 98 97 88 57 50 50 50 62 72 73 69 66 79 84 87 84 83 87 87 86 83 83 82 82 84 83 81 80 80 79 80 82 83
85 94 94 83 81 83 85 88 86 89 90 97 88 76 62 57 59 49 57 66 70 73 68 76 81 84 84 85 85 84 83 83 83 84 84 86 83 83 82 82 83 84 85 86
91 95 89 92 68 79 90 82 84 85 74 83 80 74 59 57 56 55 63 66 67 69 69 67 73 81 86 88 85 82 84 83 82 85 86 84 84 85 86 87 88 88 89 90
82 94 94 93 72 70 85 81 84 78 71 67 78 64 60 56 52 57 55 53 56 65 66 66 70 74 79 81 80 83 83 85 85 86 85 84 84 86 88 89 90 91 91 92
97 88 87 92 72 84 63 52 61 65 60 63 63 61 57 57 66 66 65 60 55 54 67 66 69 73 77 79 80 82 83 85 86 86 86 85 86 88 91 91 92 93 94 94
94 89 90 89 88 70 72 68 66 68 79 66 71 71 65 60 69 72 67 67 73 71 70 72 68 70 76 79 80 81 86 86 88 88 88 87 87 91 92 92 94 94 95 96
82 83 88 91 89 80 77 64 58 62 91 80 70 68 70 71 83 78 72 74 77 76 77 80 71 68 72 78 80 82 86 89 89 87 86 86 89 91 92 93 95 99 96 99
87 87 90 88 90 74 69 69 65 74 76 70 64 70 77 79 78 77 76 78 77 81 86 87 83 79 75 77 76 82 85 87 85 84 85 87 90 91 92 94 100 98 98 99
76 85 88 87 91 89 66 71 84 72 74 78 70 76 83 81 79 79 78 79 79 81 82 84 90 92 88 82 82 87 87 84 86 87 89 90 91 93 94 97 98 97 98 99
76 74 83 74 75 60 69 64 66 57 59 84 80 79 76 80 81 77 80 81 81 81 82 84 86 84 89 88 83 86 85 87 90 91 91 92 93 95 94 95 98 99 99 98
82 75 72 71 80 83 76 77 76 76 78 82 81 80 77 80 75 82 83 84 83 81 83 82 83 85 88 85 83 87 90 90 91 91 93 94 95 97 95 94 94 97 98 98
83 78 81 86 84 80 72 76 81 78 78 79 80 85 81 85 82 78 84 83 82 84 86 85 85 82 82 82 82 89 90 91 92 92 94 92 92 92 94 95 94 94 89 93
88 85 91 93 85 87 86 87 79 80 81 80 83 85 83 79 83 84 90 90 91 90 90 92 92 90 90 87 86 84 82 87 90 88 90 92 94 93 96 95 95 87 88 86

GFSCGP_sfc_rhum_105.txt.gz
RH
90 93 94 77 97 95 99 96 94 81 75 86 90 76 82 82 81 90 90 88 84 78 62 63 93 96 98 98 96 92 95 93 92 95 96 97 93 95 90 84 75 68 65 71
88 92 75 66 84 94 99 96 96 83 68 79 84 83 75 83 79 93 88 87 87 83 64 56 83 99 92 94 96 97 94 96 94 94 91 96 94 96 92 93 90 79 77 78
92 71 63 63 99 98 98 90 98 82 86 82 80 92 90 92 84 83 85 81 85 84 76 58 81 96 98 98 98 96 96 94 92 95 98 98 98 98 98 96 95 90 84 85
89 75 82 72 99 90 96 78 79 85 89 99 91 99 94 89 89 86 87 86 89 85 70 56 65 90 95 95 96 95 97 96 97 97 96 96 90 95 97 97 97 98 94 92
79 91 89 88 80 91 100 79 81 92 98 95 97 87 77 84 86 86 78 84 82 78 69 54 56 83 91 95 97 97 96 98 99 98 96 98 98 97 98 99 98 98 98 97
93 82 94 92 79 92 95 93 84 95 99 97 92 82 70 85 64 63 58 74 75 78 59 41 55 77 92 96 97 98 97 97 99 98 98 97 97 97 99 100 100 99 99 99
93 99 96 78 93 95 100 88 98 98 98 94 87 81 59 58 49 46 49 44 60 51 42 42 68 90 95 96 96 98 98 99 99 99 98 96 95 96 96 98 99 99 99 99
98 99 96 83 90 97 100 100 95 96 97 98 90 85 58 51 42 42 39 37 38 39 41 44 60 85 93 94 95 98 98 99 99 99 99 97 95 97 97 96 98 97 97 95
96 98 84 87 89 89 100 98 95 89 86 93 92 76 44 45 46 46 48 45 44 46 47 45 62 80 92 94 95 97 97 98 99 98 97 96 96 96 96 95 94 95 92 89
93 95 77 80 82 83 97 92 97 95 87 95 89 72 57 56 49 49 50 50 45 44 46 48 62 71 87 91 92 95 97 99 98 97 96 95 95 94 93 93 92 91 92 92
93 82 86 79 89 93 92 96 94 85 92 90 88 66 54 61 56 48 51 47 48 46 46 52 63 71 80 80 87 90 94 96 98 96 94 95 95 93 92 92 92 92 91 92
91 87 99 86 78 82 78 83 91 92 92 95 92 79 50 58 60 56 59 58 59 54 53 59 68 73 81 80 81 82 83 92 94 93 94 94 93 94 94 93 90 88 87 81
85 90 95 84 84 78 92 86 88 87 90 94 91 81 48 53 54 59 63 65 68 67 79 84 83 84 82 81 82 84 86 90 91 91 92 92 92 88 88 87 84 82 83 85
84 95 90 88 71 84 96 92 91 87 95 93 96 86 62 52 52 55 68 75 77 76 73 85 88 88 87 88 85 90 91 91 90 89 88 89 88 85 84 84 83 82 81 79
86 99 99 84 74 88 86 89 91 89 92 92 91 84 72 66 57 56 61 72 72 73 74 81 87 90 90 91 92 91 90 90 88 87 87 89 87 85 86 85 87 87 87 88
85 93 94 90 73 84 92 88 88 86 91 89 87 87 72 67 71 62 63 62 66 71 75 79 86 87 88 90 90 87 89 88 86 87 87 85 85 86 87 89 90 90 91 91
82 92 94 88 73 78 84 73 90 84 80 85 85 74 63 58 60 70 71 60 59 61 78 76 80 80 85 89 87 88 87 87 86 86 86 86 86 87 89 91 91 92 92 92
94 90 89 92 72 84 63 58 70 73 68 69 67 66 66 68 76 76 76 77 68 68 76 76 75 78 82 81 83 83 83 84 86 86 87 87 88 90 92 92 92 93 94 93
92 93 90 88 88 76 80 71 75 68 84 76 77 74 67 67 74 81 73 74 79 78 74 78 79 75 82 82 81 83 87 88 88 88 88 88 88 91 92 92 93 94 95 96
94 91 90 92 89 84 79 68 62 66 92 80 70 68 69 70 76 77 78 82 82 80 84 89 87 73 79 85 82 82 88 89 90 89 88 88 90 91 93 92 94 99 95 98
89 90 89 90 94 80 67 74 65 77 71 76 65 72 77 76 75 81 81 81 81 83 86 88 87 82 81 83 81 86 89 89 86 86 87 89 91 92 92 94 99 100 97 96
81 88 91 90 93 91 64 75 83 70 80 86 76 78 84 84 85 83 81 83 84 85 85 87 92 93 90 85 84 88 89 86 86 87 88 90 92 93 94 97 99 97 97 99
81 76 86 78 78 75 85 84 86 81 65 84 82 79 83 85 85 85 85 84 84 85 86 86 88 88 89 90 85 88 86 87 89 90 90 91 93 94 95 97 98 99 98 99
86 82 77 82 86 88 86 85 87 86 86 84 86 82 82 84 76 88 88 88 88 87 87 85 84 82 82 80 88 90 91 89 91 92 92 94 95 96 97 96 94 98 99 99
86 84 85 88 85 84 84 90 89 86 84 84 84 91 87 88 81 78 86 89 92 93 90 88 85 83 88 87 87 90 92 91 92 92 94 95 96 96 97 96 95 96 93 94
87 85 91 87 85 85 86 90 83 85 87 84 86 88 82 82 83 84 91 92 89 88 88 91 94 92 91 92 93 92 88 88 90 92 92 94 95 97 97 97 95 87 89 86

GFSCGP_sfc_rhum_108.txt.gz
RH
90 94 94 84 78 98 95 96 98 76 74 72 84 78 72 82 90 85 89 94 90 87 80 78 95 98 90 90 95 91 91 92 93 97 98 98 95 97 94 86 78 75 75 80
90 95 69 72 70 95 95 94 94 81 77 72 88 90 89 85 87 86 89 91 88 82 79 72 95 99 97 97 95 97 95 94 91 94 92 95 94 95 90 88 83 75 74 77
95 74 68 75 83 99 91 98 95 88 84 86 90 96 96 90 87 85 83 85 86 79 76 74 93 99 98 94 98 97 98 96 94 96 97 99 98 98 98 96 92 92 87 85
91 74 82 82 94 97 99 90 93 79 94 99 95 98 95 94 92 89 86 87 91 84 78 66 70 97 98 96 97 94 98 97 96 97 96 95 97 98 98 97 96 95 95 89
81 93 85 95 92 96 100 87 88 95 95 99 95 85 98 86 91 84 84 84 82 82 83 75 64 74 94 97 97 98 98 98 98 95 89 90 92 93 98 99 97 97 98 95
88 81 87 90 95 96 95 92 86 88 92 97 99 76 88 92 81 77 77 87 83 78 76 73 55 57 92 97 98 98 96 97 98 98 98 96 95 96 98 99 99 99 99 99
91 96 97 95 99 96 100 93 98 96 96 96 87 82 62 75 65 65 61 74 82 66 73 63 53 80 93 95 99 99 99 99 99 98 99 98 98 97 96 99 99 99 99 100
98 98 98 81 92 99 100 92 95 94 94 92 82 86 61 54 52 55 54 54 79 65 66 52 49 70 90 93 97 98 99 99 99 99 99 98 97 98 98 98 99 99 98 98
97 98 86 79 83 94 100 96 91 87 86 94 95 75 47 47 47 52 50 52 52 48 44 45 45 63 89 94 95 95 98 98 98 96 99 98 97 97 98 97 97 98 96 95
96 92 76 77 84 91 98 94 96 94 88 90 88 70 66 61 57 54 55 50 47 47 45 44 48 65 83 92 95 97 97 96 98 99 98 98 97 96 97 96 96 94 94 93
94 81 78 77 90 93 93 96 92 86 90 94 91 73 56 63 61 59 60 54 52 48 45 46 49 70 86 93 95 97 98 99 99 98 97 97 97 95 95 95 95 94 94 94
92 87 98 84 77 85 80 83 91 93 92 95 93 82 52 59 64 60 64 64 61 62 67 70 57 70 84 90 94 95 96 98 98 96 96 97 96 95 96 95 94 93 93 93
91 92 94 76 71 77 89 87 89 85 90 93 90 80 53 57 58 68 72 70 68 66 73 81 82 81 82 85 89 90 92 96 96 96 96 96 96 95 94 91 89 88 88 90
82 90 89 96 85 83 93 89 92 87 95 96 94 81 66 59 56 57 70 77 75 72 75 81 85 87 87 86 87 90 92 93 93 94 94 94 94 92 90 89 87 86 85 87
88 96 88 84 75 87 88 89 91 94 93 88 85 81 75 72 67 67 67 72 73 73 71 84 89 92 92 92 90 90 92 92 92 92 92 93 92 91 90 90 91 91 90 91
84 94 93 87 75 85 93 89 90 88 91 89 87 83 76 70 67 66 71 63 66 74 75 76 84 88 90 91 92 92 93 92 90 91 92 91 90 89 90 91 92 92 93 93
83 92 93 87 75 85 84 75 89 83 82 85 78 80 65 67 66 76 77 72 67 70 80 76 77 84 88 90 91 92 92 91 90 89 90 89 90 90 91 92 92 93 93 94
92 92 89 92 76 89 68 69 69 78 75 70 67 68 66 65 72 78 78 81 81 82 80 81 85 84 85 88 89 91 90 90 91 91 91 90 90 92 93 92 93 94 94 95
92 93 91 88 88 78 82 77 88 84 90 86 83 78 67 70 79 80 76 82 86 86 82 86 87 86 85 88 90 91 91 91 91 91 91 90 90 92 93 94 94 95 96 97
96 90 91 93 88 88 82 76 67 67 91 84 72 72 80 77 75 81 83 82 81 85 91 94 91 86 86 90 90 91 92 91 90 91 90 90 90 91 92 93 95 99 95 100
90 91 89 90 94 82 71 75 76 79 69 85 69 79 80 78 76 84 85 84 84 84 87 92 93 92 87 89 88 88 91 89 88 89 90 91 92 92 92 95 100 100 98 97
83 89 92 92 94 92 77 76 80 72 80 87 82 80 84 84 84 84 84 86 86 88 87 90 94 95 94 90 89 90 90 88 89 89 90 92 93 93 94 97 99 98 97 98
84 77 86 78 80 81 88 89 89 89 79 88 86 82 84 85 86 86 88 89 87 88 90 89 91 90 91 92 88 90 89 88 90 90 91 92 93 95 95 99 99 99 98 99
89 84 82 87 88 87 90 87 90 91 90 88 90 86 84 84 82 89 88 90 92 92 92 90 90 83 82 86 88 89 88 88 90 92 93 94 95 96 96 96 97 98 99 99
87 86 86 87 87 86 85 90 90 88 87 88 86 91 89 87 80 79 85 90 94 94 94 91 91 86 89 91 88 86 88 86 90 90 93 95 95 96 97 97 97 97 95 95
88 84 91 90 83 83 85 90 88 88 90 89 92 86 83 82 87 82 91 91 90 88 87 93 94 94 92 95 96 96 93 89 91 93 94 95 96 96 97 97 96 88 88 86

GFSCGP_sfc_rhum_111.txt.gz
RH
86 91 93 75 78 84 91 96 94 72 62 74 82 64 66 87 86 87 87 85 78 81 72 82 79 82 85 86 87 88 90 90 91 93 94 94 87 90 87 79 74 76 74 80
84 95 71 66 73 83 90 97 88 70 63 72 68 68 69 88 83 86 88 84 78 79 73 83 92 90 95 88 88 91 89 92 89 91 87 88 88 88 87 88 77 71 73 75
93 72 68 74 88 93 92 97 93 84 76 73 76 96 95 86 84 86 85 83 82 83 72 78 96 86 96 96 91 89 92 92 91 91 93 94 92 91 89 88 86 82 76 81
89 73 78 83 95 90 97 92 98 79 97 99 96 98 93 89 87 89 87 88 89 79 68 66 90 96 94 91 96 95 96 92 96 96 93 93 92 92 89 90 91 90 83 82
78 77 84 86 93 97 100 99 97 87 98 99 97 84 99 85 90 86 84 88 90 71 65 62 74 90 96 97 96 96 98 97 92 99 95 97 97 96 97 95 93 94 91 82
85 70 85 93 95 97 96 94 95 84 91 97 98 75 86 92 82 76 77 90 87 72 67 59 53 62 92 98 97 96 95 93 94 93 99 98 97 96 94 97 96 97 95 98
92 98 97 96 99 88 100 88 94 93 96 95 93 74 63 69 69 66 73 91 80 70 67 53 60 75 94 98 97 97 96 98 98 94 90 94 97 96 95 96 97 96 98 98
98 97 94 87 98 100 100 88 93 88 91 91 70 85 61 48 46 54 58 81 82 67 58 50 48 66 84 96 98 97 95 97 98 98 98 99 98 99 97 96 96 96 96 98
97 92 78 83 96 99 100 93 95 85 76 81 83 56 45 44 47 49 51 79 83 70 48 44 44 61 76 88 95 96 96 96 98 98 99 97 95 98 98 98 98 98 95 96
94 89 66 76 88 86 91 87 92 92 89 91 73 70 71 60 62 57 54 62 83 72 55 48 43 55 77 86 91 93 94 93 94 97 98 98 98 98 97 94 96 90 89 90
94 78 75 75 90 98 92 93 85 83 84 82 78 91 52 62 65 68 65 56 70 79 53 48 42 60 76 88 94 97 96 96 96 95 95 94 94 94 93 90 86 84 83 83
92 84 98 86 74 84 76 87 89 89 89 89 84 86 52 58 66 66 69 64 62 76 71 68 59 61 72 83 90 96 97 96 94 92 92 90 88 86 86 85 83 80 82 81
89 90 91 75 64 70 85 83 88 81 85 96 90 76 50 52 53 63 72 70 68 70 74 75 73 72 72 78 84 88 94 96 93 90 90 90 88 86 83 82 79 76 77 78
75 90 90 95 88 85 92 83 88 86 90 89 88 70 64 63 62 61 71 71 70 68 75 79 80 80 79 78 79 82 90 91 91 89 88 89 86 84 80 77 76 75 74 75
84 89 96 79 79 80 87 88 87 95 90 87 79 74 70 67 66 66 64 62 64 70 71 80 82 82 84 82 81 82 85 86 86 86 86 87 84 80 78 78 77 75 74 76
87 94 89 84 83 81 82 84 84 84 82 84 78 78 63 61 64 67 73 64 67 73 78 76 78 82 82 82 82 84 84 84 81 83 84 83 80 79 80 80 80 78 80 80
90 90 87 87 73 78 81 72 82 78 82 77 83 76 64 70 74 80 76 74 77 76 74 77 80 78 81 83 83 83 82 80 80 80 80 79 77 79 80 80 80 82 83 83
93 92 86 90 67 87 65 70 67 75 82 75 74 72 68 72 78 78 79 80 80 79 79 79 82 83 77 81 81 82 82 81 84 82 81 79 78 80 81 81 83 88 87 96
92 92 90 83 87 74 83 74 82 73 92 81 76 67 67 70 72 76 80 81 82 84 84 86 85 85 80 81 83 82 83 84 84 84 82 81 79 83 83 87 89 87 90 99
94 88 86 90 86 87 83 70 68 75 94 80 66 69 73 67 72 73 83 82 82 83 85 88 88 84 77 83 82 82 83 82 84 83 83 81 82 82 85 86 91 99 91 99
91 90 87 91 92 79 67 72 72 74 70 86 71 77 79 78 75 80 81 82 82 83 85 87 88 89 90 84 82 84 84 84 83 84 85 86 85 86 86 92 98 98 97 95
84 88 91 91 93 89 84 79 76 66 78 87 80 76 83 84 85 84 82 84 85 85 84 86 88 92 91 87 83 86 85 85 86 86 87 88 88 87 87 93 97 93 90 90
84 76 83 77 76 75 90 90 90 89 83 91 89 85 82 83 84 83 87 85 86 87 86 83 84 86 87 88 85 86 90 85 86 86 87 87 87 87 86 93 95 91 90 91
90 84 83 85 88 89 89 89 91 92 90 91 92 90 83 84 82 81 84 88 89 90 90 86 84 83 83 82 85 88 88 84 84 84 85 87 87 88 86 90 90 87 90 91
88 84 86 88 90 87 85 90 91 89 88 87 87 92 90 80 79 78 83 86 90 91 91 90 88 84 86 84 87 86 85 87 90 93 94 93 92 90 89 90 88 86 84 89
90 86 90 87 81 80 82 88 86 86 89 90 91 90 85 82 86 83 87 87 82 80 84 91 93 93 92 88 89 90 89 84 84 90 91 92 92 92 96 93 88 88 89 87

GFSCGP_sfc_rhum_114.txt.gz
RH
67 78 75 50 48 64 69 80 76 47 41 49 78 52 46 66 69 65 66 61 63 56 49 51 73 90 96 80 82 83 86 82 84 82 88 84 72 68 64 60 60 58 55 58
75 75 43 49 52 60 70 74 72 51 42 50 57 61 41 52 64 63 66 63 62 56 51 53 65 94 96 91 84 84 85 88 85 82 82 83 76 65 63 65 63 61 61 64
76 47 45 55 66 79 72 85 74 73 72 54 59 68 55 74 70 65 61 55 69 62 54 60 64 91 92 94 87 86 88 90 87 83 86 85 82 81 77 76 71 68 64 70
62 50 60 61 72 84 94 83 96 95 99 97 55 86 83 78 84 73 66 67 70 60 56 62 63 87 92 95 93 88 93 94 87 80 89 89 86 85 76 76 78 75 65 69
66 55 61 77 72 99 99 99 97 98 98 99 88 84 100 92 89 74 63 63 59 65 70 64 62 82 86 96 98 99 98 97 97 90 92 93 86 81 81 80 81 81 79 70
71 54 67 73 70 93 95 98 98 99 100 98 84 68 98 93 69 63 57 62 66 75 76 61 66 91 92 95 95 97 99 99 98 97 97 93 95 97 96 92 90 90 90 90
75 91 82 94 98 78 95 94 89 95 95 95 91 60 69 51 63 64 63 68 81 88 76 53 62 91 92 91 91 89 95 97 97 98 94 98 97 98 94 93 93 91 90 91
90 85 82 91 98 100 100 94 91 90 90 92 71 84 78 44 41 40 61 79 85 89 69 51 54 76 96 97 94 93 92 92 95 96 97 97 97 99 100 99 97 99 98 96
81 84 79 96 97 98 93 91 95 79 62 68 89 63 45 44 47 44 71 83 89 90 80 50 54 66 86 94 96 95 94 92 91 92 97 98 98 97 100 99 98 99 99 99
76 89 55 68 86 74 88 94 91 83 77 88 81 86 86 60 62 54 80 87 94 85 52 39 50 64 73 87 96 95 94 94 92 92 94 92 94 94 93 96 99 98 99 99
73 66 72 62 84 99 85 84 75 64 65 65 73 91 56 62 63 59 70 90 95 90 75 48 46 60 76 78 90 93 90 92 97 94 91 88 86 87 89 94 97 94 97 92
71 69 85 84 60 72 65 74 73 80 71 72 62 89 42 49 58 58 61 83 92 89 82 59 50 53 70 82 88 96 94 94 93 92 92 94 96 96 97 96 90 88 85 78
68 74 81 72 66 60 66 64 70 66 70 87 72 83 42 44 51 53 58 60 83 84 78 61 58 53 60 76 81 91 93 88 84 87 88 90 90 89 88 85 79 76 74 71
66 68 91 82 78 75 90 68 66 86 80 64 68 59 52 53 52 52 53 58 59 69 70 73 68 68 60 66 74 81 91 87 85 84 84 85 83 81 80 77 74 71 66 66
61 91 73 66 66 67 72 69 63 92 65 82 60 62 57 54 52 50 47 51 61 67 63 65 69 68 64 63 66 72 80 82 80 80 81 80 78 76 75 74 70 64 62 62
61 79 68 76 55 52 62 62 56 61 56 56 54 62 49 49 44 47 50 52 57 58 59 66 61 61 64 65 62 67 75 77 74 77 78 76 72 70 71 70 68 66 63 62
67 65 66 75 57 59 65 70 66 62 60 56 63 59 49 53 58 62 57 55 58 58 58 67 62 62 64 63 61 62 63 64 68 70 70 69 67 68 68 66 68 68 69 67
70 68 62 58 48 66 58 57 60 66 66 57 58 55 53 56 59 59 58 59 57 60 61 61 64 61 59 60 60 61 62 63 67 65 66 64 64 66 66 66 70 76 75 78
69 65 58 56 58 61 60 61 74 67 75 60 53 51 52 56 54 60 61 60 62 63 64 65 63 63 60 61 60 61 62 65 66 65 65 64 63 66 66 74 76 75 83 93
69 60 56 63 64 66 56 54 54 54 76 61 52 54 53 49 47 58 62 60 60 62 66 68 65 60 59 64 61 61 60 59 63 64 64 61 64 65 68 71 78 88 79 93
59 58 63 59 64 55 48 53 54 55 70 66 56 58 56 54 58 64 60 63 60 63 67 65 66 70 70 65 62 66 65 68 68 65 66 66 65 68 69 77 80 83 86 89
56 55 54 62 66 69 58 60 54 57 62 65 61 61 64 63 65 65 66 67 67 67 65 67 70 75 73 70 66 70 74 74 71 68 70 70 70 70 70 76 84 74 74 74
55 50 49 51 51 65 69 68 67 63 63 70 66 65 61 65 66 67 68 66 68 68 67 63 65 68 72 77 73 74 76 69 68 68 69 69 67 66 65 65 72 67 67 65
62 62 53 62 66 67 66 68 70 68 68 70 71 67 64 62 64 71 70 68 68 70 70 66 63 65 73 76 79 81 83 79 69 72 71 68 67 66 64 68 67 64 67 68
54 60 58 64 68 66 64 65 68 70 68 69 68 73 68 63 66 64 70 72 72 68 69 68 67 67 70 68 70 76 79 86 92 94 95 93 89 83 80 78 72 69 65 72
59 58 55 51 50 49 52 61 65 64 68 71 71 70 68 71 69 70 74 72 63 61 64 67 70 69 71 68 70 74 72 70 70 72 82 89 90 93 98 96 96 93 92 90

GFSCGP_sfc_rhum_117.txt.gz
RH
54 73 75 59 42 47 50 56 62 38 30 34 35 44 60 38 42 42 36 39 37 44 40 41 51 73 87 92 95 94 94 81 80 90 95 88 69 52 49 48 47 49 43 45
65 83 44 34 33 44 48 55 51 38 33 40 43 42 34 38 49 55 52 48 51 44 42 40 50 71 90 93 92 95 88 84 80 83 82 76 70 64 65 64 52 48 45 50
65 46 35 39 47 59 57 65 62 58 53 57 65 54 42 39 42 44 50 47 44 44 43 40 49 70 90 92 95 89 88 86 82 80 82 79 75 71 73 70 67 67 60 63
52 38 44 47 55 60 95 55 88 89 96 91 49 77 58 41 48 52 48 50 50 45 42 42 52 67 92 90 91 92 84 93 85 80 85 82 84 81 72 73 71 73 64 69
63 52 49 60 58 93 92 83 98 99 100 99 74 96 72 42 66 64 59 58 52 48 44 50 55 64 88 86 94 92 92 94 90 86 84 86 83 77 75 74 77 75 70 70
62 46 55 63 59 78 90 99 99 100 100 94 70 90 99 98 88 66 66 62 63 66 60 60 57 61 87 92 97 98 97 93 91 84 84 86 84 81 82 84 83 80 81 81
69 77 64 83 99 70 89 98 98 99 98 84 91 90 99 85 71 75 76 81 81 72 69 60 56 79 92 94 96 94 98 99 96 97 95 97 96 96 86 85 86 91 91 90
89 95 84 94 98 100 100 95 97 96 93 80 50 85 98 70 53 67 69 83 82 75 67 52 60 89 90 96 96 96 97 98 99 98 98 98 97 96 96 95 88 91 89 88
82 86 62 75 95 97 88 91 82 96 92 76 93 96 82 60 66 78 81 88 89 80 69 64 59 89 89 92 94 94 95 93 95 96 98 99 99 98 99 99 97 96 98 93
73 91 52 58 78 82 94 84 90 90 94 92 90 87 95 87 86 85 86 96 92 88 71 66 75 88 84 83 85 87 88 90 92 96 94 97 97 96 95 97 99 99 99 99
69 76 87 73 97 100 92 83 70 64 61 92 80 93 92 76 74 87 88 96 96 93 87 74 85 88 94 94 93 97 93 98 98 96 97 97 95 94 96 94 96 98 99 98
58 69 94 75 51 55 67 69 65 93 68 69 61 95 58 58 70 79 86 92 94 92 82 71 81 84 88 96 95 97 98 99 98 97 95 92 92 91 94 90 94 94 95 97
63 70 96 78 53 50 68 53 56 56 68 73 74 93 44 47 58 68 88 89 93 91 82 70 73 72 84 92 97 98 98 99 98 95 89 93 97 92 95 95 96 96 94 92
67 65 87 82 73 73 90 54 58 88 81 75 85 76 54 51 53 55 60 64 70 82 84 77 63 63 75 82 91 95 96 95 96 96 96 97 95 94 94 92 93 91 89 86
55 81 59 53 57 52 57 56 51 75 55 82 63 64 57 50 49 50 48 50 56 61 74 81 81 65 62 64 76 85 91 92 92 90 91 91 88 87 88 88 89 85 82 75
49 68 59 65 48 49 65 58 54 54 50 52 54 62 48 46 45 50 50 53 56 57 58 60 65 72 66 62 66 75 82 86 82 82 83 82 80 81 81 79 74 78 76 69
56 56 61 67 51 50 58 70 62 58 54 51 67 55 43 52 58 58 53 51 56 55 58 58 60 59 62 60 59 64 69 71 77 80 77 75 73 75 76 72 75 80 77 70
56 55 55 51 43 60 58 53 58 61 58 49 49 48 48 52 55 55 53 54 57 58 62 60 58 60 57 56 58 58 61 64 70 73 76 74 72 73 72 74 74 78 78 79
54 54 50 52 52 56 56 55 66 79 67 48 47 44 43 48 45 62 56 54 58 61 62 61 58 57 57 59 57 58 60 63 65 65 66 66 66 69 68 78 80 79 84 88
53 50 51 53 60 59 48 50 48 48 82 52 48 49 47 39 53 70 59 56 57 60 63 63 60 58 58 58 54 56 58 59 65 62 64 64 67 67 72 79 81 87 85 90
46 45 51 48 56 52 44 47 47 62 79 54 51 52 51 61 60 60 58 60 56 58 64 62 65 69 66 61 58 63 65 73 68 65 66 67 66 72 73 81 84 85 89 88
45 45 43 48 51 65 49 52 54 59 59 53 54 55 58 58 58 61 60 62 63 62 60 64 68 73 72 69 63 72 76 69 66 65 68 70 71 70 73 80 80 80 81 82
45 44 44 49 54 59 58 59 58 50 54 59 57 58 56 59 61 61 60 61 62 61 60 57 63 68 71 74 79 87 88 77 67 63 64 66 65 65 65 68 70 70 69 70
48 47 44 53 56 58 58 60 58 56 60 62 62 59 58 58 59 62 60 60 62 63 62 58 58 62 65 68 72 77 82 82 82 80 79 76 67 64 60 65 64 64 65 66
43 50 45 50 54 56 56 54 58 61 60 61 62 64 60 57 58 57 64 62 61 60 60 58 59 60 62 60 64 64 65 69 88 94 97 97 96 93 89 86 82 76 70 78
47 42 45 36 38 40 41 50 57 59 61 62 62 64 63 64 61 62 64 60 56 55 58 60 62 62 62 60 63 65 64 64 66 66 72 79 87 95 99 99 98 95 96 95